<?xml version='1.0' encoding='UTF-8'?><gpx version="1.1" creator="JPX - https://github.com/jenetics/jpx" xmlns="http://www.topografix.com/GPX/1/1"><trk><trkseg><trkpt lat="48.6023958" lon="8.9037933"><ele>555.0</ele><time>2026-04-06T11:08:02.465Z</time></trkpt><trkpt lat="48.6022992" lon="8.9037959"><ele>555.0</ele><time>2026-04-06T11:08:14.479Z</time></trkpt><trkpt lat="48.6023128" lon="8.9036613"><ele>555.0</ele><time>2026-04-06T11:08:59.473Z</time></trkpt><trkpt lat="48.6022414" lon="8.9035762"><ele>555.0</ele><time>2026-04-06T11:09:02.478Z</time></trkpt><trkpt lat="48.6021762" lon="8.903608"><ele>555.0</ele><time>2026-04-06T11:09:04.368Z</time></trkpt><trkpt lat="48.6020866" lon="8.9036505"><ele>555.0</ele><time>2026-04-06T11:09:06.464Z</time></trkpt><trkpt lat="48.6019995" lon="8.9036721"><ele>555.8333333333334</ele><time>2026-04-06T11:09:08.462Z</time></trkpt><trkpt lat="48.6019058" lon="8.9036803"><ele>556.6666666666666</ele><time>2026-04-06T11:09:10.472Z</time></trkpt><trkpt lat="48.6018176" lon="8.9037141"><ele>557.5</ele><time>2026-04-06T11:09:12.464Z</time></trkpt><trkpt lat="48.6017303" lon="8.9037294"><ele>558.3333333333333</ele><time>2026-04-06T11:09:14.457Z</time></trkpt><trkpt lat="48.6016509" lon="8.9037514"><ele>559.1666666666666</ele><time>2026-04-06T11:09:16.464Z</time></trkpt><trkpt lat="48.6015678" lon="8.9037667"><ele>560.0</ele><time>2026-04-06T11:09:18.464Z</time></trkpt><trkpt lat="48.6014817" lon="8.9037912"><ele>560.0</ele><time>2026-04-06T11:09:20.465Z</time></trkpt><trkpt lat="48.6014108" lon="8.9038157"><ele>560.0</ele><time>2026-04-06T11:09:22.471Z</time></trkpt><trkpt lat="48.601349" lon="8.9038627"><ele>560.0</ele><time>2026-04-06T11:09:24.491Z</time></trkpt><trkpt lat="48.6012708" lon="8.9039584"><ele>560.0</ele><time>2026-04-06T11:09:26.462Z</time></trkpt><trkpt lat="48.6012144" lon="8.9040817"><ele>560.0</ele><time>2026-04-06T11:09:28.473Z</time></trkpt><trkpt lat="48.6011777" lon="8.9042392"><ele>560.5</ele><time>2026-04-06T11:09:30.466Z</time></trkpt><trkpt lat="48.6011488" lon="8.9044197"><ele>561.0</ele><time>2026-04-06T11:09:32.475Z</time></trkpt><trkpt lat="48.6011185" lon="8.9046062"><ele>561.5</ele><time>2026-04-06T11:09:34.474Z</time></trkpt><trkpt lat="48.6010859" lon="8.9047692"><ele>562.0</ele><time>2026-04-06T11:09:36.474Z</time></trkpt><trkpt lat="48.6010671" lon="8.9049393"><ele>562.0</ele><time>2026-04-06T11:09:38.479Z</time></trkpt><trkpt lat="48.6010351" lon="8.9051086"><ele>562.0</ele><time>2026-04-06T11:09:40.47Z</time></trkpt><trkpt lat="48.6010029" lon="8.9052889"><ele>562.0</ele><time>2026-04-06T11:09:42.466Z</time></trkpt><trkpt lat="48.600979" lon="8.9054826"><ele>562.0</ele><time>2026-04-06T11:09:44.472Z</time></trkpt><trkpt lat="48.6009478" lon="8.9056579"><ele>562.0</ele><time>2026-04-06T11:09:46.471Z</time></trkpt><trkpt lat="48.600906" lon="8.9058369"><ele>562.0</ele><time>2026-04-06T11:09:48.474Z</time></trkpt><trkpt lat="48.6008933" lon="8.9059322"><ele>562.0</ele><time>2026-04-06T11:09:49.466Z</time></trkpt><trkpt lat="48.6008629" lon="8.9061158"><ele>562.0</ele><time>2026-04-06T11:09:51.467Z</time></trkpt><trkpt lat="48.6008549" lon="8.9062105"><ele>562.0</ele><time>2026-04-06T11:09:52.465Z</time></trkpt><trkpt lat="48.6008409" lon="8.9063078"><ele>562.0</ele><time>2026-04-06T11:09:53.473Z</time></trkpt><trkpt lat="48.6008135" lon="8.9064978"><ele>562.6</ele><time>2026-04-06T11:09:55.472Z</time></trkpt><trkpt lat="48.6007769" lon="8.90668"><ele>563.2</ele><time>2026-04-06T11:09:57.474Z</time></trkpt><trkpt lat="48.6007444" lon="8.9068629"><ele>563.8</ele><time>2026-04-06T11:09:59.468Z</time></trkpt><trkpt lat="48.6007252" lon="8.9069569"><ele>564.4</ele><time>2026-04-06T11:10:00.468Z</time></trkpt><trkpt lat="48.6006966" lon="8.9071357"><ele>565.0</ele><time>2026-04-06T11:10:02.468Z</time></trkpt><trkpt lat="48.6006874" lon="8.9072359"><ele>565.0</ele><time>2026-04-06T11:10:03.474Z</time></trkpt><trkpt lat="48.6006707" lon="8.9073338"><ele>565.0</ele><time>2026-04-06T11:10:04.462Z</time></trkpt><trkpt lat="48.6006621" lon="8.9074338"><ele>565.0</ele><time>2026-04-06T11:10:05.466Z</time></trkpt><trkpt lat="48.6006341" lon="8.9076159"><ele>565.0</ele><time>2026-04-06T11:10:07.47Z</time></trkpt><trkpt lat="48.6006046" lon="8.9078028"><ele>565.0</ele><time>2026-04-06T11:10:09.467Z</time></trkpt><trkpt lat="48.6005921" lon="8.9079056"><ele>565.0</ele><time>2026-04-06T11:10:10.466Z</time></trkpt><trkpt lat="48.6005765" lon="8.9080105"><ele>565.0</ele><time>2026-04-06T11:10:11.469Z</time></trkpt><trkpt lat="48.6005605" lon="8.9081048"><ele>565.0</ele><time>2026-04-06T11:10:12.467Z</time></trkpt><trkpt lat="48.6005451" lon="8.9082056"><ele>565.0</ele><time>2026-04-06T11:10:13.479Z</time></trkpt><trkpt lat="48.6005085" lon="8.9083971"><ele>565.0</ele><time>2026-04-06T11:10:15.467Z</time></trkpt><trkpt lat="48.6004862" lon="8.9085095"><ele>565.0</ele><time>2026-04-06T11:10:16.489Z</time></trkpt><trkpt lat="48.6004649" lon="8.9086025"><ele>565.0</ele><time>2026-04-06T11:10:17.458Z</time></trkpt><trkpt lat="48.6004354" lon="8.9086909"><ele>565.0</ele><time>2026-04-06T11:10:18.509Z</time></trkpt><trkpt lat="48.6003813" lon="8.9088259"><ele>565.0</ele><time>2026-04-06T11:10:20.467Z</time></trkpt><trkpt lat="48.6003533" lon="8.9089142"><ele>565.0</ele><time>2026-04-06T11:10:21.479Z</time></trkpt><trkpt lat="48.6003013" lon="8.9090414"><ele>565.0</ele><time>2026-04-06T11:10:23.479Z</time></trkpt><trkpt lat="48.6002436" lon="8.9091975"><ele>564.4</ele><time>2026-04-06T11:10:25.481Z</time></trkpt><trkpt lat="48.600204" lon="8.9092816"><ele>563.8</ele><time>2026-04-06T11:10:26.496Z</time></trkpt><trkpt lat="48.6001383" lon="8.9094191"><ele>563.2</ele><time>2026-04-06T11:10:28.495Z</time></trkpt><trkpt lat="48.600074" lon="8.9095534"><ele>562.6</ele><time>2026-04-06T11:10:30.476Z</time></trkpt><trkpt lat="48.6000367" lon="8.9096951"><ele>562.0</ele><time>2026-04-06T11:10:32.47Z</time></trkpt><trkpt lat="48.5999987" lon="8.9097783"><ele>562.0</ele><time>2026-04-06T11:10:34.471Z</time></trkpt><trkpt lat="48.5999562" lon="8.9098852"><ele>562.0</ele><time>2026-04-06T11:10:36.475Z</time></trkpt><trkpt lat="48.5998982" lon="8.909996"><ele>562.0</ele><time>2026-04-06T11:10:38.517Z</time></trkpt><trkpt lat="48.5998573" lon="8.9101004"><ele>562.0</ele><time>2026-04-06T11:10:40.467Z</time></trkpt><trkpt lat="48.5998052" lon="8.9101775"><ele>562.0</ele><time>2026-04-06T11:10:42.481Z</time></trkpt><trkpt lat="48.5997608" lon="8.9102515"><ele>562.0</ele><time>2026-04-06T11:10:44.49Z</time></trkpt><trkpt lat="48.5997057" lon="8.9103919"><ele>561.6666666666667</ele><time>2026-04-06T11:10:46.512Z</time></trkpt><trkpt lat="48.5996489" lon="8.9105247"><ele>561.3333333333334</ele><time>2026-04-06T11:10:48.484Z</time></trkpt><trkpt lat="48.5996136" lon="8.9106121"><ele>561.0</ele><time>2026-04-06T11:10:49.518Z</time></trkpt><trkpt lat="48.5995763" lon="8.9106966"><ele>560.6666666666666</ele><time>2026-04-06T11:10:50.508Z</time></trkpt><trkpt lat="48.5995252" lon="8.9107942"><ele>560.3333333333333</ele><time>2026-04-06T11:10:51.495Z</time></trkpt><trkpt lat="48.5994877" lon="8.9108832"><ele>560.0</ele><time>2026-04-06T11:10:52.501Z</time></trkpt><trkpt lat="48.599443" lon="8.9109806"><ele>559.0</ele><time>2026-04-06T11:10:53.514Z</time></trkpt><trkpt lat="48.5993836" lon="8.9110665"><ele>558.0</ele><time>2026-04-06T11:10:54.511Z</time></trkpt><trkpt lat="48.5993145" lon="8.9111313"><ele>557.0</ele><time>2026-04-06T11:10:55.508Z</time></trkpt><trkpt lat="48.5992305" lon="8.9111636"><ele>556.0</ele><time>2026-04-06T11:10:56.516Z</time></trkpt><trkpt lat="48.5991591" lon="8.9111903"><ele>555.0</ele><time>2026-04-06T11:10:57.487Z</time></trkpt><trkpt lat="48.5990929" lon="8.9112062"><ele>554.0</ele><time>2026-04-06T11:10:58.498Z</time></trkpt><trkpt lat="48.5990204" lon="8.9112"><ele>554.0</ele><time>2026-04-06T11:10:59.504Z</time></trkpt><trkpt lat="48.5989404" lon="8.9111806"><ele>554.0</ele><time>2026-04-06T11:11:00.501Z</time></trkpt><trkpt lat="48.5988687" lon="8.9111396"><ele>554.0</ele><time>2026-04-06T11:11:01.51Z</time></trkpt><trkpt lat="48.5988188" lon="8.911069"><ele>554.0</ele><time>2026-04-06T11:11:02.504Z</time></trkpt><trkpt lat="48.5987353" lon="8.9109762"><ele>554.0</ele><time>2026-04-06T11:11:04.512Z</time></trkpt><trkpt lat="48.5986472" lon="8.9109235"><ele>554.0</ele><time>2026-04-06T11:11:06.511Z</time></trkpt><trkpt lat="48.5985326" lon="8.9108873"><ele>554.0</ele><time>2026-04-06T11:11:08.505Z</time></trkpt><trkpt lat="48.5984063" lon="8.9109098"><ele>554.0</ele><time>2026-04-06T11:11:10.501Z</time></trkpt><trkpt lat="48.5983393" lon="8.9109547"><ele>554.0</ele><time>2026-04-06T11:11:11.522Z</time></trkpt><trkpt lat="48.5982843" lon="8.9110137"><ele>554.0</ele><time>2026-04-06T11:11:12.505Z</time></trkpt><trkpt lat="48.5982342" lon="8.911093"><ele>554.0</ele><time>2026-04-06T11:11:13.473Z</time></trkpt><trkpt lat="48.5981958" lon="8.9111988"><ele>554.0</ele><time>2026-04-06T11:11:14.465Z</time></trkpt><trkpt lat="48.5981735" lon="8.911323"><ele>554.0</ele><time>2026-04-06T11:11:15.511Z</time></trkpt><trkpt lat="48.5981525" lon="8.9114402"><ele>554.0</ele><time>2026-04-06T11:11:16.47Z</time></trkpt><trkpt lat="48.5981304" lon="8.9115688"><ele>554.0</ele><time>2026-04-06T11:11:17.462Z</time></trkpt><trkpt lat="48.5981051" lon="8.9116913"><ele>554.0</ele><time>2026-04-06T11:11:18.472Z</time></trkpt><trkpt lat="48.5980971" lon="8.9118149"><ele>554.0</ele><time>2026-04-06T11:11:19.493Z</time></trkpt><trkpt lat="48.5980864" lon="8.911942"><ele>554.0</ele><time>2026-04-06T11:11:20.501Z</time></trkpt><trkpt lat="48.5980855" lon="8.9120828"><ele>553.5</ele><time>2026-04-06T11:11:21.486Z</time></trkpt><trkpt lat="48.5980883" lon="8.9122136"><ele>553.0</ele><time>2026-04-06T11:11:22.489Z</time></trkpt><trkpt lat="48.5980821" lon="8.9123402"><ele>552.5</ele><time>2026-04-06T11:11:23.496Z</time></trkpt><trkpt lat="48.5980902" lon="8.9124763"><ele>552.0</ele><time>2026-04-06T11:11:24.486Z</time></trkpt><trkpt lat="48.5980909" lon="8.9126234"><ele>551.5</ele><time>2026-04-06T11:11:25.503Z</time></trkpt><trkpt lat="48.5980896" lon="8.9127605"><ele>551.0</ele><time>2026-04-06T11:11:26.486Z</time></trkpt><trkpt lat="48.5980879" lon="8.9128883"><ele>551.0</ele><time>2026-04-06T11:11:27.501Z</time></trkpt><trkpt lat="48.5980805" lon="8.9130189"><ele>551.0</ele><time>2026-04-06T11:11:28.527Z</time></trkpt><trkpt lat="48.5980414" lon="8.9131483"><ele>551.0</ele><time>2026-04-06T11:11:29.508Z</time></trkpt><trkpt lat="48.5979978" lon="8.913268"><ele>551.0</ele><time>2026-04-06T11:11:30.492Z</time></trkpt><trkpt lat="48.5979508" lon="8.9133837"><ele>551.0</ele><time>2026-04-06T11:11:31.503Z</time></trkpt><trkpt lat="48.5979115" lon="8.9135039"><ele>551.0</ele><time>2026-04-06T11:11:32.515Z</time></trkpt><trkpt lat="48.5978652" lon="8.9136202"><ele>551.0</ele><time>2026-04-06T11:11:33.526Z</time></trkpt><trkpt lat="48.5978206" lon="8.9137426"><ele>551.0</ele><time>2026-04-06T11:11:34.494Z</time></trkpt><trkpt lat="48.5977806" lon="8.9138647"><ele>551.0</ele><time>2026-04-06T11:11:35.505Z</time></trkpt><trkpt lat="48.5977474" lon="8.9139864"><ele>551.0</ele><time>2026-04-06T11:11:36.503Z</time></trkpt><trkpt lat="48.597709" lon="8.9141119"><ele>550.8</ele><time>2026-04-06T11:11:37.528Z</time></trkpt><trkpt lat="48.5976716" lon="8.9142417"><ele>550.6</ele><time>2026-04-06T11:11:38.492Z</time></trkpt><trkpt lat="48.5976406" lon="8.9143776"><ele>550.4</ele><time>2026-04-06T11:11:39.522Z</time></trkpt><trkpt lat="48.5976078" lon="8.9145155"><ele>550.2</ele><time>2026-04-06T11:11:40.507Z</time></trkpt><trkpt lat="48.5975805" lon="8.9146496"><ele>550.0</ele><time>2026-04-06T11:11:41.481Z</time></trkpt><trkpt lat="48.5975522" lon="8.9147794"><ele>550.0</ele><time>2026-04-06T11:11:42.487Z</time></trkpt><trkpt lat="48.597525" lon="8.9149111"><ele>550.0</ele><time>2026-04-06T11:11:43.473Z</time></trkpt><trkpt lat="48.5974994" lon="8.9150431"><ele>550.0</ele><time>2026-04-06T11:11:44.505Z</time></trkpt><trkpt lat="48.5974712" lon="8.9151818"><ele>550.0</ele><time>2026-04-06T11:11:45.486Z</time></trkpt><trkpt lat="48.5974591" lon="8.9153209"><ele>550.0</ele><time>2026-04-06T11:11:46.521Z</time></trkpt><trkpt lat="48.5974684" lon="8.9154669"><ele>549.8</ele><time>2026-04-06T11:11:47.494Z</time></trkpt><trkpt lat="48.5974877" lon="8.9156071"><ele>549.6</ele><time>2026-04-06T11:11:48.483Z</time></trkpt><trkpt lat="48.5975129" lon="8.9157542"><ele>549.4</ele><time>2026-04-06T11:11:49.501Z</time></trkpt><trkpt lat="48.5975326" lon="8.9158895"><ele>549.2</ele><time>2026-04-06T11:11:50.501Z</time></trkpt><trkpt lat="48.5975595" lon="8.9160208"><ele>549.0</ele><time>2026-04-06T11:11:51.505Z</time></trkpt><trkpt lat="48.5975864" lon="8.9161612"><ele>548.2</ele><time>2026-04-06T11:11:52.516Z</time></trkpt><trkpt lat="48.5976034" lon="8.9163008"><ele>547.4</ele><time>2026-04-06T11:11:53.518Z</time></trkpt><trkpt lat="48.5976201" lon="8.9164409"><ele>546.6</ele><time>2026-04-06T11:11:54.513Z</time></trkpt><trkpt lat="48.5976253" lon="8.9165854"><ele>545.8</ele><time>2026-04-06T11:11:55.501Z</time></trkpt><trkpt lat="48.5976123" lon="8.9167258"><ele>545.0</ele><time>2026-04-06T11:11:56.514Z</time></trkpt><trkpt lat="48.597605" lon="8.9168723"><ele>544.2</ele><time>2026-04-06T11:11:57.489Z</time></trkpt><trkpt lat="48.5975903" lon="8.9170257"><ele>543.4</ele><time>2026-04-06T11:11:58.51Z</time></trkpt><trkpt lat="48.5975835" lon="8.91717"><ele>542.6</ele><time>2026-04-06T11:11:59.524Z</time></trkpt><trkpt lat="48.5975849" lon="8.9173078"><ele>541.8</ele><time>2026-04-06T11:12:00.536Z</time></trkpt><trkpt lat="48.5975874" lon="8.9174386"><ele>541.0</ele><time>2026-04-06T11:12:01.472Z</time></trkpt><trkpt lat="48.5976013" lon="8.91758"><ele>541.0</ele><time>2026-04-06T11:12:02.515Z</time></trkpt><trkpt lat="48.5976014" lon="8.9177274"><ele>541.0</ele><time>2026-04-06T11:12:03.504Z</time></trkpt><trkpt lat="48.5975967" lon="8.9178673"><ele>541.0</ele><time>2026-04-06T11:12:04.506Z</time></trkpt><trkpt lat="48.5975851" lon="8.9180227"><ele>541.0</ele><time>2026-04-06T11:12:05.515Z</time></trkpt><trkpt lat="48.5975578" lon="8.9181723"><ele>541.0</ele><time>2026-04-06T11:12:06.522Z</time></trkpt><trkpt lat="48.5975286" lon="8.9182933"><ele>541.3333333333334</ele><time>2026-04-06T11:12:07.503Z</time></trkpt><trkpt lat="48.5974936" lon="8.9184231"><ele>541.6666666666667</ele><time>2026-04-06T11:12:08.514Z</time></trkpt><trkpt lat="48.5974728" lon="8.9185449"><ele>542.0</ele><time>2026-04-06T11:12:09.473Z</time></trkpt><trkpt lat="48.5974546" lon="8.9186678"><ele>542.3333333333334</ele><time>2026-04-06T11:12:10.507Z</time></trkpt><trkpt lat="48.5974495" lon="8.9187978"><ele>542.6666666666666</ele><time>2026-04-06T11:12:11.511Z</time></trkpt><trkpt lat="48.5974586" lon="8.9189387"><ele>543.0</ele><time>2026-04-06T11:12:12.485Z</time></trkpt><trkpt lat="48.5974651" lon="8.9190762"><ele>543.0</ele><time>2026-04-06T11:12:13.496Z</time></trkpt><trkpt lat="48.5974688" lon="8.9192167"><ele>543.0</ele><time>2026-04-06T11:12:14.468Z</time></trkpt><trkpt lat="48.5974821" lon="8.9193602"><ele>543.0</ele><time>2026-04-06T11:12:15.494Z</time></trkpt><trkpt lat="48.5975045" lon="8.9195031"><ele>543.0</ele><time>2026-04-06T11:12:16.498Z</time></trkpt><trkpt lat="48.5975299" lon="8.9196339"><ele>543.0</ele><time>2026-04-06T11:12:17.489Z</time></trkpt><trkpt lat="48.5975535" lon="8.9197634"><ele>542.5</ele><time>2026-04-06T11:12:18.524Z</time></trkpt><trkpt lat="48.5975768" lon="8.9198877"><ele>542.0</ele><time>2026-04-06T11:12:19.513Z</time></trkpt><trkpt lat="48.5975902" lon="8.9200304"><ele>541.5</ele><time>2026-04-06T11:12:20.507Z</time></trkpt><trkpt lat="48.5975921" lon="8.9201618"><ele>541.0</ele><time>2026-04-06T11:12:21.51Z</time></trkpt><trkpt lat="48.5975808" lon="8.9202923"><ele>540.5</ele><time>2026-04-06T11:12:22.503Z</time></trkpt><trkpt lat="48.597573" lon="8.9204197"><ele>540.0</ele><time>2026-04-06T11:12:23.505Z</time></trkpt><trkpt lat="48.5975721" lon="8.9205517"><ele>539.2</ele><time>2026-04-06T11:12:24.498Z</time></trkpt><trkpt lat="48.597568" lon="8.9206773"><ele>538.4</ele><time>2026-04-06T11:12:25.509Z</time></trkpt><trkpt lat="48.5975717" lon="8.9208082"><ele>537.6</ele><time>2026-04-06T11:12:26.495Z</time></trkpt><trkpt lat="48.5975892" lon="8.9209542"><ele>536.8</ele><time>2026-04-06T11:12:27.49Z</time></trkpt><trkpt lat="48.5976113" lon="8.9211035"><ele>536.0</ele><time>2026-04-06T11:12:28.515Z</time></trkpt><trkpt lat="48.5976344" lon="8.9212552"><ele>535.4</ele><time>2026-04-06T11:12:29.5Z</time></trkpt><trkpt lat="48.5976612" lon="8.921414"><ele>534.8</ele><time>2026-04-06T11:12:30.512Z</time></trkpt><trkpt lat="48.597683" lon="8.9215709"><ele>534.1999999999999</ele><time>2026-04-06T11:12:31.504Z</time></trkpt><trkpt lat="48.5977063" lon="8.9217204"><ele>533.6</ele><time>2026-04-06T11:12:32.518Z</time></trkpt><trkpt lat="48.5977246" lon="8.921858"><ele>533.0</ele><time>2026-04-06T11:12:33.493Z</time></trkpt><trkpt lat="48.5977408" lon="8.9219994"><ele>532.1999999999999</ele><time>2026-04-06T11:12:34.498Z</time></trkpt><trkpt lat="48.5977543" lon="8.9221366"><ele>531.4</ele><time>2026-04-06T11:12:35.5Z</time></trkpt><trkpt lat="48.5977675" lon="8.9222757"><ele>530.5999999999999</ele><time>2026-04-06T11:12:36.52Z</time></trkpt><trkpt lat="48.5977606" lon="8.9224211"><ele>529.8</ele><time>2026-04-06T11:12:37.514Z</time></trkpt><trkpt lat="48.5977401" lon="8.9225627"><ele>529.0</ele><time>2026-04-06T11:12:38.495Z</time></trkpt><trkpt lat="48.5977137" lon="8.922712"><ele>528.6</ele><time>2026-04-06T11:12:39.491Z</time></trkpt><trkpt lat="48.5976899" lon="8.9228471"><ele>528.2</ele><time>2026-04-06T11:12:40.496Z</time></trkpt><trkpt lat="48.5976647" lon="8.9229854"><ele>527.8000000000001</ele><time>2026-04-06T11:12:41.497Z</time></trkpt><trkpt lat="48.5976332" lon="8.9231237"><ele>527.4</ele><time>2026-04-06T11:12:42.494Z</time></trkpt><trkpt lat="48.5976052" lon="8.9232576"><ele>527.0</ele><time>2026-04-06T11:12:43.509Z</time></trkpt><trkpt lat="48.5975763" lon="8.9233913"><ele>526.6</ele><time>2026-04-06T11:12:44.508Z</time></trkpt><trkpt lat="48.59755" lon="8.9235225"><ele>526.2</ele><time>2026-04-06T11:12:45.505Z</time></trkpt><trkpt lat="48.5975152" lon="8.9236549"><ele>525.8</ele><time>2026-04-06T11:12:46.515Z</time></trkpt><trkpt lat="48.59747" lon="8.9237792"><ele>525.4</ele><time>2026-04-06T11:12:47.482Z</time></trkpt><trkpt lat="48.5974241" lon="8.9239036"><ele>525.0</ele><time>2026-04-06T11:12:48.508Z</time></trkpt><trkpt lat="48.5973886" lon="8.9240313"><ele>525.0</ele><time>2026-04-06T11:12:49.505Z</time></trkpt><trkpt lat="48.5973526" lon="8.9241547"><ele>525.0</ele><time>2026-04-06T11:12:50.514Z</time></trkpt><trkpt lat="48.5973129" lon="8.9242795"><ele>525.0</ele><time>2026-04-06T11:12:51.493Z</time></trkpt><trkpt lat="48.5972859" lon="8.9244064"><ele>525.0</ele><time>2026-04-06T11:12:52.453Z</time></trkpt><trkpt lat="48.5972584" lon="8.9245339"><ele>525.0</ele><time>2026-04-06T11:12:53.473Z</time></trkpt><trkpt lat="48.5972405" lon="8.9246669"><ele>525.0</ele><time>2026-04-06T11:12:54.502Z</time></trkpt><trkpt lat="48.5972266" lon="8.9247967"><ele>525.6666666666666</ele><time>2026-04-06T11:12:55.506Z</time></trkpt><trkpt lat="48.5972249" lon="8.9249207"><ele>526.3333333333334</ele><time>2026-04-06T11:12:56.471Z</time></trkpt><trkpt lat="48.597221" lon="8.9250513"><ele>527.0</ele><time>2026-04-06T11:12:57.5Z</time></trkpt><trkpt lat="48.5972119" lon="8.9251741"><ele>527.6666666666667</ele><time>2026-04-06T11:12:58.491Z</time></trkpt><trkpt lat="48.5971945" lon="8.9252973"><ele>528.3333333333334</ele><time>2026-04-06T11:12:59.498Z</time></trkpt><trkpt lat="48.5971655" lon="8.9254223"><ele>529.0</ele><time>2026-04-06T11:13:00.484Z</time></trkpt><trkpt lat="48.5971365" lon="8.9255565"><ele>529.2</ele><time>2026-04-06T11:13:01.495Z</time></trkpt><trkpt lat="48.5971138" lon="8.9256905"><ele>529.4</ele><time>2026-04-06T11:13:02.511Z</time></trkpt><trkpt lat="48.5970865" lon="8.92583"><ele>529.6</ele><time>2026-04-06T11:13:03.501Z</time></trkpt><trkpt lat="48.597062" lon="8.9259884"><ele>529.8</ele><time>2026-04-06T11:13:04.482Z</time></trkpt><trkpt lat="48.5970389" lon="8.9261477"><ele>530.0</ele><time>2026-04-06T11:13:05.483Z</time></trkpt><trkpt lat="48.5970162" lon="8.9263054"><ele>526.8</ele><time>2026-04-06T11:13:06.471Z</time></trkpt><trkpt lat="48.5969939" lon="8.9264631"><ele>523.6</ele><time>2026-04-06T11:13:07.501Z</time></trkpt><trkpt lat="48.5969708" lon="8.9266215"><ele>520.4</ele><time>2026-04-06T11:13:08.5Z</time></trkpt><trkpt lat="48.5969506" lon="8.9267807"><ele>517.2</ele><time>2026-04-06T11:13:09.491Z</time></trkpt><trkpt lat="48.5969378" lon="8.9269265"><ele>514.0</ele><time>2026-04-06T11:13:10.482Z</time></trkpt><trkpt lat="48.5969193" lon="8.9270722"><ele>513.6666666666667</ele><time>2026-04-06T11:13:11.487Z</time></trkpt><trkpt lat="48.5969071" lon="8.9272101"><ele>513.3333333333334</ele><time>2026-04-06T11:13:12.486Z</time></trkpt><trkpt lat="48.5968918" lon="8.9273395"><ele>513.0</ele><time>2026-04-06T11:13:13.502Z</time></trkpt><trkpt lat="48.5968793" lon="8.9274678"><ele>512.6666666666666</ele><time>2026-04-06T11:13:14.482Z</time></trkpt><trkpt lat="48.59687" lon="8.9275946"><ele>512.3333333333333</ele><time>2026-04-06T11:13:15.493Z</time></trkpt><trkpt lat="48.5968551" lon="8.9277177"><ele>512.0</ele><time>2026-04-06T11:13:16.508Z</time></trkpt><trkpt lat="48.5968374" lon="8.9278332"><ele>511.99999999999994</ele><time>2026-04-06T11:13:17.493Z</time></trkpt><trkpt lat="48.5968183" lon="8.9279552"><ele>512.0</ele><time>2026-04-06T11:13:18.497Z</time></trkpt><trkpt lat="48.5967973" lon="8.928081"><ele>512.0</ele><time>2026-04-06T11:13:19.486Z</time></trkpt><trkpt lat="48.5967739" lon="8.9282022"><ele>512.0</ele><time>2026-04-06T11:13:20.503Z</time></trkpt><trkpt lat="48.5967512" lon="8.9283238"><ele>511.99999999999994</ele><time>2026-04-06T11:13:21.517Z</time></trkpt><trkpt lat="48.5967346" lon="8.9284491"><ele>512.0</ele><time>2026-04-06T11:13:22.497Z</time></trkpt><trkpt lat="48.5967151" lon="8.9285682"><ele>512.3333333333333</ele><time>2026-04-06T11:13:23.496Z</time></trkpt><trkpt lat="48.5966984" lon="8.9286926"><ele>512.6666666666666</ele><time>2026-04-06T11:13:24.45Z</time></trkpt><trkpt lat="48.5966905" lon="8.9288151"><ele>513.0</ele><time>2026-04-06T11:13:25.489Z</time></trkpt><trkpt lat="48.5966879" lon="8.9289384"><ele>513.3333333333334</ele><time>2026-04-06T11:13:26.499Z</time></trkpt><trkpt lat="48.5966772" lon="8.9290617"><ele>513.6666666666667</ele><time>2026-04-06T11:13:27.5Z</time></trkpt><trkpt lat="48.596671" lon="8.9291982"><ele>514.0</ele><time>2026-04-06T11:13:28.482Z</time></trkpt><trkpt lat="48.5966603" lon="8.9293188"><ele>514.0</ele><time>2026-04-06T11:13:29.499Z</time></trkpt><trkpt lat="48.5966497" lon="8.9294443"><ele>514.0</ele><time>2026-04-06T11:13:30.502Z</time></trkpt><trkpt lat="48.5966438" lon="8.9295791"><ele>514.0</ele><time>2026-04-06T11:13:31.505Z</time></trkpt><trkpt lat="48.5966319" lon="8.9297054"><ele>514.0</ele><time>2026-04-06T11:13:32.492Z</time></trkpt><trkpt lat="48.5966171" lon="8.929832"><ele>514.0</ele><time>2026-04-06T11:13:33.515Z</time></trkpt><trkpt lat="48.5966087" lon="8.9299568"><ele>514.0</ele><time>2026-04-06T11:13:34.494Z</time></trkpt><trkpt lat="48.5966029" lon="8.9300932"><ele>513.8333333333334</ele><time>2026-04-06T11:13:35.5Z</time></trkpt><trkpt lat="48.5965966" lon="8.9302232"><ele>513.6666666666667</ele><time>2026-04-06T11:13:36.52Z</time></trkpt><trkpt lat="48.5965915" lon="8.930354"><ele>513.5</ele><time>2026-04-06T11:13:37.506Z</time></trkpt><trkpt lat="48.596592" lon="8.9304728"><ele>513.3333333333334</ele><time>2026-04-06T11:13:38.504Z</time></trkpt><trkpt lat="48.5965865" lon="8.9305938"><ele>513.1666666666666</ele><time>2026-04-06T11:13:39.501Z</time></trkpt><trkpt lat="48.5965828" lon="8.93071"><ele>513.0</ele><time>2026-04-06T11:13:40.498Z</time></trkpt><trkpt lat="48.5965814" lon="8.9308204"><ele>513.1666666666666</ele><time>2026-04-06T11:13:41.508Z</time></trkpt><trkpt lat="48.5965848" lon="8.9309461"><ele>513.3333333333334</ele><time>2026-04-06T11:13:42.507Z</time></trkpt><trkpt lat="48.5965888" lon="8.9310648"><ele>513.5</ele><time>2026-04-06T11:13:43.501Z</time></trkpt><trkpt lat="48.5965823" lon="8.93118"><ele>513.6666666666667</ele><time>2026-04-06T11:13:44.499Z</time></trkpt><trkpt lat="48.5965792" lon="8.9312942"><ele>513.8333333333334</ele><time>2026-04-06T11:13:45.505Z</time></trkpt><trkpt lat="48.5965751" lon="8.9313973"><ele>514.0</ele><time>2026-04-06T11:13:46.509Z</time></trkpt><trkpt lat="48.5965774" lon="8.9315126"><ele>514.0</ele><time>2026-04-06T11:13:47.507Z</time></trkpt><trkpt lat="48.5965718" lon="8.9316238"><ele>514.0</ele><time>2026-04-06T11:13:48.504Z</time></trkpt><trkpt lat="48.5965641" lon="8.931733"><ele>514.0</ele><time>2026-04-06T11:13:49.517Z</time></trkpt><trkpt lat="48.5965624" lon="8.9318352"><ele>514.0</ele><time>2026-04-06T11:13:50.475Z</time></trkpt><trkpt lat="48.5965586" lon="8.931943"><ele>514.0</ele><time>2026-04-06T11:13:51.498Z</time></trkpt><trkpt lat="48.5965502" lon="8.9320602"><ele>514.0</ele><time>2026-04-06T11:13:52.502Z</time></trkpt><trkpt lat="48.596539" lon="8.9321775"><ele>514.0</ele><time>2026-04-06T11:13:53.532Z</time></trkpt><trkpt lat="48.5965327" lon="8.9322921"><ele>514.1666666666667</ele><time>2026-04-06T11:13:54.503Z</time></trkpt><trkpt lat="48.5965225" lon="8.9324082"><ele>514.3333333333334</ele><time>2026-04-06T11:13:55.504Z</time></trkpt><trkpt lat="48.5965112" lon="8.9325272"><ele>514.5</ele><time>2026-04-06T11:13:56.465Z</time></trkpt><trkpt lat="48.5964953" lon="8.9326419"><ele>514.6666666666666</ele><time>2026-04-06T11:13:57.5Z</time></trkpt><trkpt lat="48.5964709" lon="8.9327652"><ele>514.8333333333333</ele><time>2026-04-06T11:13:58.467Z</time></trkpt><trkpt lat="48.5964373" lon="8.9328829"><ele>515.0</ele><time>2026-04-06T11:13:59.491Z</time></trkpt><trkpt lat="48.5963955" lon="8.9330066"><ele>515.6</ele><time>2026-04-06T11:14:00.492Z</time></trkpt><trkpt lat="48.5963644" lon="8.9331324"><ele>516.2</ele><time>2026-04-06T11:14:01.515Z</time></trkpt><trkpt lat="48.596326" lon="8.9332656"><ele>516.8</ele><time>2026-04-06T11:14:02.511Z</time></trkpt><trkpt lat="48.5962859" lon="8.9334027"><ele>517.4</ele><time>2026-04-06T11:14:03.505Z</time></trkpt><trkpt lat="48.5962502" lon="8.9335464"><ele>518.0</ele><time>2026-04-06T11:14:04.496Z</time></trkpt><trkpt lat="48.5962157" lon="8.9336922"><ele>518.6</ele><time>2026-04-06T11:14:05.504Z</time></trkpt><trkpt lat="48.5961878" lon="8.9338416"><ele>519.1999999999999</ele><time>2026-04-06T11:14:06.514Z</time></trkpt><trkpt lat="48.596153" lon="8.933993"><ele>519.8</ele><time>2026-04-06T11:14:07.485Z</time></trkpt><trkpt lat="48.5961175" lon="8.9341494"><ele>520.4</ele><time>2026-04-06T11:14:08.505Z</time></trkpt><trkpt lat="48.5960912" lon="8.9343051"><ele>521.0</ele><time>2026-04-06T11:14:09.526Z</time></trkpt><trkpt lat="48.5960591" lon="8.9344496"><ele>517.4</ele><time>2026-04-06T11:14:10.507Z</time></trkpt><trkpt lat="48.596035" lon="8.9345959"><ele>513.8</ele><time>2026-04-06T11:14:11.503Z</time></trkpt><trkpt lat="48.5960146" lon="8.9347463"><ele>510.19999999999993</ele><time>2026-04-06T11:14:12.512Z</time></trkpt><trkpt lat="48.5959931" lon="8.9348854"><ele>506.59999999999997</ele><time>2026-04-06T11:14:13.503Z</time></trkpt><trkpt lat="48.5959693" lon="8.9350152"><ele>503.0</ele><time>2026-04-06T11:14:14.498Z</time></trkpt><trkpt lat="48.5959471" lon="8.9351499"><ele>503.0</ele><time>2026-04-06T11:14:15.513Z</time></trkpt><trkpt lat="48.5959197" lon="8.9352818"><ele>502.99999999999994</ele><time>2026-04-06T11:14:16.505Z</time></trkpt><trkpt lat="48.5958888" lon="8.9354159"><ele>502.99999999999994</ele><time>2026-04-06T11:14:17.506Z</time></trkpt><trkpt lat="48.595856" lon="8.9355491"><ele>503.0</ele><time>2026-04-06T11:14:18.514Z</time></trkpt><trkpt lat="48.5958228" lon="8.9356839"><ele>503.0</ele><time>2026-04-06T11:14:19.504Z</time></trkpt><trkpt lat="48.5957868" lon="8.9358145"><ele>504.3333333333333</ele><time>2026-04-06T11:14:20.485Z</time></trkpt><trkpt lat="48.5957542" lon="8.935932"><ele>505.66666666666663</ele><time>2026-04-06T11:14:21.479Z</time></trkpt><trkpt lat="48.5957153" lon="8.9360546"><ele>507.0</ele><time>2026-04-06T11:14:22.511Z</time></trkpt><trkpt lat="48.5956818" lon="8.9361758"><ele>508.33333333333337</ele><time>2026-04-06T11:14:23.517Z</time></trkpt><trkpt lat="48.5956478" lon="8.9362909"><ele>509.6666666666667</ele><time>2026-04-06T11:14:24.505Z</time></trkpt><trkpt lat="48.5956174" lon="8.9364149"><ele>511.0</ele><time>2026-04-06T11:14:25.508Z</time></trkpt><trkpt lat="48.5955861" lon="8.9365331"><ele>511.00000000000006</ele><time>2026-04-06T11:14:26.506Z</time></trkpt><trkpt lat="48.5955528" lon="8.9366517"><ele>511.0</ele><time>2026-04-06T11:14:27.455Z</time></trkpt><trkpt lat="48.5955133" lon="8.9367709"><ele>511.0</ele><time>2026-04-06T11:14:28.508Z</time></trkpt><trkpt lat="48.5954682" lon="8.9368822"><ele>511.0</ele><time>2026-04-06T11:14:29.512Z</time></trkpt><trkpt lat="48.5954232" lon="8.936983"><ele>511.00000000000006</ele><time>2026-04-06T11:14:30.511Z</time></trkpt><trkpt lat="48.5953851" lon="8.9370834"><ele>511.0</ele><time>2026-04-06T11:14:31.493Z</time></trkpt><trkpt lat="48.5953452" lon="8.9371905"><ele>509.83333333333337</ele><time>2026-04-06T11:14:32.507Z</time></trkpt><trkpt lat="48.5953066" lon="8.937308"><ele>508.6666666666667</ele><time>2026-04-06T11:14:33.514Z</time></trkpt><trkpt lat="48.595273" lon="8.9374247"><ele>507.5</ele><time>2026-04-06T11:14:34.507Z</time></trkpt><trkpt lat="48.5952415" lon="8.9375393"><ele>506.33333333333337</ele><time>2026-04-06T11:14:35.514Z</time></trkpt><trkpt lat="48.5952142" lon="8.9376574"><ele>505.1666666666667</ele><time>2026-04-06T11:14:36.506Z</time></trkpt><trkpt lat="48.5951756" lon="8.937774"><ele>504.0</ele><time>2026-04-06T11:14:37.491Z</time></trkpt><trkpt lat="48.5951368" lon="8.9378942"><ele>504.0</ele><time>2026-04-06T11:14:38.457Z</time></trkpt><trkpt lat="48.5950981" lon="8.9380136"><ele>504.0</ele><time>2026-04-06T11:14:39.515Z</time></trkpt><trkpt lat="48.5950616" lon="8.9381283"><ele>504.0</ele><time>2026-04-06T11:14:40.531Z</time></trkpt><trkpt lat="48.5950237" lon="8.9382393"><ele>504.0</ele><time>2026-04-06T11:14:41.516Z</time></trkpt><trkpt lat="48.5949831" lon="8.9383538"><ele>504.0</ele><time>2026-04-06T11:14:42.512Z</time></trkpt><trkpt lat="48.594941" lon="8.9384631"><ele>504.0</ele><time>2026-04-06T11:14:43.519Z</time></trkpt><trkpt lat="48.5948935" lon="8.9385666"><ele>504.3333333333333</ele><time>2026-04-06T11:14:44.483Z</time></trkpt><trkpt lat="48.5948405" lon="8.938669"><ele>504.66666666666663</ele><time>2026-04-06T11:14:45.51Z</time></trkpt><trkpt lat="48.5947897" lon="8.9387709"><ele>505.0</ele><time>2026-04-06T11:14:46.508Z</time></trkpt><trkpt lat="48.5947411" lon="8.9388712"><ele>505.3333333333333</ele><time>2026-04-06T11:14:47.498Z</time></trkpt><trkpt lat="48.5946962" lon="8.9389681"><ele>505.66666666666663</ele><time>2026-04-06T11:14:48.524Z</time></trkpt><trkpt lat="48.5946471" lon="8.9390755"><ele>506.0</ele><time>2026-04-06T11:14:49.513Z</time></trkpt><trkpt lat="48.5945994" lon="8.9391858"><ele>506.99999999999994</ele><time>2026-04-06T11:14:50.509Z</time></trkpt><trkpt lat="48.5945548" lon="8.939302"><ele>508.0</ele><time>2026-04-06T11:14:51.513Z</time></trkpt><trkpt lat="48.5945135" lon="8.9394208"><ele>509.0</ele><time>2026-04-06T11:14:52.506Z</time></trkpt><trkpt lat="48.5944707" lon="8.9395417"><ele>510.0</ele><time>2026-04-06T11:14:53.514Z</time></trkpt><trkpt lat="48.5944293" lon="8.9396603"><ele>510.99999999999994</ele><time>2026-04-06T11:14:54.518Z</time></trkpt><trkpt lat="48.5943898" lon="8.9397786"><ele>512.0</ele><time>2026-04-06T11:14:55.515Z</time></trkpt><trkpt lat="48.5943507" lon="8.9399012"><ele>509.20000000000005</ele><time>2026-04-06T11:14:56.508Z</time></trkpt><trkpt lat="48.5943079" lon="8.9400206"><ele>506.40000000000003</ele><time>2026-04-06T11:14:57.494Z</time></trkpt><trkpt lat="48.5942665" lon="8.9401435"><ele>503.59999999999997</ele><time>2026-04-06T11:14:58.511Z</time></trkpt><trkpt lat="48.5942295" lon="8.9402661"><ele>500.79999999999995</ele><time>2026-04-06T11:14:59.485Z</time></trkpt><trkpt lat="48.5941952" lon="8.940404"><ele>498.0</ele><time>2026-04-06T11:15:00.506Z</time></trkpt><trkpt lat="48.5941565" lon="8.9405395"><ele>498.0</ele><time>2026-04-06T11:15:01.516Z</time></trkpt><trkpt lat="48.594116" lon="8.9406677"><ele>497.99999999999994</ele><time>2026-04-06T11:15:02.468Z</time></trkpt><trkpt lat="48.5940733" lon="8.9407977"><ele>497.99999999999994</ele><time>2026-04-06T11:15:03.521Z</time></trkpt><trkpt lat="48.5940302" lon="8.9409265"><ele>498.0</ele><time>2026-04-06T11:15:04.509Z</time></trkpt><trkpt lat="48.5939898" lon="8.9410484"><ele>498.0</ele><time>2026-04-06T11:15:05.503Z</time></trkpt><trkpt lat="48.5939456" lon="8.9411685"><ele>498.2</ele><time>2026-04-06T11:15:06.504Z</time></trkpt><trkpt lat="48.5939046" lon="8.9412888"><ele>498.4</ele><time>2026-04-06T11:15:07.503Z</time></trkpt><trkpt lat="48.5938539" lon="8.9414199"><ele>498.59999999999997</ele><time>2026-04-06T11:15:08.502Z</time></trkpt><trkpt lat="48.5937967" lon="8.941539"><ele>498.79999999999995</ele><time>2026-04-06T11:15:09.518Z</time></trkpt><trkpt lat="48.5937329" lon="8.9416488"><ele>499.0</ele><time>2026-04-06T11:15:10.512Z</time></trkpt><trkpt lat="48.593666" lon="8.9417487"><ele>499.0</ele><time>2026-04-06T11:15:11.496Z</time></trkpt><trkpt lat="48.5935951" lon="8.9418414"><ele>499.0</ele><time>2026-04-06T11:15:12.494Z</time></trkpt><trkpt lat="48.5935232" lon="8.9419283"><ele>499.0</ele><time>2026-04-06T11:15:13.512Z</time></trkpt><trkpt lat="48.5934547" lon="8.9420156"><ele>499.0</ele><time>2026-04-06T11:15:14.528Z</time></trkpt><trkpt lat="48.5933794" lon="8.9421001"><ele>499.0</ele><time>2026-04-06T11:15:15.508Z</time></trkpt><trkpt lat="48.5933006" lon="8.9421751"><ele>499.0</ele><time>2026-04-06T11:15:16.511Z</time></trkpt><trkpt lat="48.5932194" lon="8.9422475"><ele>499.0</ele><time>2026-04-06T11:15:17.488Z</time></trkpt><trkpt lat="48.5931368" lon="8.9423078"><ele>499.0</ele><time>2026-04-06T11:15:18.497Z</time></trkpt><trkpt lat="48.5930539" lon="8.942373"><ele>499.0</ele><time>2026-04-06T11:15:19.516Z</time></trkpt><trkpt lat="48.5929727" lon="8.9424354"><ele>499.0</ele><time>2026-04-06T11:15:20.497Z</time></trkpt><trkpt lat="48.5929018" lon="8.9425124"><ele>497.33333333333337</ele><time>2026-04-06T11:15:21.516Z</time></trkpt><trkpt lat="48.5928516" lon="8.9426113"><ele>495.6666666666667</ele><time>2026-04-06T11:15:22.528Z</time></trkpt><trkpt lat="48.5928167" lon="8.9427232"><ele>494.0</ele><time>2026-04-06T11:15:23.479Z</time></trkpt><trkpt lat="48.5927946" lon="8.9428494"><ele>492.33333333333337</ele><time>2026-04-06T11:15:24.512Z</time></trkpt><trkpt lat="48.5927704" lon="8.9429658"><ele>490.6666666666667</ele><time>2026-04-06T11:15:25.508Z</time></trkpt><trkpt lat="48.5927484" lon="8.9430796"><ele>489.0</ele><time>2026-04-06T11:15:26.515Z</time></trkpt><trkpt lat="48.592718" lon="8.9431952"><ele>489.0</ele><time>2026-04-06T11:15:27.52Z</time></trkpt><trkpt lat="48.5926921" lon="8.9432973"><ele>489.00000000000006</ele><time>2026-04-06T11:15:28.51Z</time></trkpt><trkpt lat="48.5926583" lon="8.9434006"><ele>489.0</ele><time>2026-04-06T11:15:29.47Z</time></trkpt><trkpt lat="48.5926269" lon="8.9434924"><ele>489.0</ele><time>2026-04-06T11:15:30.505Z</time></trkpt><trkpt lat="48.5925876" lon="8.9435766"><ele>489.00000000000006</ele><time>2026-04-06T11:15:31.507Z</time></trkpt><trkpt lat="48.5925445" lon="8.9436598"><ele>489.0</ele><time>2026-04-06T11:15:32.519Z</time></trkpt><trkpt lat="48.5925115" lon="8.9437481"><ele>489.0</ele><time>2026-04-06T11:15:33.485Z</time></trkpt><trkpt lat="48.5924872" lon="8.9438493"><ele>489.8571428571429</ele><time>2026-04-06T11:15:34.51Z</time></trkpt><trkpt lat="48.5924608" lon="8.9439518"><ele>490.7142857142858</ele><time>2026-04-06T11:15:35.526Z</time></trkpt><trkpt lat="48.5924442" lon="8.9440486"><ele>491.57142857142856</ele><time>2026-04-06T11:15:36.516Z</time></trkpt><trkpt lat="48.5924306" lon="8.9441524"><ele>492.42857142857144</ele><time>2026-04-06T11:15:37.512Z</time></trkpt><trkpt lat="48.5924192" lon="8.9442511"><ele>493.2857142857143</ele><time>2026-04-06T11:15:38.496Z</time></trkpt><trkpt lat="48.5924137" lon="8.944351"><ele>494.1428571428571</ele><time>2026-04-06T11:15:39.502Z</time></trkpt><trkpt lat="48.5924037" lon="8.9444493"><ele>494.99999999999994</ele><time>2026-04-06T11:15:40.51Z</time></trkpt><trkpt lat="48.5924001" lon="8.944549"><ele>496.4</ele><time>2026-04-06T11:15:41.512Z</time></trkpt><trkpt lat="48.5923848" lon="8.944647"><ele>497.8</ele><time>2026-04-06T11:15:42.527Z</time></trkpt><trkpt lat="48.5923735" lon="8.9448307"><ele>499.20000000000005</ele><time>2026-04-06T11:15:44.511Z</time></trkpt><trkpt lat="48.592363" lon="8.9450004"><ele>500.6</ele><time>2026-04-06T11:15:46.509Z</time></trkpt><trkpt lat="48.5923519" lon="8.9451716"><ele>502.0</ele><time>2026-04-06T11:15:48.507Z</time></trkpt><trkpt lat="48.5923306" lon="8.9453302"><ele>503.75</ele><time>2026-04-06T11:15:50.499Z</time></trkpt><trkpt lat="48.5923277" lon="8.9454974"><ele>505.5</ele><time>2026-04-06T11:15:52.501Z</time></trkpt><trkpt lat="48.5923024" lon="8.9456599"><ele>507.25</ele><time>2026-04-06T11:15:54.51Z</time></trkpt><trkpt lat="48.5922563" lon="8.9458139"><ele>509.0</ele><time>2026-04-06T11:15:56.503Z</time></trkpt><trkpt lat="48.5921942" lon="8.9459887"><ele>510.42857142857133</ele><time>2026-04-06T11:15:58.478Z</time></trkpt><trkpt lat="48.5921597" lon="8.946078"><ele>511.85714285714283</ele><time>2026-04-06T11:15:59.487Z</time></trkpt><trkpt lat="48.5921255" lon="8.94617"><ele>513.2857142857142</ele><time>2026-04-06T11:16:00.477Z</time></trkpt><trkpt lat="48.592093" lon="8.9462723"><ele>514.7142857142857</ele><time>2026-04-06T11:16:01.518Z</time></trkpt><trkpt lat="48.5920559" lon="8.9463741"><ele>516.1428571428571</ele><time>2026-04-06T11:16:02.495Z</time></trkpt><trkpt lat="48.5920249" lon="8.9464811"><ele>517.5714285714286</ele><time>2026-04-06T11:16:03.515Z</time></trkpt><trkpt lat="48.5919986" lon="8.9465926"><ele>519.0</ele><time>2026-04-06T11:16:04.511Z</time></trkpt><trkpt lat="48.5919773" lon="8.9467068"><ele>515.8333333333334</ele><time>2026-04-06T11:16:05.52Z</time></trkpt><trkpt lat="48.5919483" lon="8.9468118"><ele>512.6666666666666</ele><time>2026-04-06T11:16:06.502Z</time></trkpt><trkpt lat="48.5919117" lon="8.9469227"><ele>509.5</ele><time>2026-04-06T11:16:07.493Z</time></trkpt><trkpt lat="48.5918712" lon="8.9470274"><ele>506.3333333333333</ele><time>2026-04-06T11:16:08.499Z</time></trkpt><trkpt lat="48.5918236" lon="8.9471377"><ele>503.16666666666663</ele><time>2026-04-06T11:16:09.476Z</time></trkpt><trkpt lat="48.5917635" lon="8.947215"><ele>500.0</ele><time>2026-04-06T11:16:10.508Z</time></trkpt><trkpt lat="48.5916927" lon="8.9472852"><ele>499.99999999999994</ele><time>2026-04-06T11:16:11.526Z</time></trkpt><trkpt lat="48.591617" lon="8.947345"><ele>500.0</ele><time>2026-04-06T11:16:12.497Z</time></trkpt><trkpt lat="48.5915439" lon="8.9474079"><ele>500.0</ele><time>2026-04-06T11:16:13.501Z</time></trkpt><trkpt lat="48.5914747" lon="8.9474726"><ele>500.0</ele><time>2026-04-06T11:16:14.518Z</time></trkpt><trkpt lat="48.5913972" lon="8.947543"><ele>499.99999999999994</ele><time>2026-04-06T11:16:15.493Z</time></trkpt><trkpt lat="48.5913259" lon="8.9476213"><ele>500.0</ele><time>2026-04-06T11:16:16.496Z</time></trkpt><trkpt lat="48.5912431" lon="8.947699"><ele>498.2</ele><time>2026-04-06T11:16:17.508Z</time></trkpt><trkpt lat="48.59116" lon="8.9477836"><ele>496.4</ele><time>2026-04-06T11:16:18.473Z</time></trkpt><trkpt lat="48.5910849" lon="8.9478642"><ele>494.6</ele><time>2026-04-06T11:16:19.495Z</time></trkpt><trkpt lat="48.5909942" lon="8.9479706"><ele>492.8</ele><time>2026-04-06T11:16:20.491Z</time></trkpt><trkpt lat="48.5909006" lon="8.9480632"><ele>491.0</ele><time>2026-04-06T11:16:21.508Z</time></trkpt><trkpt lat="48.5908136" lon="8.948154"><ele>491.0</ele><time>2026-04-06T11:16:22.498Z</time></trkpt><trkpt lat="48.5907315" lon="8.948258"><ele>491.0</ele><time>2026-04-06T11:16:23.507Z</time></trkpt><trkpt lat="48.5906475" lon="8.948363"><ele>491.0</ele><time>2026-04-06T11:16:24.51Z</time></trkpt><trkpt lat="48.5905641" lon="8.9484631"><ele>491.0</ele><time>2026-04-06T11:16:25.514Z</time></trkpt><trkpt lat="48.5904784" lon="8.9485663"><ele>491.0</ele><time>2026-04-06T11:16:26.516Z</time></trkpt><trkpt lat="48.5903937" lon="8.9486642"><ele>489.4</ele><time>2026-04-06T11:16:27.511Z</time></trkpt><trkpt lat="48.5903048" lon="8.9487657"><ele>487.8</ele><time>2026-04-06T11:16:28.526Z</time></trkpt><trkpt lat="48.5902212" lon="8.9488713"><ele>486.19999999999993</ele><time>2026-04-06T11:16:29.528Z</time></trkpt><trkpt lat="48.5901329" lon="8.948977"><ele>484.59999999999997</ele><time>2026-04-06T11:16:30.52Z</time></trkpt><trkpt lat="48.5900524" lon="8.9490749"><ele>483.0</ele><time>2026-04-06T11:16:31.509Z</time></trkpt><trkpt lat="48.5899868" lon="8.9491765"><ele>483.5</ele><time>2026-04-06T11:16:32.507Z</time></trkpt><trkpt lat="48.5899372" lon="8.949296"><ele>484.0</ele><time>2026-04-06T11:16:33.511Z</time></trkpt><trkpt lat="48.5898934" lon="8.9494004"><ele>484.5</ele><time>2026-04-06T11:16:34.507Z</time></trkpt><trkpt lat="48.5898517" lon="8.9494911"><ele>485.0</ele><time>2026-04-06T11:16:35.506Z</time></trkpt><trkpt lat="48.589816" lon="8.949645"><ele>485.5</ele><time>2026-04-06T11:16:37.51Z</time></trkpt><trkpt lat="48.5897944" lon="8.9497803"><ele>486.0</ele><time>2026-04-06T11:16:39.493Z</time></trkpt><trkpt lat="48.589761" lon="8.9499417"><ele>486.0</ele><time>2026-04-06T11:16:41.499Z</time></trkpt><trkpt lat="48.5897374" lon="8.9500319"><ele>486.0</ele><time>2026-04-06T11:16:42.524Z</time></trkpt><trkpt lat="48.5897098" lon="8.9501266"><ele>486.0</ele><time>2026-04-06T11:16:43.515Z</time></trkpt><trkpt lat="48.5896802" lon="8.9502214"><ele>486.0</ele><time>2026-04-06T11:16:44.501Z</time></trkpt><trkpt lat="48.5896481" lon="8.9503204"><ele>486.0</ele><time>2026-04-06T11:16:45.512Z</time></trkpt><trkpt lat="48.5896219" lon="8.9504231"><ele>486.0</ele><time>2026-04-06T11:16:46.513Z</time></trkpt><trkpt lat="48.5895976" lon="8.9505274"><ele>486.0</ele><time>2026-04-06T11:16:47.512Z</time></trkpt><trkpt lat="48.5895709" lon="8.950628"><ele>486.1666666666667</ele><time>2026-04-06T11:16:48.51Z</time></trkpt><trkpt lat="48.5895519" lon="8.9507408"><ele>486.33333333333337</ele><time>2026-04-06T11:16:49.524Z</time></trkpt><trkpt lat="48.5895333" lon="8.9508451"><ele>486.5</ele><time>2026-04-06T11:16:50.511Z</time></trkpt><trkpt lat="48.5895143" lon="8.9509504"><ele>486.6666666666667</ele><time>2026-04-06T11:16:51.505Z</time></trkpt><trkpt lat="48.5894934" lon="8.951059"><ele>486.83333333333337</ele><time>2026-04-06T11:16:52.507Z</time></trkpt><trkpt lat="48.5894676" lon="8.9511703"><ele>487.0</ele><time>2026-04-06T11:16:53.505Z</time></trkpt><trkpt lat="48.5894441" lon="8.9512864"><ele>485.1666666666667</ele><time>2026-04-06T11:16:54.525Z</time></trkpt><trkpt lat="48.5894187" lon="8.9514045"><ele>483.33333333333337</ele><time>2026-04-06T11:16:55.53Z</time></trkpt><trkpt lat="48.5893907" lon="8.9515249"><ele>481.5</ele><time>2026-04-06T11:16:56.52Z</time></trkpt><trkpt lat="48.5893656" lon="8.9516412"><ele>479.66666666666663</ele><time>2026-04-06T11:16:57.525Z</time></trkpt><trkpt lat="48.5893403" lon="8.9517557"><ele>477.8333333333333</ele><time>2026-04-06T11:16:58.51Z</time></trkpt><trkpt lat="48.5893116" lon="8.9518681"><ele>476.0</ele><time>2026-04-06T11:16:59.521Z</time></trkpt><trkpt lat="48.5892912" lon="8.9519798"><ele>475.99999999999994</ele><time>2026-04-06T11:17:00.518Z</time></trkpt><trkpt lat="48.5892656" lon="8.9521058"><ele>476.0</ele><time>2026-04-06T11:17:01.505Z</time></trkpt><trkpt lat="48.5892385" lon="8.9522287"><ele>476.0</ele><time>2026-04-06T11:17:02.512Z</time></trkpt><trkpt lat="48.5892126" lon="8.9523478"><ele>476.0</ele><time>2026-04-06T11:17:03.512Z</time></trkpt><trkpt lat="48.589188" lon="8.9524655"><ele>475.99999999999994</ele><time>2026-04-06T11:17:04.513Z</time></trkpt><trkpt lat="48.5891679" lon="8.952585"><ele>476.0</ele><time>2026-04-06T11:17:05.508Z</time></trkpt><trkpt lat="48.589149" lon="8.9527059"><ele>476.3333333333333</ele><time>2026-04-06T11:17:06.519Z</time></trkpt><trkpt lat="48.5891341" lon="8.9528288"><ele>476.66666666666663</ele><time>2026-04-06T11:17:07.522Z</time></trkpt><trkpt lat="48.5891255" lon="8.9529519"><ele>477.0</ele><time>2026-04-06T11:17:08.509Z</time></trkpt><trkpt lat="48.5891177" lon="8.9530786"><ele>477.33333333333337</ele><time>2026-04-06T11:17:09.526Z</time></trkpt><trkpt lat="48.5891072" lon="8.9532092"><ele>477.6666666666667</ele><time>2026-04-06T11:17:10.508Z</time></trkpt><trkpt lat="48.5890952" lon="8.9533402"><ele>478.0</ele><time>2026-04-06T11:17:11.528Z</time></trkpt><trkpt lat="48.5890944" lon="8.9534706"><ele>478.50000000000006</ele><time>2026-04-06T11:17:12.485Z</time></trkpt><trkpt lat="48.5890892" lon="8.9536091"><ele>479.0</ele><time>2026-04-06T11:17:13.522Z</time></trkpt><trkpt lat="48.5890858" lon="8.9537501"><ele>479.5</ele><time>2026-04-06T11:17:14.509Z</time></trkpt><trkpt lat="48.5890884" lon="8.9538829"><ele>480.0</ele><time>2026-04-06T11:17:15.504Z</time></trkpt><trkpt lat="48.589081" lon="8.9540089"><ele>480.50000000000006</ele><time>2026-04-06T11:17:16.503Z</time></trkpt><trkpt lat="48.589073" lon="8.9541453"><ele>481.0</ele><time>2026-04-06T11:17:17.516Z</time></trkpt><trkpt lat="48.5890598" lon="8.9542698"><ele>481.33333333333337</ele><time>2026-04-06T11:17:18.508Z</time></trkpt><trkpt lat="48.5890501" lon="8.9543949"><ele>481.6666666666667</ele><time>2026-04-06T11:17:19.518Z</time></trkpt><trkpt lat="48.5890298" lon="8.9545138"><ele>482.0</ele><time>2026-04-06T11:17:20.502Z</time></trkpt><trkpt lat="48.5890037" lon="8.9546285"><ele>482.33333333333337</ele><time>2026-04-06T11:17:21.513Z</time></trkpt><trkpt lat="48.5889759" lon="8.9547451"><ele>482.6666666666667</ele><time>2026-04-06T11:17:22.505Z</time></trkpt><trkpt lat="48.5889482" lon="8.9548682"><ele>483.0</ele><time>2026-04-06T11:17:23.522Z</time></trkpt><trkpt lat="48.5889176" lon="8.9549871"><ele>483.1666666666667</ele><time>2026-04-06T11:17:24.498Z</time></trkpt><trkpt lat="48.5888867" lon="8.9551007"><ele>483.33333333333337</ele><time>2026-04-06T11:17:25.496Z</time></trkpt><trkpt lat="48.588861" lon="8.9552174"><ele>483.5</ele><time>2026-04-06T11:17:26.528Z</time></trkpt><trkpt lat="48.5888289" lon="8.9553436"><ele>483.6666666666667</ele><time>2026-04-06T11:17:27.52Z</time></trkpt><trkpt lat="48.5888031" lon="8.9554643"><ele>483.83333333333337</ele><time>2026-04-06T11:17:28.51Z</time></trkpt><trkpt lat="48.5887819" lon="8.9555876"><ele>484.0</ele><time>2026-04-06T11:17:29.507Z</time></trkpt><trkpt lat="48.588761" lon="8.9557095"><ele>484.00000000000006</ele><time>2026-04-06T11:17:30.518Z</time></trkpt><trkpt lat="48.5887403" lon="8.9558278"><ele>484.0</ele><time>2026-04-06T11:17:31.517Z</time></trkpt><trkpt lat="48.5887229" lon="8.9559448"><ele>484.0</ele><time>2026-04-06T11:17:32.507Z</time></trkpt><trkpt lat="48.5887162" lon="8.9560607"><ele>484.0</ele><time>2026-04-06T11:17:33.512Z</time></trkpt><trkpt lat="48.5887055" lon="8.956179"><ele>484.00000000000006</ele><time>2026-04-06T11:17:34.508Z</time></trkpt><trkpt lat="48.5887024" lon="8.9562961"><ele>484.0</ele><time>2026-04-06T11:17:35.509Z</time></trkpt><trkpt lat="48.5886965" lon="8.9564157"><ele>484.00000000000006</ele><time>2026-04-06T11:17:36.52Z</time></trkpt><trkpt lat="48.5886885" lon="8.9565308"><ele>484.0</ele><time>2026-04-06T11:17:37.517Z</time></trkpt><trkpt lat="48.5886881" lon="8.9566489"><ele>484.0</ele><time>2026-04-06T11:17:38.515Z</time></trkpt><trkpt lat="48.5886843" lon="8.9567643"><ele>484.0</ele><time>2026-04-06T11:17:39.512Z</time></trkpt><trkpt lat="48.588684" lon="8.9568831"><ele>484.00000000000006</ele><time>2026-04-06T11:17:40.505Z</time></trkpt><trkpt lat="48.5886862" lon="8.9570011"><ele>484.0</ele><time>2026-04-06T11:17:41.511Z</time></trkpt><trkpt lat="48.5886797" lon="8.95712"><ele>484.00000000000006</ele><time>2026-04-06T11:17:42.484Z</time></trkpt><trkpt lat="48.5886776" lon="8.9572415"><ele>484.0</ele><time>2026-04-06T11:17:43.521Z</time></trkpt><trkpt lat="48.5886716" lon="8.957351"><ele>484.0</ele><time>2026-04-06T11:17:44.519Z</time></trkpt><trkpt lat="48.5886708" lon="8.9574678"><ele>484.0</ele><time>2026-04-06T11:17:45.504Z</time></trkpt><trkpt lat="48.5886636" lon="8.9575805"><ele>484.00000000000006</ele><time>2026-04-06T11:17:46.509Z</time></trkpt><trkpt lat="48.5886566" lon="8.9576903"><ele>484.0</ele><time>2026-04-06T11:17:47.476Z</time></trkpt><trkpt lat="48.5886552" lon="8.9578004"><ele>482.2857142857143</ele><time>2026-04-06T11:17:48.52Z</time></trkpt><trkpt lat="48.5886542" lon="8.9578995"><ele>480.57142857142856</ele><time>2026-04-06T11:17:49.517Z</time></trkpt><trkpt lat="48.5886589" lon="8.9580007"><ele>478.85714285714283</ele><time>2026-04-06T11:17:50.512Z</time></trkpt><trkpt lat="48.5886584" lon="8.9581076"><ele>477.1428571428571</ele><time>2026-04-06T11:17:51.447Z</time></trkpt><trkpt lat="48.5886576" lon="8.9582127"><ele>475.42857142857144</ele><time>2026-04-06T11:17:52.479Z</time></trkpt><trkpt lat="48.588659" lon="8.9583204"><ele>473.71428571428567</ele><time>2026-04-06T11:17:53.467Z</time></trkpt><trkpt lat="48.5886563" lon="8.9584287"><ele>472.0</ele><time>2026-04-06T11:17:54.48Z</time></trkpt><trkpt lat="48.5886502" lon="8.9585405"><ele>471.6666666666667</ele><time>2026-04-06T11:17:55.511Z</time></trkpt><trkpt lat="48.5886432" lon="8.9586463"><ele>471.33333333333337</ele><time>2026-04-06T11:17:56.524Z</time></trkpt><trkpt lat="48.5886413" lon="8.9587519"><ele>471.0</ele><time>2026-04-06T11:17:57.496Z</time></trkpt><trkpt lat="48.5886337" lon="8.9588614"><ele>470.66666666666663</ele><time>2026-04-06T11:17:58.53Z</time></trkpt><trkpt lat="48.5886259" lon="8.9589851"><ele>470.3333333333333</ele><time>2026-04-06T11:17:59.521Z</time></trkpt><trkpt lat="48.5886112" lon="8.9591116"><ele>470.0</ele><time>2026-04-06T11:18:00.524Z</time></trkpt><trkpt lat="48.5885928" lon="8.9592473"><ele>469.8</ele><time>2026-04-06T11:18:01.483Z</time></trkpt><trkpt lat="48.5885837" lon="8.9593839"><ele>469.6</ele><time>2026-04-06T11:18:02.507Z</time></trkpt><trkpt lat="48.5885719" lon="8.9595343"><ele>469.4</ele><time>2026-04-06T11:18:03.537Z</time></trkpt><trkpt lat="48.5885612" lon="8.9596726"><ele>469.2</ele><time>2026-04-06T11:18:04.506Z</time></trkpt><trkpt lat="48.5885518" lon="8.9598088"><ele>469.0</ele><time>2026-04-06T11:18:05.54Z</time></trkpt><trkpt lat="48.588543" lon="8.9599518"><ele>469.2</ele><time>2026-04-06T11:18:06.503Z</time></trkpt><trkpt lat="48.5885276" lon="8.9600946"><ele>469.4</ele><time>2026-04-06T11:18:07.507Z</time></trkpt><trkpt lat="48.5885101" lon="8.9602358"><ele>469.6</ele><time>2026-04-06T11:18:08.538Z</time></trkpt><trkpt lat="48.5884902" lon="8.9603736"><ele>469.8</ele><time>2026-04-06T11:18:09.505Z</time></trkpt><trkpt lat="48.5884541" lon="8.9605106"><ele>470.0</ele><time>2026-04-06T11:18:10.526Z</time></trkpt><trkpt lat="48.5884063" lon="8.9606458"><ele>470.0</ele><time>2026-04-06T11:18:11.509Z</time></trkpt><trkpt lat="48.5883573" lon="8.9607744"><ele>470.0</ele><time>2026-04-06T11:18:12.505Z</time></trkpt><trkpt lat="48.5883116" lon="8.9608996"><ele>470.0</ele><time>2026-04-06T11:18:13.522Z</time></trkpt><trkpt lat="48.588269" lon="8.9610228"><ele>470.0</ele><time>2026-04-06T11:18:14.521Z</time></trkpt><trkpt lat="48.5882306" lon="8.9611365"><ele>470.0</ele><time>2026-04-06T11:18:15.519Z</time></trkpt><trkpt lat="48.58819" lon="8.96125"><ele>470.49999999999994</ele><time>2026-04-06T11:18:16.507Z</time></trkpt><trkpt lat="48.5881552" lon="8.9613769"><ele>471.0</ele><time>2026-04-06T11:18:17.536Z</time></trkpt><trkpt lat="48.5881156" lon="8.9614865"><ele>471.5</ele><time>2026-04-06T11:18:18.52Z</time></trkpt><trkpt lat="48.5880799" lon="8.9616047"><ele>472.0</ele><time>2026-04-06T11:18:19.528Z</time></trkpt><trkpt lat="48.5880413" lon="8.9617238"><ele>472.49999999999994</ele><time>2026-04-06T11:18:20.512Z</time></trkpt><trkpt lat="48.5880111" lon="8.9618383"><ele>473.0</ele><time>2026-04-06T11:18:21.511Z</time></trkpt><trkpt lat="48.5879818" lon="8.9619643"><ele>473.99999999999994</ele><time>2026-04-06T11:18:22.528Z</time></trkpt><trkpt lat="48.587959" lon="8.9620845"><ele>475.0</ele><time>2026-04-06T11:18:23.526Z</time></trkpt><trkpt lat="48.5879492" lon="8.9622055"><ele>476.0</ele><time>2026-04-06T11:18:24.529Z</time></trkpt><trkpt lat="48.5879476" lon="8.9623323"><ele>477.0</ele><time>2026-04-06T11:18:25.513Z</time></trkpt><trkpt lat="48.5879423" lon="8.962454"><ele>477.99999999999994</ele><time>2026-04-06T11:18:26.531Z</time></trkpt><trkpt lat="48.5879403" lon="8.9625821"><ele>479.0</ele><time>2026-04-06T11:18:27.517Z</time></trkpt><trkpt lat="48.5879386" lon="8.9627001"><ele>479.49999999999994</ele><time>2026-04-06T11:18:28.518Z</time></trkpt><trkpt lat="48.5879342" lon="8.9628252"><ele>480.0</ele><time>2026-04-06T11:18:29.529Z</time></trkpt><trkpt lat="48.587929" lon="8.962944"><ele>480.5</ele><time>2026-04-06T11:18:30.51Z</time></trkpt><trkpt lat="48.5879185" lon="8.9630622"><ele>481.0</ele><time>2026-04-06T11:18:31.497Z</time></trkpt><trkpt lat="48.5879097" lon="8.9631809"><ele>481.49999999999994</ele><time>2026-04-06T11:18:32.503Z</time></trkpt><trkpt lat="48.5879073" lon="8.9632946"><ele>482.0</ele><time>2026-04-06T11:18:33.525Z</time></trkpt><trkpt lat="48.5879028" lon="8.9634102"><ele>482.16666666666663</ele><time>2026-04-06T11:18:34.484Z</time></trkpt><trkpt lat="48.5878961" lon="8.9635241"><ele>482.3333333333333</ele><time>2026-04-06T11:18:35.456Z</time></trkpt><trkpt lat="48.5878894" lon="8.9636413"><ele>482.5</ele><time>2026-04-06T11:18:36.494Z</time></trkpt><trkpt lat="48.5878812" lon="8.9637586"><ele>482.66666666666663</ele><time>2026-04-06T11:18:37.475Z</time></trkpt><trkpt lat="48.5878761" lon="8.9638727"><ele>482.8333333333333</ele><time>2026-04-06T11:18:38.53Z</time></trkpt><trkpt lat="48.5878714" lon="8.963989"><ele>483.0</ele><time>2026-04-06T11:18:39.512Z</time></trkpt><trkpt lat="48.5878669" lon="8.9641087"><ele>482.6666666666667</ele><time>2026-04-06T11:18:40.514Z</time></trkpt><trkpt lat="48.5878589" lon="8.9642363"><ele>482.33333333333337</ele><time>2026-04-06T11:18:41.508Z</time></trkpt><trkpt lat="48.5878504" lon="8.9643558"><ele>482.0</ele><time>2026-04-06T11:18:42.504Z</time></trkpt><trkpt lat="48.5878373" lon="8.9644865"><ele>481.6666666666667</ele><time>2026-04-06T11:18:43.513Z</time></trkpt><trkpt lat="48.5878329" lon="8.9646152"><ele>481.33333333333337</ele><time>2026-04-06T11:18:44.52Z</time></trkpt><trkpt lat="48.5878291" lon="8.9647452"><ele>481.0</ele><time>2026-04-06T11:18:45.48Z</time></trkpt><trkpt lat="48.587835" lon="8.9648793"><ele>481.00000000000006</ele><time>2026-04-06T11:18:46.508Z</time></trkpt><trkpt lat="48.5878502" lon="8.9650126"><ele>481.0</ele><time>2026-04-06T11:18:47.496Z</time></trkpt><trkpt lat="48.5878772" lon="8.965151"><ele>481.0</ele><time>2026-04-06T11:18:48.516Z</time></trkpt><trkpt lat="48.5878949" lon="8.9652777"><ele>481.0</ele><time>2026-04-06T11:18:49.483Z</time></trkpt><trkpt lat="48.5879151" lon="8.9654058"><ele>481.00000000000006</ele><time>2026-04-06T11:18:50.508Z</time></trkpt><trkpt lat="48.5879329" lon="8.9655307"><ele>481.0</ele><time>2026-04-06T11:18:51.513Z</time></trkpt><trkpt lat="48.5879519" lon="8.9656532"><ele>480.1666666666667</ele><time>2026-04-06T11:18:52.51Z</time></trkpt><trkpt lat="48.5879705" lon="8.965786"><ele>479.33333333333337</ele><time>2026-04-06T11:18:53.521Z</time></trkpt><trkpt lat="48.5879898" lon="8.9659067"><ele>478.5</ele><time>2026-04-06T11:18:54.509Z</time></trkpt><trkpt lat="48.5880163" lon="8.9660327"><ele>477.66666666666663</ele><time>2026-04-06T11:18:55.525Z</time></trkpt><trkpt lat="48.5880381" lon="8.9661512"><ele>476.8333333333333</ele><time>2026-04-06T11:18:56.508Z</time></trkpt><trkpt lat="48.5880645" lon="8.966274"><ele>476.0</ele><time>2026-04-06T11:18:57.508Z</time></trkpt><trkpt lat="48.5880899" lon="8.9663938"><ele>475.16666666666663</ele><time>2026-04-06T11:18:58.511Z</time></trkpt><trkpt lat="48.5881157" lon="8.966512"><ele>474.3333333333333</ele><time>2026-04-06T11:18:59.532Z</time></trkpt><trkpt lat="48.5881387" lon="8.9666334"><ele>473.5</ele><time>2026-04-06T11:19:00.502Z</time></trkpt><trkpt lat="48.5881619" lon="8.9667604"><ele>472.66666666666663</ele><time>2026-04-06T11:19:01.518Z</time></trkpt><trkpt lat="48.5881902" lon="8.966883"><ele>471.8333333333333</ele><time>2026-04-06T11:19:02.504Z</time></trkpt><trkpt lat="48.588206" lon="8.9670132"><ele>471.0</ele><time>2026-04-06T11:19:03.521Z</time></trkpt><trkpt lat="48.5882192" lon="8.9671384"><ele>470.4</ele><time>2026-04-06T11:19:04.515Z</time></trkpt><trkpt lat="48.5882267" lon="8.9672883"><ele>469.8</ele><time>2026-04-06T11:19:05.521Z</time></trkpt><trkpt lat="48.5882278" lon="8.9674399"><ele>469.19999999999993</ele><time>2026-04-06T11:19:06.509Z</time></trkpt><trkpt lat="48.5882251" lon="8.9675808"><ele>468.59999999999997</ele><time>2026-04-06T11:19:07.501Z</time></trkpt><trkpt lat="48.5882323" lon="8.9677198"><ele>468.0</ele><time>2026-04-06T11:19:08.511Z</time></trkpt><trkpt lat="48.5882351" lon="8.967859"><ele>466.79999999999995</ele><time>2026-04-06T11:19:09.517Z</time></trkpt><trkpt lat="48.5882502" lon="8.9680027"><ele>465.59999999999997</ele><time>2026-04-06T11:19:10.513Z</time></trkpt><trkpt lat="48.5882625" lon="8.9681402"><ele>464.40000000000003</ele><time>2026-04-06T11:19:11.536Z</time></trkpt><trkpt lat="48.5882757" lon="8.9682878"><ele>463.20000000000005</ele><time>2026-04-06T11:19:12.466Z</time></trkpt><trkpt lat="48.588287" lon="8.9684154"><ele>462.0</ele><time>2026-04-06T11:19:13.499Z</time></trkpt><trkpt lat="48.5883057" lon="8.9685517"><ele>462.0</ele><time>2026-04-06T11:19:14.504Z</time></trkpt><trkpt lat="48.5883245" lon="8.9686795"><ele>462.0</ele><time>2026-04-06T11:19:15.513Z</time></trkpt><trkpt lat="48.5883541" lon="8.9688091"><ele>462.0</ele><time>2026-04-06T11:19:16.478Z</time></trkpt><trkpt lat="48.588388" lon="8.9689276"><ele>462.0</ele><time>2026-04-06T11:19:17.515Z</time></trkpt><trkpt lat="48.5884204" lon="8.9690633"><ele>462.0</ele><time>2026-04-06T11:19:18.506Z</time></trkpt><trkpt lat="48.5884452" lon="8.9691919"><ele>462.0</ele><time>2026-04-06T11:19:19.508Z</time></trkpt><trkpt lat="48.5884484" lon="8.9693289"><ele>462.0</ele><time>2026-04-06T11:19:20.514Z</time></trkpt><trkpt lat="48.5884456" lon="8.969454"><ele>462.0</ele><time>2026-04-06T11:19:21.498Z</time></trkpt><trkpt lat="48.5884403" lon="8.9695721"><ele>462.0</ele><time>2026-04-06T11:19:22.503Z</time></trkpt><trkpt lat="48.5884392" lon="8.9697006"><ele>462.0</ele><time>2026-04-06T11:19:23.502Z</time></trkpt><trkpt lat="48.5884412" lon="8.9698286"><ele>462.0</ele><time>2026-04-06T11:19:24.479Z</time></trkpt><trkpt lat="48.5884439" lon="8.9699621"><ele>462.0</ele><time>2026-04-06T11:19:25.503Z</time></trkpt><trkpt lat="48.588449" lon="8.9700988"><ele>462.0</ele><time>2026-04-06T11:19:26.508Z</time></trkpt><trkpt lat="48.588465" lon="8.9702356"><ele>462.0</ele><time>2026-04-06T11:19:27.501Z</time></trkpt><trkpt lat="48.5884867" lon="8.9703696"><ele>462.0</ele><time>2026-04-06T11:19:28.5Z</time></trkpt><trkpt lat="48.5885161" lon="8.9704886"><ele>462.0</ele><time>2026-04-06T11:19:29.499Z</time></trkpt><trkpt lat="48.5885551" lon="8.9706082"><ele>462.0</ele><time>2026-04-06T11:19:30.502Z</time></trkpt><trkpt lat="48.5886004" lon="8.9707278"><ele>462.0</ele><time>2026-04-06T11:19:31.498Z</time></trkpt><trkpt lat="48.5886442" lon="8.970841"><ele>462.6666666666667</ele><time>2026-04-06T11:19:32.476Z</time></trkpt><trkpt lat="48.5886868" lon="8.9709562"><ele>463.33333333333337</ele><time>2026-04-06T11:19:33.508Z</time></trkpt><trkpt lat="48.5887304" lon="8.971064"><ele>464.0</ele><time>2026-04-06T11:19:34.503Z</time></trkpt><trkpt lat="48.5887711" lon="8.9711763"><ele>464.6666666666667</ele><time>2026-04-06T11:19:35.5Z</time></trkpt><trkpt lat="48.5888171" lon="8.9712957"><ele>465.33333333333337</ele><time>2026-04-06T11:19:36.5Z</time></trkpt><trkpt lat="48.5888565" lon="8.9714056"><ele>466.0</ele><time>2026-04-06T11:19:37.501Z</time></trkpt><trkpt lat="48.5889035" lon="8.9715219"><ele>466.00000000000006</ele><time>2026-04-06T11:19:38.492Z</time></trkpt><trkpt lat="48.5889491" lon="8.9716369"><ele>466.0</ele><time>2026-04-06T11:19:39.502Z</time></trkpt><trkpt lat="48.588998" lon="8.9717436"><ele>466.0</ele><time>2026-04-06T11:19:40.499Z</time></trkpt><trkpt lat="48.5890457" lon="8.9718514"><ele>466.0</ele><time>2026-04-06T11:19:41.504Z</time></trkpt><trkpt lat="48.5890838" lon="8.9719642"><ele>466.00000000000006</ele><time>2026-04-06T11:19:42.504Z</time></trkpt><trkpt lat="48.5891237" lon="8.9720886"><ele>466.0</ele><time>2026-04-06T11:19:43.49Z</time></trkpt><trkpt lat="48.5891652" lon="8.9722066"><ele>465.6666666666667</ele><time>2026-04-06T11:19:44.503Z</time></trkpt><trkpt lat="48.5892012" lon="8.9723189"><ele>465.33333333333337</ele><time>2026-04-06T11:19:45.49Z</time></trkpt><trkpt lat="48.5892419" lon="8.9724297"><ele>465.0</ele><time>2026-04-06T11:19:46.475Z</time></trkpt><trkpt lat="48.5892829" lon="8.9725499"><ele>464.66666666666663</ele><time>2026-04-06T11:19:47.504Z</time></trkpt><trkpt lat="48.5893217" lon="8.9726568"><ele>464.3333333333333</ele><time>2026-04-06T11:19:48.509Z</time></trkpt><trkpt lat="48.5893578" lon="8.9727696"><ele>464.0</ele><time>2026-04-06T11:19:49.518Z</time></trkpt><trkpt lat="48.5893992" lon="8.9728807"><ele>463.99999999999994</ele><time>2026-04-06T11:19:50.518Z</time></trkpt><trkpt lat="48.5894322" lon="8.9730078"><ele>464.0</ele><time>2026-04-06T11:19:51.492Z</time></trkpt><trkpt lat="48.5894739" lon="8.9731231"><ele>464.0</ele><time>2026-04-06T11:19:52.495Z</time></trkpt><trkpt lat="48.5895199" lon="8.9732261"><ele>464.0</ele><time>2026-04-06T11:19:53.493Z</time></trkpt><trkpt lat="48.5895605" lon="8.9733239"><ele>463.99999999999994</ele><time>2026-04-06T11:19:54.508Z</time></trkpt><trkpt lat="48.5896045" lon="8.9734292"><ele>464.0</ele><time>2026-04-06T11:19:55.514Z</time></trkpt><trkpt lat="48.5896422" lon="8.9735324"><ele>463.3333333333333</ele><time>2026-04-06T11:19:56.511Z</time></trkpt><trkpt lat="48.5896784" lon="8.9736409"><ele>462.66666666666663</ele><time>2026-04-06T11:19:57.495Z</time></trkpt><trkpt lat="48.5897179" lon="8.9737469"><ele>462.0</ele><time>2026-04-06T11:19:58.528Z</time></trkpt><trkpt lat="48.5897565" lon="8.973853"><ele>461.33333333333337</ele><time>2026-04-06T11:19:59.509Z</time></trkpt><trkpt lat="48.5897951" lon="8.9739698"><ele>460.6666666666667</ele><time>2026-04-06T11:20:00.504Z</time></trkpt><trkpt lat="48.589837" lon="8.9740753"><ele>460.0</ele><time>2026-04-06T11:20:01.52Z</time></trkpt><trkpt lat="48.5898788" lon="8.9741913"><ele>459.50000000000006</ele><time>2026-04-06T11:20:02.497Z</time></trkpt><trkpt lat="48.5899133" lon="8.9743037"><ele>459.0</ele><time>2026-04-06T11:20:03.515Z</time></trkpt><trkpt lat="48.5899508" lon="8.9744202"><ele>458.5</ele><time>2026-04-06T11:20:04.506Z</time></trkpt><trkpt lat="48.5899867" lon="8.9745236"><ele>458.0</ele><time>2026-04-06T11:20:05.47Z</time></trkpt><trkpt lat="48.5900451" lon="8.9746178"><ele>457.50000000000006</ele><time>2026-04-06T11:20:06.497Z</time></trkpt><trkpt lat="48.5901032" lon="8.9747143"><ele>457.0</ele><time>2026-04-06T11:20:07.498Z</time></trkpt><trkpt lat="48.5901682" lon="8.9748015"><ele>457.00000000000006</ele><time>2026-04-06T11:20:08.506Z</time></trkpt><trkpt lat="48.5902402" lon="8.9748828"><ele>457.0</ele><time>2026-04-06T11:20:09.478Z</time></trkpt><trkpt lat="48.5903118" lon="8.9749579"><ele>457.0</ele><time>2026-04-06T11:20:10.51Z</time></trkpt><trkpt lat="48.5903819" lon="8.9750313"><ele>457.0</ele><time>2026-04-06T11:20:11.496Z</time></trkpt><trkpt lat="48.5904517" lon="8.9750896"><ele>457.00000000000006</ele><time>2026-04-06T11:20:12.515Z</time></trkpt><trkpt lat="48.5905134" lon="8.9751512"><ele>457.0</ele><time>2026-04-06T11:20:13.516Z</time></trkpt><trkpt lat="48.5905813" lon="8.9752042"><ele>457.1666666666667</ele><time>2026-04-06T11:20:14.504Z</time></trkpt><trkpt lat="48.5906536" lon="8.9752452"><ele>457.33333333333337</ele><time>2026-04-06T11:20:15.505Z</time></trkpt><trkpt lat="48.5907308" lon="8.9753108"><ele>457.5</ele><time>2026-04-06T11:20:16.516Z</time></trkpt><trkpt lat="48.5908113" lon="8.9754018"><ele>457.66666666666663</ele><time>2026-04-06T11:20:17.53Z</time></trkpt><trkpt lat="48.5908734" lon="8.9755073"><ele>457.8333333333333</ele><time>2026-04-06T11:20:18.5Z</time></trkpt><trkpt lat="48.590918" lon="8.9756234"><ele>458.0</ele><time>2026-04-06T11:20:19.496Z</time></trkpt><trkpt lat="48.5909556" lon="8.9757485"><ele>457.49999999999994</ele><time>2026-04-06T11:20:20.515Z</time></trkpt><trkpt lat="48.5910007" lon="8.9758635"><ele>457.0</ele><time>2026-04-06T11:20:21.509Z</time></trkpt><trkpt lat="48.5910336" lon="8.9759742"><ele>456.5</ele><time>2026-04-06T11:20:22.518Z</time></trkpt><trkpt lat="48.5910695" lon="8.97608"><ele>456.0</ele><time>2026-04-06T11:20:23.5Z</time></trkpt><trkpt lat="48.591099" lon="8.9761888"><ele>455.49999999999994</ele><time>2026-04-06T11:20:24.52Z</time></trkpt><trkpt lat="48.5911304" lon="8.9762865"><ele>455.0</ele><time>2026-04-06T11:20:25.519Z</time></trkpt><trkpt lat="48.5911664" lon="8.9763826"><ele>455.0</ele><time>2026-04-06T11:20:26.529Z</time></trkpt><trkpt lat="48.5912073" lon="8.9764774"><ele>455.0</ele><time>2026-04-06T11:20:27.509Z</time></trkpt><trkpt lat="48.5912466" lon="8.9765684"><ele>455.0</ele><time>2026-04-06T11:20:28.514Z</time></trkpt><trkpt lat="48.5912848" lon="8.976665"><ele>455.0</ele><time>2026-04-06T11:20:29.517Z</time></trkpt><trkpt lat="48.5913184" lon="8.9767544"><ele>455.0</ele><time>2026-04-06T11:20:30.491Z</time></trkpt><trkpt lat="48.5913643" lon="8.9768343"><ele>455.0</ele><time>2026-04-06T11:20:31.52Z</time></trkpt><trkpt lat="48.5914086" lon="8.9769067"><ele>455.0</ele><time>2026-04-06T11:20:32.494Z</time></trkpt><trkpt lat="48.5914775" lon="8.9770596"><ele>454.99999999999994</ele><time>2026-04-06T11:20:34.508Z</time></trkpt><trkpt lat="48.5914594" lon="8.9772207"><ele>455.0</ele><time>2026-04-06T11:20:36.503Z</time></trkpt><trkpt lat="48.5913761" lon="8.9773356"><ele>455.0</ele><time>2026-04-06T11:20:38.507Z</time></trkpt><trkpt lat="48.5913269" lon="8.9773974"><ele>455.0</ele><time>2026-04-06T11:20:45.519Z</time></trkpt><trkpt lat="48.5912669" lon="8.9774612"><ele>454.99999999999994</ele><time>2026-04-06T11:20:59.523Z</time></trkpt><trkpt lat="48.5911958" lon="8.9775092"><ele>455.0</ele><time>2026-04-06T11:21:01.522Z</time></trkpt><trkpt lat="48.5911343" lon="8.9775366"><ele>454.6</ele><time>2026-04-06T11:21:02.546Z</time></trkpt><trkpt lat="48.5910343" lon="8.9776027"><ele>454.2</ele><time>2026-04-06T11:21:04.518Z</time></trkpt><trkpt lat="48.5909267" lon="8.9776875"><ele>453.79999999999995</ele><time>2026-04-06T11:21:06.516Z</time></trkpt><trkpt lat="48.590811" lon="8.9777644"><ele>453.4</ele><time>2026-04-06T11:21:08.521Z</time></trkpt><trkpt lat="48.5907497" lon="8.9778037"><ele>453.0</ele><time>2026-04-06T11:21:09.518Z</time></trkpt><trkpt lat="48.5906858" lon="8.9778508"><ele>453.0</ele><time>2026-04-06T11:21:10.514Z</time></trkpt><trkpt lat="48.5906264" lon="8.9779011"><ele>453.0</ele><time>2026-04-06T11:21:11.515Z</time></trkpt><trkpt lat="48.5905672" lon="8.9779504"><ele>453.0</ele><time>2026-04-06T11:21:12.508Z</time></trkpt><trkpt lat="48.5905083" lon="8.977989"><ele>453.0</ele><time>2026-04-06T11:21:13.509Z</time></trkpt><trkpt lat="48.59045" lon="8.9780291"><ele>453.0</ele><time>2026-04-06T11:21:14.502Z</time></trkpt><trkpt lat="48.5903891" lon="8.9780754"><ele>453.0</ele><time>2026-04-06T11:21:15.505Z</time></trkpt><trkpt lat="48.590277" lon="8.9781536"><ele>452.71428571428567</ele><time>2026-04-06T11:21:17.513Z</time></trkpt><trkpt lat="48.5902195" lon="8.978198"><ele>452.42857142857144</ele><time>2026-04-06T11:21:18.503Z</time></trkpt><trkpt lat="48.5901628" lon="8.9782472"><ele>452.1428571428571</ele><time>2026-04-06T11:21:19.518Z</time></trkpt><trkpt lat="48.5901057" lon="8.9783013"><ele>451.85714285714283</ele><time>2026-04-06T11:21:20.506Z</time></trkpt><trkpt lat="48.5900482" lon="8.9783603"><ele>451.57142857142856</ele><time>2026-04-06T11:21:21.509Z</time></trkpt><trkpt lat="48.5899965" lon="8.978419"><ele>451.2857142857143</ele><time>2026-04-06T11:21:22.507Z</time></trkpt><trkpt lat="48.5899517" lon="8.9784895"><ele>451.0</ele><time>2026-04-06T11:21:23.491Z</time></trkpt><trkpt lat="48.589906" lon="8.9785631"><ele>451.0</ele><time>2026-04-06T11:21:24.513Z</time></trkpt><trkpt lat="48.5898675" lon="8.9786456"><ele>451.0</ele><time>2026-04-06T11:21:25.517Z</time></trkpt><trkpt lat="48.5898265" lon="8.9787303"><ele>451.0</ele><time>2026-04-06T11:21:26.518Z</time></trkpt><trkpt lat="48.589781" lon="8.9788171"><ele>451.0</ele><time>2026-04-06T11:21:27.506Z</time></trkpt><trkpt lat="48.5897385" lon="8.9788999"><ele>451.0</ele><time>2026-04-06T11:21:28.51Z</time></trkpt><trkpt lat="48.5896993" lon="8.9789852"><ele>451.0</ele><time>2026-04-06T11:21:29.511Z</time></trkpt><trkpt lat="48.589654" lon="8.9790745"><ele>451.0</ele><time>2026-04-06T11:21:30.506Z</time></trkpt><trkpt lat="48.5896072" lon="8.9791632"><ele>450.85714285714283</ele><time>2026-04-06T11:21:31.506Z</time></trkpt><trkpt lat="48.5895554" lon="8.9792394"><ele>450.7142857142858</ele><time>2026-04-06T11:21:32.495Z</time></trkpt><trkpt lat="48.5894977" lon="8.9793053"><ele>450.5714285714286</ele><time>2026-04-06T11:21:33.514Z</time></trkpt><trkpt lat="48.5894392" lon="8.9793694"><ele>450.42857142857144</ele><time>2026-04-06T11:21:34.523Z</time></trkpt><trkpt lat="48.5893796" lon="8.9794283"><ele>450.28571428571433</ele><time>2026-04-06T11:21:35.515Z</time></trkpt><trkpt lat="48.5893174" lon="8.9794873"><ele>450.1428571428572</ele><time>2026-04-06T11:21:36.503Z</time></trkpt><trkpt lat="48.589261" lon="8.9795469"><ele>450.00000000000006</ele><time>2026-04-06T11:21:37.518Z</time></trkpt><trkpt lat="48.5892073" lon="8.9796108"><ele>450.00000000000006</ele><time>2026-04-06T11:21:38.503Z</time></trkpt><trkpt lat="48.5891607" lon="8.9796808"><ele>450.0</ele><time>2026-04-06T11:21:39.502Z</time></trkpt><trkpt lat="48.589116" lon="8.9797543"><ele>450.00000000000006</ele><time>2026-04-06T11:21:40.472Z</time></trkpt><trkpt lat="48.5890742" lon="8.9798321"><ele>450.00000000000006</ele><time>2026-04-06T11:21:41.522Z</time></trkpt><trkpt lat="48.5890348" lon="8.9799158"><ele>450.0</ele><time>2026-04-06T11:21:42.513Z</time></trkpt><trkpt lat="48.5889972" lon="8.9800039"><ele>450.00000000000006</ele><time>2026-04-06T11:21:43.519Z</time></trkpt><trkpt lat="48.5889597" lon="8.9801019"><ele>450.00000000000006</ele><time>2026-04-06T11:21:44.52Z</time></trkpt><trkpt lat="48.5889236" lon="8.9801966"><ele>450.1428571428572</ele><time>2026-04-06T11:21:45.525Z</time></trkpt><trkpt lat="48.5888844" lon="8.9802912"><ele>450.28571428571433</ele><time>2026-04-06T11:21:46.503Z</time></trkpt><trkpt lat="48.588846" lon="8.9803824"><ele>450.42857142857144</ele><time>2026-04-06T11:21:47.508Z</time></trkpt><trkpt lat="48.5888112" lon="8.9804773"><ele>450.5714285714286</ele><time>2026-04-06T11:21:48.498Z</time></trkpt><trkpt lat="48.5887721" lon="8.9805705"><ele>450.7142857142858</ele><time>2026-04-06T11:21:49.494Z</time></trkpt><trkpt lat="48.5887335" lon="8.9806724"><ele>450.85714285714283</ele><time>2026-04-06T11:21:50.524Z</time></trkpt><trkpt lat="48.5886999" lon="8.9807676"><ele>451.0</ele><time>2026-04-06T11:21:51.497Z</time></trkpt><trkpt lat="48.5886711" lon="8.9808695"><ele>451.0</ele><time>2026-04-06T11:21:52.501Z</time></trkpt><trkpt lat="48.5886468" lon="8.9809671"><ele>451.0</ele><time>2026-04-06T11:21:53.509Z</time></trkpt><trkpt lat="48.5886263" lon="8.9810683"><ele>451.0</ele><time>2026-04-06T11:21:54.502Z</time></trkpt><trkpt lat="48.5886126" lon="8.9811689"><ele>451.0</ele><time>2026-04-06T11:21:55.509Z</time></trkpt><trkpt lat="48.588601" lon="8.9812699"><ele>451.0</ele><time>2026-04-06T11:21:56.493Z</time></trkpt><trkpt lat="48.5885805" lon="8.9813712"><ele>451.0</ele><time>2026-04-06T11:21:57.497Z</time></trkpt><trkpt lat="48.5885516" lon="8.9814732"><ele>451.0</ele><time>2026-04-06T11:21:58.52Z</time></trkpt><trkpt lat="48.5885048" lon="8.9815651"><ele>451.0</ele><time>2026-04-06T11:21:59.499Z</time></trkpt><trkpt lat="48.5884504" lon="8.9816389"><ele>451.0</ele><time>2026-04-06T11:22:00.517Z</time></trkpt><trkpt lat="48.5883961" lon="8.9817019"><ele>451.0</ele><time>2026-04-06T11:22:01.509Z</time></trkpt><trkpt lat="48.5883378" lon="8.9817717"><ele>451.0</ele><time>2026-04-06T11:22:02.517Z</time></trkpt><trkpt lat="48.5882788" lon="8.9818368"><ele>451.0</ele><time>2026-04-06T11:22:03.501Z</time></trkpt><trkpt lat="48.5882219" lon="8.981895"><ele>451.0</ele><time>2026-04-06T11:22:04.51Z</time></trkpt><trkpt lat="48.5881688" lon="8.9819661"><ele>451.0</ele><time>2026-04-06T11:22:05.507Z</time></trkpt><trkpt lat="48.5881086" lon="8.9820257"><ele>450.4285714285714</ele><time>2026-04-06T11:22:06.524Z</time></trkpt><trkpt lat="48.5880507" lon="8.9820876"><ele>449.8571428571429</ele><time>2026-04-06T11:22:07.519Z</time></trkpt><trkpt lat="48.5879946" lon="8.9821474"><ele>449.2857142857143</ele><time>2026-04-06T11:22:08.524Z</time></trkpt><trkpt lat="48.5879436" lon="8.9822043"><ele>448.71428571428567</ele><time>2026-04-06T11:22:09.536Z</time></trkpt><trkpt lat="48.5878823" lon="8.9822601"><ele>448.1428571428571</ele><time>2026-04-06T11:22:10.499Z</time></trkpt><trkpt lat="48.5878289" lon="8.9823111"><ele>447.57142857142856</ele><time>2026-04-06T11:22:11.504Z</time></trkpt><trkpt lat="48.5877705" lon="8.9823834"><ele>447.0</ele><time>2026-04-06T11:22:12.516Z</time></trkpt><trkpt lat="48.5877195" lon="8.9824544"><ele>447.2857142857142</ele><time>2026-04-06T11:22:13.519Z</time></trkpt><trkpt lat="48.587667" lon="8.9825238"><ele>447.57142857142856</ele><time>2026-04-06T11:22:14.507Z</time></trkpt><trkpt lat="48.5876152" lon="8.9825969"><ele>447.85714285714283</ele><time>2026-04-06T11:22:15.523Z</time></trkpt><trkpt lat="48.5875682" lon="8.9826723"><ele>448.1428571428571</ele><time>2026-04-06T11:22:16.505Z</time></trkpt><trkpt lat="48.5875196" lon="8.9827529"><ele>448.4285714285714</ele><time>2026-04-06T11:22:17.515Z</time></trkpt><trkpt lat="48.587478" lon="8.982836"><ele>448.71428571428567</ele><time>2026-04-06T11:22:18.514Z</time></trkpt><trkpt lat="48.5874409" lon="8.9829237"><ele>449.0</ele><time>2026-04-06T11:22:19.505Z</time></trkpt><trkpt lat="48.5874087" lon="8.9830135"><ele>448.99999999999994</ele><time>2026-04-06T11:22:20.504Z</time></trkpt><trkpt lat="48.5873474" lon="8.9831847"><ele>449.0</ele><time>2026-04-06T11:22:22.531Z</time></trkpt><trkpt lat="48.5873136" lon="8.9832733"><ele>449.0</ele><time>2026-04-06T11:22:23.504Z</time></trkpt><trkpt lat="48.587287" lon="8.983373"><ele>449.0</ele><time>2026-04-06T11:22:24.497Z</time></trkpt><trkpt lat="48.587271" lon="8.983483"><ele>448.99999999999994</ele><time>2026-04-06T11:22:25.51Z</time></trkpt><trkpt lat="48.5872545" lon="8.9835895"><ele>449.0</ele><time>2026-04-06T11:22:26.462Z</time></trkpt><trkpt lat="48.5872417" lon="8.9836968"><ele>449.8333333333333</ele><time>2026-04-06T11:22:27.509Z</time></trkpt><trkpt lat="48.5872316" lon="8.9838037"><ele>450.66666666666663</ele><time>2026-04-06T11:22:28.497Z</time></trkpt><trkpt lat="48.5872248" lon="8.9839189"><ele>451.5</ele><time>2026-04-06T11:22:29.494Z</time></trkpt><trkpt lat="48.5872161" lon="8.9840398"><ele>452.33333333333337</ele><time>2026-04-06T11:22:30.483Z</time></trkpt><trkpt lat="48.5872139" lon="8.9841669"><ele>453.1666666666667</ele><time>2026-04-06T11:22:31.504Z</time></trkpt><trkpt lat="48.5872148" lon="8.9842918"><ele>454.0</ele><time>2026-04-06T11:22:32.497Z</time></trkpt><trkpt lat="48.587213" lon="8.9844199"><ele>454.83333333333337</ele><time>2026-04-06T11:22:33.503Z</time></trkpt><trkpt lat="48.5872169" lon="8.9845421"><ele>455.6666666666667</ele><time>2026-04-06T11:22:34.491Z</time></trkpt><trkpt lat="48.5872159" lon="8.984659"><ele>456.5</ele><time>2026-04-06T11:22:35.501Z</time></trkpt><trkpt lat="48.5872174" lon="8.9847852"><ele>457.33333333333337</ele><time>2026-04-06T11:22:36.497Z</time></trkpt><trkpt lat="48.5872166" lon="8.9849089"><ele>458.1666666666667</ele><time>2026-04-06T11:22:37.526Z</time></trkpt><trkpt lat="48.5872119" lon="8.9850341"><ele>459.0</ele><time>2026-04-06T11:22:38.514Z</time></trkpt><trkpt lat="48.5872019" lon="8.9851552"><ele>459.0</ele><time>2026-04-06T11:22:39.508Z</time></trkpt><trkpt lat="48.5871866" lon="8.9852736"><ele>459.0</ele><time>2026-04-06T11:22:40.514Z</time></trkpt><trkpt lat="48.5871795" lon="8.9853991"><ele>459.0</ele><time>2026-04-06T11:22:41.509Z</time></trkpt><trkpt lat="48.5871682" lon="8.985524"><ele>459.0</ele><time>2026-04-06T11:22:42.51Z</time></trkpt><trkpt lat="48.5871565" lon="8.9856434"><ele>459.0</ele><time>2026-04-06T11:22:43.522Z</time></trkpt><trkpt lat="48.5871452" lon="8.9857619"><ele>459.0</ele><time>2026-04-06T11:22:44.473Z</time></trkpt><trkpt lat="48.5871278" lon="8.9858805"><ele>459.0</ele><time>2026-04-06T11:22:45.503Z</time></trkpt><trkpt lat="48.587106" lon="8.9859962"><ele>459.0</ele><time>2026-04-06T11:22:46.527Z</time></trkpt><trkpt lat="48.5870838" lon="8.986106"><ele>459.0</ele><time>2026-04-06T11:22:47.518Z</time></trkpt><trkpt lat="48.5870562" lon="8.98622"><ele>459.0</ele><time>2026-04-06T11:22:48.476Z</time></trkpt><trkpt lat="48.587028" lon="8.9863329"><ele>459.0</ele><time>2026-04-06T11:22:49.501Z</time></trkpt><trkpt lat="48.5870029" lon="8.9864415"><ele>459.0</ele><time>2026-04-06T11:22:50.498Z</time></trkpt><trkpt lat="48.586973" lon="8.9865496"><ele>457.0</ele><time>2026-04-06T11:22:51.494Z</time></trkpt><trkpt lat="48.5869417" lon="8.9866572"><ele>455.0</ele><time>2026-04-06T11:22:52.498Z</time></trkpt><trkpt lat="48.5869101" lon="8.9867683"><ele>453.0</ele><time>2026-04-06T11:22:53.488Z</time></trkpt><trkpt lat="48.5868722" lon="8.9868659"><ele>451.0</ele><time>2026-04-06T11:22:54.484Z</time></trkpt><trkpt lat="48.5868264" lon="8.9869642"><ele>449.0</ele><time>2026-04-06T11:22:55.515Z</time></trkpt><trkpt lat="48.5867853" lon="8.9870585"><ele>447.0</ele><time>2026-04-06T11:22:56.504Z</time></trkpt><trkpt lat="48.5867384" lon="8.9871513"><ele>447.0</ele><time>2026-04-06T11:22:57.504Z</time></trkpt><trkpt lat="48.5866916" lon="8.9872399"><ele>447.0</ele><time>2026-04-06T11:22:58.478Z</time></trkpt><trkpt lat="48.5866431" lon="8.9873332"><ele>447.0</ele><time>2026-04-06T11:22:59.5Z</time></trkpt><trkpt lat="48.5865942" lon="8.9874268"><ele>447.0</ele><time>2026-04-06T11:23:00.512Z</time></trkpt><trkpt lat="48.58655" lon="8.9875138"><ele>447.0</ele><time>2026-04-06T11:23:01.514Z</time></trkpt><trkpt lat="48.5865026" lon="8.9876082"><ele>447.0</ele><time>2026-04-06T11:23:02.478Z</time></trkpt><trkpt lat="48.5864634" lon="8.9877019"><ele>447.1666666666667</ele><time>2026-04-06T11:23:03.514Z</time></trkpt><trkpt lat="48.5864129" lon="8.9877936"><ele>447.33333333333337</ele><time>2026-04-06T11:23:04.484Z</time></trkpt><trkpt lat="48.5863696" lon="8.9878817"><ele>447.5</ele><time>2026-04-06T11:23:05.505Z</time></trkpt><trkpt lat="48.5863138" lon="8.9879917"><ele>447.6666666666667</ele><time>2026-04-06T11:23:06.514Z</time></trkpt><trkpt lat="48.5862621" lon="8.9880863"><ele>447.83333333333337</ele><time>2026-04-06T11:23:07.486Z</time></trkpt><trkpt lat="48.5862019" lon="8.9881796"><ele>448.0</ele><time>2026-04-06T11:23:08.498Z</time></trkpt><trkpt lat="48.5861397" lon="8.9882768"><ele>449.00000000000006</ele><time>2026-04-06T11:23:09.508Z</time></trkpt><trkpt lat="48.586082" lon="8.9883919"><ele>450.0</ele><time>2026-04-06T11:23:10.501Z</time></trkpt><trkpt lat="48.5860234" lon="8.9884823"><ele>451.0</ele><time>2026-04-06T11:23:11.502Z</time></trkpt><trkpt lat="48.5859713" lon="8.9885777"><ele>452.0</ele><time>2026-04-06T11:23:12.49Z</time></trkpt><trkpt lat="48.5859182" lon="8.9886727"><ele>453.00000000000006</ele><time>2026-04-06T11:23:13.51Z</time></trkpt><trkpt lat="48.585863" lon="8.9887625"><ele>454.0</ele><time>2026-04-06T11:23:14.484Z</time></trkpt><trkpt lat="48.5858131" lon="8.9888709"><ele>454.00000000000006</ele><time>2026-04-06T11:23:15.505Z</time></trkpt><trkpt lat="48.5857662" lon="8.9889815"><ele>454.0</ele><time>2026-04-06T11:23:16.487Z</time></trkpt><trkpt lat="48.5857296" lon="8.9890889"><ele>454.0</ele><time>2026-04-06T11:23:17.503Z</time></trkpt><trkpt lat="48.5857008" lon="8.9891976"><ele>454.0</ele><time>2026-04-06T11:23:18.504Z</time></trkpt><trkpt lat="48.585677" lon="8.9893156"><ele>454.00000000000006</ele><time>2026-04-06T11:23:19.504Z</time></trkpt><trkpt lat="48.5856525" lon="8.9894403"><ele>454.0</ele><time>2026-04-06T11:23:20.518Z</time></trkpt><trkpt lat="48.5856341" lon="8.9895789"><ele>455.0</ele><time>2026-04-06T11:23:21.52Z</time></trkpt><trkpt lat="48.5856142" lon="8.989726"><ele>456.0</ele><time>2026-04-06T11:23:22.494Z</time></trkpt><trkpt lat="48.5855959" lon="8.9898616"><ele>457.0</ele><time>2026-04-06T11:23:23.498Z</time></trkpt><trkpt lat="48.5855784" lon="8.9899969"><ele>458.0</ele><time>2026-04-06T11:23:24.475Z</time></trkpt><trkpt lat="48.5855644" lon="8.9901333"><ele>459.0</ele><time>2026-04-06T11:23:25.495Z</time></trkpt><trkpt lat="48.5855468" lon="8.9902672"><ele>459.8333333333333</ele><time>2026-04-06T11:23:26.497Z</time></trkpt><trkpt lat="48.5855281" lon="8.990398"><ele>460.66666666666663</ele><time>2026-04-06T11:23:27.502Z</time></trkpt><trkpt lat="48.5855076" lon="8.990529"><ele>461.5</ele><time>2026-04-06T11:23:28.475Z</time></trkpt><trkpt lat="48.5854809" lon="8.9906615"><ele>462.3333333333333</ele><time>2026-04-06T11:23:29.501Z</time></trkpt><trkpt lat="48.5854523" lon="8.9907931"><ele>463.16666666666663</ele><time>2026-04-06T11:23:30.498Z</time></trkpt><trkpt lat="48.5854176" lon="8.990915"><ele>464.0</ele><time>2026-04-06T11:23:31.522Z</time></trkpt><trkpt lat="48.5853778" lon="8.99104"><ele>460.6</ele><time>2026-04-06T11:23:32.502Z</time></trkpt><trkpt lat="48.5853328" lon="8.9911609"><ele>457.2</ele><time>2026-04-06T11:23:33.494Z</time></trkpt><trkpt lat="48.5852855" lon="8.9912768"><ele>453.80000000000007</ele><time>2026-04-06T11:23:34.474Z</time></trkpt><trkpt lat="48.5852349" lon="8.9913923"><ele>450.40000000000003</ele><time>2026-04-06T11:23:35.515Z</time></trkpt><trkpt lat="48.5851764" lon="8.9915037"><ele>447.0</ele><time>2026-04-06T11:23:36.494Z</time></trkpt><trkpt lat="48.5851187" lon="8.9916134"><ele>449.5</ele><time>2026-04-06T11:23:37.483Z</time></trkpt><trkpt lat="48.5850575" lon="8.9917164"><ele>452.0</ele><time>2026-04-06T11:23:38.499Z</time></trkpt><trkpt lat="48.585" lon="8.991815"><ele>454.5</ele><time>2026-04-06T11:23:39.485Z</time></trkpt><trkpt lat="48.5849446" lon="8.9919096"><ele>457.0</ele><time>2026-04-06T11:23:40.494Z</time></trkpt><trkpt lat="48.5848799" lon="8.9920018"><ele>459.5</ele><time>2026-04-06T11:23:41.505Z</time></trkpt><trkpt lat="48.5848069" lon="8.9920706"><ele>462.0</ele><time>2026-04-06T11:23:42.504Z</time></trkpt><trkpt lat="48.5847352" lon="8.9921491"><ele>462.0</ele><time>2026-04-06T11:23:43.506Z</time></trkpt><trkpt lat="48.5846678" lon="8.9922206"><ele>462.0</ele><time>2026-04-06T11:23:44.489Z</time></trkpt><trkpt lat="48.5846061" lon="8.9922851"><ele>462.0</ele><time>2026-04-06T11:23:45.488Z</time></trkpt><trkpt lat="48.5845376" lon="8.9923556"><ele>462.0</ele><time>2026-04-06T11:23:46.528Z</time></trkpt><trkpt lat="48.5844669" lon="8.9924174"><ele>462.0</ele><time>2026-04-06T11:23:47.501Z</time></trkpt><trkpt lat="48.5843983" lon="8.9924863"><ele>462.0</ele><time>2026-04-06T11:23:48.488Z</time></trkpt><trkpt lat="48.5843311" lon="8.992553"><ele>459.3333333333333</ele><time>2026-04-06T11:23:49.503Z</time></trkpt><trkpt lat="48.5842752" lon="8.9926189"><ele>456.66666666666663</ele><time>2026-04-06T11:23:50.482Z</time></trkpt><trkpt lat="48.584222" lon="8.9926964"><ele>454.0</ele><time>2026-04-06T11:23:51.505Z</time></trkpt><trkpt lat="48.5841705" lon="8.9927862"><ele>451.3333333333333</ele><time>2026-04-06T11:23:52.513Z</time></trkpt><trkpt lat="48.5841261" lon="8.9928842"><ele>448.66666666666663</ele><time>2026-04-06T11:23:53.494Z</time></trkpt><trkpt lat="48.5840973" lon="8.9929903"><ele>446.0</ele><time>2026-04-06T11:23:54.481Z</time></trkpt><trkpt lat="48.5840864" lon="8.9931009"><ele>445.99999999999994</ele><time>2026-04-06T11:23:55.506Z</time></trkpt><trkpt lat="48.584097" lon="8.9932348"><ele>446.0</ele><time>2026-04-06T11:23:56.482Z</time></trkpt><trkpt lat="48.5841008" lon="8.9933552"><ele>446.0</ele><time>2026-04-06T11:23:57.508Z</time></trkpt><trkpt lat="48.584107" lon="8.9934933"><ele>446.0</ele><time>2026-04-06T11:23:58.52Z</time></trkpt><trkpt lat="48.5841228" lon="8.9936303"><ele>445.99999999999994</ele><time>2026-04-06T11:23:59.5Z</time></trkpt><trkpt lat="48.5841386" lon="8.9937622"><ele>446.0</ele><time>2026-04-06T11:24:00.501Z</time></trkpt><trkpt lat="48.5841595" lon="8.9938994"><ele>446.16666666666663</ele><time>2026-04-06T11:24:01.486Z</time></trkpt><trkpt lat="48.5841837" lon="8.9940184"><ele>446.3333333333333</ele><time>2026-04-06T11:24:02.5Z</time></trkpt><trkpt lat="48.5842084" lon="8.9941368"><ele>446.5</ele><time>2026-04-06T11:24:03.511Z</time></trkpt><trkpt lat="48.584248" lon="8.9942617"><ele>446.66666666666663</ele><time>2026-04-06T11:24:04.478Z</time></trkpt><trkpt lat="48.5842785" lon="8.9943809"><ele>446.8333333333333</ele><time>2026-04-06T11:24:05.486Z</time></trkpt><trkpt lat="48.5843066" lon="8.9945073"><ele>447.0</ele><time>2026-04-06T11:24:06.533Z</time></trkpt><trkpt lat="48.5843344" lon="8.9946335"><ele>446.6666666666667</ele><time>2026-04-06T11:24:07.492Z</time></trkpt><trkpt lat="48.5843692" lon="8.9947476"><ele>446.33333333333337</ele><time>2026-04-06T11:24:08.501Z</time></trkpt><trkpt lat="48.5844073" lon="8.9948681"><ele>446.0</ele><time>2026-04-06T11:24:09.511Z</time></trkpt><trkpt lat="48.5844558" lon="8.9949758"><ele>445.6666666666667</ele><time>2026-04-06T11:24:10.504Z</time></trkpt><trkpt lat="48.5845115" lon="8.9950718"><ele>445.33333333333337</ele><time>2026-04-06T11:24:11.514Z</time></trkpt><trkpt lat="48.5845724" lon="8.9951518"><ele>445.0</ele><time>2026-04-06T11:24:12.491Z</time></trkpt><trkpt lat="48.5846379" lon="8.9952269"><ele>444.6666666666667</ele><time>2026-04-06T11:24:13.489Z</time></trkpt><trkpt lat="48.584699" lon="8.9953058"><ele>444.33333333333337</ele><time>2026-04-06T11:24:14.48Z</time></trkpt><trkpt lat="48.5847652" lon="8.9953783"><ele>444.0</ele><time>2026-04-06T11:24:15.492Z</time></trkpt><trkpt lat="48.5848314" lon="8.9954494"><ele>443.66666666666663</ele><time>2026-04-06T11:24:16.506Z</time></trkpt><trkpt lat="48.5849014" lon="8.9955255"><ele>443.3333333333333</ele><time>2026-04-06T11:24:17.501Z</time></trkpt><trkpt lat="48.5849798" lon="8.9955861"><ele>443.0</ele><time>2026-04-06T11:24:18.5Z</time></trkpt><trkpt lat="48.5850536" lon="8.9956418"><ele>442.99999999999994</ele><time>2026-04-06T11:24:19.5Z</time></trkpt><trkpt lat="48.5851263" lon="8.9957035"><ele>443.0</ele><time>2026-04-06T11:24:20.507Z</time></trkpt><trkpt lat="48.5851943" lon="8.9957643"><ele>443.0</ele><time>2026-04-06T11:24:21.499Z</time></trkpt><trkpt lat="48.5852635" lon="8.995834"><ele>443.0</ele><time>2026-04-06T11:24:22.454Z</time></trkpt><trkpt lat="48.5853315" lon="8.9959001"><ele>442.99999999999994</ele><time>2026-04-06T11:24:23.499Z</time></trkpt><trkpt lat="48.5853969" lon="8.9959705"><ele>443.0</ele><time>2026-04-06T11:24:24.492Z</time></trkpt><trkpt lat="48.5854629" lon="8.9960362"><ele>442.49999999999994</ele><time>2026-04-06T11:24:25.5Z</time></trkpt><trkpt lat="48.5855342" lon="8.9961023"><ele>442.0</ele><time>2026-04-06T11:24:26.494Z</time></trkpt><trkpt lat="48.5856063" lon="8.9961652"><ele>441.5</ele><time>2026-04-06T11:24:27.509Z</time></trkpt><trkpt lat="48.5856724" lon="8.9962141"><ele>441.0</ele><time>2026-04-06T11:24:28.512Z</time></trkpt><trkpt lat="48.5857429" lon="8.9962724"><ele>440.49999999999994</ele><time>2026-04-06T11:24:29.494Z</time></trkpt><trkpt lat="48.585811" lon="8.9963322"><ele>440.0</ele><time>2026-04-06T11:24:30.491Z</time></trkpt><trkpt lat="48.5858765" lon="8.9964"><ele>439.99999999999994</ele><time>2026-04-06T11:24:31.496Z</time></trkpt><trkpt lat="48.585948" lon="8.9964649"><ele>440.0</ele><time>2026-04-06T11:24:32.485Z</time></trkpt><trkpt lat="48.5860175" lon="8.9965298"><ele>440.0</ele><time>2026-04-06T11:24:33.501Z</time></trkpt><trkpt lat="48.5860847" lon="8.9965887"><ele>440.0</ele><time>2026-04-06T11:24:34.48Z</time></trkpt><trkpt lat="48.5861502" lon="8.9966587"><ele>439.99999999999994</ele><time>2026-04-06T11:24:35.492Z</time></trkpt><trkpt lat="48.5862113" lon="8.9967311"><ele>440.0</ele><time>2026-04-06T11:24:36.504Z</time></trkpt><trkpt lat="48.5862725" lon="8.9968112"><ele>440.3333333333333</ele><time>2026-04-06T11:24:37.497Z</time></trkpt><trkpt lat="48.5863309" lon="8.9968987"><ele>440.66666666666663</ele><time>2026-04-06T11:24:38.48Z</time></trkpt><trkpt lat="48.5863834" lon="8.9969889"><ele>441.0</ele><time>2026-04-06T11:24:39.502Z</time></trkpt><trkpt lat="48.5864305" lon="8.99708"><ele>441.33333333333337</ele><time>2026-04-06T11:24:40.503Z</time></trkpt><trkpt lat="48.5864673" lon="8.9971841"><ele>441.6666666666667</ele><time>2026-04-06T11:24:41.499Z</time></trkpt><trkpt lat="48.586503" lon="8.9972903"><ele>442.0</ele><time>2026-04-06T11:24:42.515Z</time></trkpt><trkpt lat="48.5865292" lon="8.9974097"><ele>441.00000000000006</ele><time>2026-04-06T11:24:43.484Z</time></trkpt><trkpt lat="48.5865551" lon="8.9975258"><ele>440.0</ele><time>2026-04-06T11:24:44.48Z</time></trkpt><trkpt lat="48.5865737" lon="8.9976314"><ele>439.0</ele><time>2026-04-06T11:24:45.482Z</time></trkpt><trkpt lat="48.5865874" lon="8.9977504"><ele>438.0</ele><time>2026-04-06T11:24:46.496Z</time></trkpt><trkpt lat="48.5865975" lon="8.9978706"><ele>437.00000000000006</ele><time>2026-04-06T11:24:47.499Z</time></trkpt><trkpt lat="48.5866069" lon="8.9979921"><ele>436.0</ele><time>2026-04-06T11:24:48.489Z</time></trkpt><trkpt lat="48.5866217" lon="8.9981046"><ele>436.00000000000006</ele><time>2026-04-06T11:24:49.503Z</time></trkpt><trkpt lat="48.5866348" lon="8.9982191"><ele>436.0</ele><time>2026-04-06T11:24:50.507Z</time></trkpt><trkpt lat="48.5866534" lon="8.9983263"><ele>436.0</ele><time>2026-04-06T11:24:51.445Z</time></trkpt><trkpt lat="48.5866736" lon="8.9984443"><ele>436.0</ele><time>2026-04-06T11:24:52.499Z</time></trkpt><trkpt lat="48.5866927" lon="8.9985659"><ele>436.00000000000006</ele><time>2026-04-06T11:24:53.505Z</time></trkpt><trkpt lat="48.5867048" lon="8.9986796"><ele>436.0</ele><time>2026-04-06T11:24:54.495Z</time></trkpt><trkpt lat="48.5867182" lon="8.9987908"><ele>435.83333333333337</ele><time>2026-04-06T11:24:55.521Z</time></trkpt><trkpt lat="48.5867281" lon="8.9989029"><ele>435.6666666666667</ele><time>2026-04-06T11:24:56.49Z</time></trkpt><trkpt lat="48.5867462" lon="8.9990136"><ele>435.5</ele><time>2026-04-06T11:24:57.475Z</time></trkpt><trkpt lat="48.5867646" lon="8.9991276"><ele>435.33333333333337</ele><time>2026-04-06T11:24:58.505Z</time></trkpt><trkpt lat="48.5867821" lon="8.9992397"><ele>435.1666666666667</ele><time>2026-04-06T11:24:59.495Z</time></trkpt><trkpt lat="48.586795" lon="8.9993525"><ele>435.0</ele><time>2026-04-06T11:25:00.513Z</time></trkpt><trkpt lat="48.5867981" lon="8.9994723"><ele>435.28571428571433</ele><time>2026-04-06T11:25:01.5Z</time></trkpt><trkpt lat="48.5867974" lon="8.9995861"><ele>435.57142857142856</ele><time>2026-04-06T11:25:02.507Z</time></trkpt><trkpt lat="48.5867862" lon="8.9997002"><ele>435.8571428571429</ele><time>2026-04-06T11:25:03.524Z</time></trkpt><trkpt lat="48.5867654" lon="8.9998017"><ele>436.14285714285717</ele><time>2026-04-06T11:25:04.511Z</time></trkpt><trkpt lat="48.5867421" lon="8.999902"><ele>436.42857142857144</ele><time>2026-04-06T11:25:05.52Z</time></trkpt><trkpt lat="48.5867371" lon="9.0000116"><ele>436.7142857142857</ele><time>2026-04-06T11:25:06.48Z</time></trkpt><trkpt lat="48.5867442" lon="9.0001144"><ele>437.0</ele><time>2026-04-06T11:25:07.505Z</time></trkpt><trkpt lat="48.5867699" lon="9.0002021"><ele>437.0</ele><time>2026-04-06T11:25:08.502Z</time></trkpt><trkpt lat="48.5868069" lon="9.0002904"><ele>437.0</ele><time>2026-04-06T11:25:09.508Z</time></trkpt><trkpt lat="48.5868405" lon="9.000379"><ele>437.0</ele><time>2026-04-06T11:25:10.521Z</time></trkpt><trkpt lat="48.5868692" lon="9.0004706"><ele>437.0</ele><time>2026-04-06T11:25:11.512Z</time></trkpt><trkpt lat="48.5868975" lon="9.0005688"><ele>437.0</ele><time>2026-04-06T11:25:12.505Z</time></trkpt><trkpt lat="48.5869218" lon="9.0006735"><ele>437.0</ele><time>2026-04-06T11:25:13.504Z</time></trkpt><trkpt lat="48.5869444" lon="9.0007744"><ele>437.0</ele><time>2026-04-06T11:25:14.495Z</time></trkpt><trkpt lat="48.5869718" lon="9.0008832"><ele>437.4285714285714</ele><time>2026-04-06T11:25:15.504Z</time></trkpt><trkpt lat="48.5870011" lon="9.0009927"><ele>437.8571428571429</ele><time>2026-04-06T11:25:16.509Z</time></trkpt><trkpt lat="48.587017" lon="9.0010988"><ele>438.2857142857143</ele><time>2026-04-06T11:25:17.503Z</time></trkpt><trkpt lat="48.5870379" lon="9.0012085"><ele>438.71428571428567</ele><time>2026-04-06T11:25:18.5Z</time></trkpt><trkpt lat="48.5870595" lon="9.0013183"><ele>439.1428571428571</ele><time>2026-04-06T11:25:19.504Z</time></trkpt><trkpt lat="48.5870835" lon="9.001421"><ele>439.57142857142856</ele><time>2026-04-06T11:25:20.516Z</time></trkpt><trkpt lat="48.587107" lon="9.0015274"><ele>440.0</ele><time>2026-04-06T11:25:21.496Z</time></trkpt><trkpt lat="48.5871279" lon="9.0016359"><ele>442.8333333333333</ele><time>2026-04-06T11:25:22.512Z</time></trkpt><trkpt lat="48.5871542" lon="9.0017512"><ele>445.66666666666663</ele><time>2026-04-06T11:25:23.528Z</time></trkpt><trkpt lat="48.5871713" lon="9.0018613"><ele>448.5</ele><time>2026-04-06T11:25:24.515Z</time></trkpt><trkpt lat="48.5871963" lon="9.0019706"><ele>451.33333333333337</ele><time>2026-04-06T11:25:25.495Z</time></trkpt><trkpt lat="48.5872225" lon="9.0020793"><ele>454.1666666666667</ele><time>2026-04-06T11:25:26.517Z</time></trkpt><trkpt lat="48.5872457" lon="9.0021907"><ele>457.0</ele><time>2026-04-06T11:25:27.509Z</time></trkpt><trkpt lat="48.587266" lon="9.0023052"><ele>457.00000000000006</ele><time>2026-04-06T11:25:28.504Z</time></trkpt><trkpt lat="48.5872875" lon="9.0024124"><ele>457.0</ele><time>2026-04-06T11:25:29.509Z</time></trkpt><trkpt lat="48.5873132" lon="9.0025207"><ele>457.0</ele><time>2026-04-06T11:25:30.514Z</time></trkpt><trkpt lat="48.5873313" lon="9.0026347"><ele>457.0</ele><time>2026-04-06T11:25:31.519Z</time></trkpt><trkpt lat="48.5873566" lon="9.0027395"><ele>457.00000000000006</ele><time>2026-04-06T11:25:32.523Z</time></trkpt><trkpt lat="48.5873801" lon="9.0028442"><ele>457.0</ele><time>2026-04-06T11:25:33.493Z</time></trkpt><trkpt lat="48.5874031" lon="9.0029544"><ele>455.1666666666667</ele><time>2026-04-06T11:25:34.502Z</time></trkpt><trkpt lat="48.5874201" lon="9.0030635"><ele>453.33333333333337</ele><time>2026-04-06T11:25:35.519Z</time></trkpt><trkpt lat="48.5874403" lon="9.003167"><ele>451.5</ele><time>2026-04-06T11:25:36.498Z</time></trkpt><trkpt lat="48.5874639" lon="9.0032715"><ele>449.66666666666663</ele><time>2026-04-06T11:25:37.496Z</time></trkpt><trkpt lat="48.58749" lon="9.0033828"><ele>447.8333333333333</ele><time>2026-04-06T11:25:38.515Z</time></trkpt><trkpt lat="48.5875124" lon="9.0034944"><ele>446.0</ele><time>2026-04-06T11:25:39.496Z</time></trkpt><trkpt lat="48.5875349" lon="9.0036069"><ele>444.66666666666663</ele><time>2026-04-06T11:25:40.489Z</time></trkpt><trkpt lat="48.5875589" lon="9.0037204"><ele>443.3333333333333</ele><time>2026-04-06T11:25:41.518Z</time></trkpt><trkpt lat="48.5875805" lon="9.0038249"><ele>442.0</ele><time>2026-04-06T11:25:42.48Z</time></trkpt><trkpt lat="48.5876048" lon="9.0039354"><ele>440.66666666666663</ele><time>2026-04-06T11:25:43.468Z</time></trkpt><trkpt lat="48.5876305" lon="9.0040505"><ele>439.3333333333333</ele><time>2026-04-06T11:25:44.514Z</time></trkpt><trkpt lat="48.5876525" lon="9.0041601"><ele>438.0</ele><time>2026-04-06T11:25:45.515Z</time></trkpt><trkpt lat="48.587671" lon="9.0042706"><ele>437.3333333333333</ele><time>2026-04-06T11:25:46.539Z</time></trkpt><trkpt lat="48.5876891" lon="9.0043824"><ele>436.66666666666663</ele><time>2026-04-06T11:25:47.507Z</time></trkpt><trkpt lat="48.5877065" lon="9.0044919"><ele>436.0</ele><time>2026-04-06T11:25:48.489Z</time></trkpt><trkpt lat="48.5877232" lon="9.0046092"><ele>435.3333333333333</ele><time>2026-04-06T11:25:49.511Z</time></trkpt><trkpt lat="48.5877353" lon="9.0047219"><ele>434.66666666666663</ele><time>2026-04-06T11:25:50.521Z</time></trkpt><trkpt lat="48.5877487" lon="9.0048341"><ele>434.0</ele><time>2026-04-06T11:25:51.505Z</time></trkpt><trkpt lat="48.5877574" lon="9.004948"><ele>434.49999999999994</ele><time>2026-04-06T11:25:52.507Z</time></trkpt><trkpt lat="48.5877633" lon="9.0050646"><ele>435.0</ele><time>2026-04-06T11:25:53.518Z</time></trkpt><trkpt lat="48.5877651" lon="9.0051793"><ele>435.5</ele><time>2026-04-06T11:25:54.477Z</time></trkpt><trkpt lat="48.5877662" lon="9.0052931"><ele>436.0</ele><time>2026-04-06T11:25:55.504Z</time></trkpt><trkpt lat="48.5877689" lon="9.0054163"><ele>436.49999999999994</ele><time>2026-04-06T11:25:56.511Z</time></trkpt><trkpt lat="48.5877719" lon="9.0055349"><ele>437.0</ele><time>2026-04-06T11:25:57.488Z</time></trkpt><trkpt lat="48.5877743" lon="9.0056512"><ele>436.99999999999994</ele><time>2026-04-06T11:25:58.508Z</time></trkpt><trkpt lat="48.5877741" lon="9.0057701"><ele>437.0</ele><time>2026-04-06T11:25:59.505Z</time></trkpt><trkpt lat="48.5877682" lon="9.0058896"><ele>437.0</ele><time>2026-04-06T11:26:00.504Z</time></trkpt><trkpt lat="48.5877631" lon="9.0060078"><ele>437.0</ele><time>2026-04-06T11:26:01.504Z</time></trkpt><trkpt lat="48.5877563" lon="9.0061214"><ele>436.99999999999994</ele><time>2026-04-06T11:26:02.495Z</time></trkpt><trkpt lat="48.587747" lon="9.0062371"><ele>437.0</ele><time>2026-04-06T11:26:03.5Z</time></trkpt><trkpt lat="48.5877338" lon="9.0063511"><ele>437.0</ele><time>2026-04-06T11:26:04.506Z</time></trkpt><trkpt lat="48.5877198" lon="9.0064578"><ele>437.00000000000006</ele><time>2026-04-06T11:26:05.504Z</time></trkpt><trkpt lat="48.5876811" lon="9.0066194"><ele>437.00000000000006</ele><time>2026-04-06T11:26:07.473Z</time></trkpt><trkpt lat="48.5876427" lon="9.0067461"><ele>437.0</ele><time>2026-04-06T11:26:09.505Z</time></trkpt><trkpt lat="48.5876082" lon="9.0068726"><ele>437.0</ele><time>2026-04-06T11:26:12.498Z</time></trkpt><trkpt lat="48.5875733" lon="9.0069907"><ele>437.0</ele><time>2026-04-06T11:26:14.501Z</time></trkpt><trkpt lat="48.5875284" lon="9.0071242"><ele>437.0</ele><time>2026-04-06T11:26:16.5Z</time></trkpt><trkpt lat="48.587452" lon="9.0072819"><ele>437.0</ele><time>2026-04-06T11:26:18.506Z</time></trkpt><trkpt lat="48.5873918" lon="9.0074129"><ele>437.0</ele><time>2026-04-06T11:26:20.513Z</time></trkpt><trkpt lat="48.587323" lon="9.0075795"><ele>437.16666666666663</ele><time>2026-04-06T11:26:22.505Z</time></trkpt><trkpt lat="48.5872862" lon="9.0076685"><ele>437.3333333333333</ele><time>2026-04-06T11:26:23.498Z</time></trkpt><trkpt lat="48.5872517" lon="9.0077673"><ele>437.5</ele><time>2026-04-06T11:26:24.492Z</time></trkpt><trkpt lat="48.5872082" lon="9.007865"><ele>437.66666666666663</ele><time>2026-04-06T11:26:25.498Z</time></trkpt><trkpt lat="48.5871624" lon="9.0079834"><ele>437.8333333333333</ele><time>2026-04-06T11:26:26.497Z</time></trkpt><trkpt lat="48.5871101" lon="9.0081087"><ele>438.0</ele><time>2026-04-06T11:26:27.513Z</time></trkpt><trkpt lat="48.5870577" lon="9.0082267"><ele>437.0</ele><time>2026-04-06T11:26:28.492Z</time></trkpt><trkpt lat="48.5870081" lon="9.00834"><ele>435.99999999999994</ele><time>2026-04-06T11:26:29.51Z</time></trkpt><trkpt lat="48.5869612" lon="9.0084687"><ele>434.99999999999994</ele><time>2026-04-06T11:26:30.504Z</time></trkpt><trkpt lat="48.5869091" lon="9.0085872"><ele>434.0</ele><time>2026-04-06T11:26:31.501Z</time></trkpt><trkpt lat="48.5868635" lon="9.0087135"><ele>433.0</ele><time>2026-04-06T11:26:32.512Z</time></trkpt><trkpt lat="48.5868144" lon="9.0088419"><ele>433.00000000000006</ele><time>2026-04-06T11:26:33.489Z</time></trkpt><trkpt lat="48.5867784" lon="9.0089643"><ele>433.0</ele><time>2026-04-06T11:26:34.5Z</time></trkpt><trkpt lat="48.5867468" lon="9.0090828"><ele>433.0</ele><time>2026-04-06T11:26:35.501Z</time></trkpt><trkpt lat="48.5867176" lon="9.0092055"><ele>433.0</ele><time>2026-04-06T11:26:36.51Z</time></trkpt><trkpt lat="48.5866964" lon="9.0093285"><ele>433.00000000000006</ele><time>2026-04-06T11:26:37.512Z</time></trkpt><trkpt lat="48.5866719" lon="9.0094545"><ele>433.0</ele><time>2026-04-06T11:26:38.499Z</time></trkpt><trkpt lat="48.5866433" lon="9.0095892"><ele>433.00000000000006</ele><time>2026-04-06T11:26:39.481Z</time></trkpt><trkpt lat="48.5866167" lon="9.0097113"><ele>433.0</ele><time>2026-04-06T11:26:40.503Z</time></trkpt><trkpt lat="48.5865921" lon="9.009843"><ele>433.0</ele><time>2026-04-06T11:26:41.494Z</time></trkpt><trkpt lat="48.5865733" lon="9.0099712"><ele>433.0</ele><time>2026-04-06T11:26:42.504Z</time></trkpt><trkpt lat="48.5865546" lon="9.0101011"><ele>433.00000000000006</ele><time>2026-04-06T11:26:43.495Z</time></trkpt><trkpt lat="48.5865333" lon="9.0102295"><ele>433.0</ele><time>2026-04-06T11:26:44.477Z</time></trkpt><trkpt lat="48.5865115" lon="9.0103504"><ele>432.83333333333337</ele><time>2026-04-06T11:26:45.499Z</time></trkpt><trkpt lat="48.5864911" lon="9.0104761"><ele>432.6666666666667</ele><time>2026-04-06T11:26:46.495Z</time></trkpt><trkpt lat="48.5864686" lon="9.0106042"><ele>432.5</ele><time>2026-04-06T11:26:47.498Z</time></trkpt><trkpt lat="48.5864463" lon="9.010741"><ele>432.33333333333337</ele><time>2026-04-06T11:26:48.491Z</time></trkpt><trkpt lat="48.5864235" lon="9.0108679"><ele>432.1666666666667</ele><time>2026-04-06T11:26:49.526Z</time></trkpt><trkpt lat="48.5864008" lon="9.0110002"><ele>432.0</ele><time>2026-04-06T11:26:50.501Z</time></trkpt><trkpt lat="48.586381" lon="9.0111298"><ele>432.0</ele><time>2026-04-06T11:26:51.502Z</time></trkpt><trkpt lat="48.5863569" lon="9.0112542"><ele>432.0</ele><time>2026-04-06T11:26:52.492Z</time></trkpt><trkpt lat="48.5863368" lon="9.0113796"><ele>432.0</ele><time>2026-04-06T11:26:53.496Z</time></trkpt><trkpt lat="48.5863124" lon="9.0114956"><ele>432.0</ele><time>2026-04-06T11:26:54.507Z</time></trkpt><trkpt lat="48.5862911" lon="9.0116201"><ele>432.0</ele><time>2026-04-06T11:26:55.497Z</time></trkpt><trkpt lat="48.5862661" lon="9.0117387"><ele>432.0</ele><time>2026-04-06T11:26:56.486Z</time></trkpt><trkpt lat="48.5862481" lon="9.011862"><ele>431.8333333333333</ele><time>2026-04-06T11:26:57.493Z</time></trkpt><trkpt lat="48.5862255" lon="9.0119821"><ele>431.66666666666663</ele><time>2026-04-06T11:26:58.497Z</time></trkpt><trkpt lat="48.5862033" lon="9.0121125"><ele>431.5</ele><time>2026-04-06T11:26:59.49Z</time></trkpt><trkpt lat="48.5861767" lon="9.0122357"><ele>431.3333333333333</ele><time>2026-04-06T11:27:00.501Z</time></trkpt><trkpt lat="48.5861544" lon="9.012356"><ele>431.16666666666663</ele><time>2026-04-06T11:27:01.478Z</time></trkpt><trkpt lat="48.586135" lon="9.0124758"><ele>431.0</ele><time>2026-04-06T11:27:02.505Z</time></trkpt><trkpt lat="48.5861112" lon="9.0125939"><ele>431.3333333333333</ele><time>2026-04-06T11:27:03.524Z</time></trkpt><trkpt lat="48.5860829" lon="9.0127064"><ele>431.66666666666663</ele><time>2026-04-06T11:27:04.503Z</time></trkpt><trkpt lat="48.5860523" lon="9.0128093"><ele>432.0</ele><time>2026-04-06T11:27:05.499Z</time></trkpt><trkpt lat="48.5860175" lon="9.0129056"><ele>432.33333333333337</ele><time>2026-04-06T11:27:06.496Z</time></trkpt><trkpt lat="48.585987" lon="9.0130053"><ele>432.6666666666667</ele><time>2026-04-06T11:27:07.462Z</time></trkpt><trkpt lat="48.5859513" lon="9.0131052"><ele>433.0</ele><time>2026-04-06T11:27:08.497Z</time></trkpt><trkpt lat="48.5859026" lon="9.013202"><ele>433.00000000000006</ele><time>2026-04-06T11:27:09.51Z</time></trkpt><trkpt lat="48.5858546" lon="9.0132957"><ele>433.0</ele><time>2026-04-06T11:27:10.507Z</time></trkpt><trkpt lat="48.5858003" lon="9.0133799"><ele>433.0</ele><time>2026-04-06T11:27:11.489Z</time></trkpt><trkpt lat="48.5857419" lon="9.0134536"><ele>433.0</ele><time>2026-04-06T11:27:12.485Z</time></trkpt><trkpt lat="48.5856819" lon="9.0135353"><ele>433.00000000000006</ele><time>2026-04-06T11:27:13.503Z</time></trkpt><trkpt lat="48.5856168" lon="9.0136077"><ele>433.0</ele><time>2026-04-06T11:27:14.511Z</time></trkpt><trkpt lat="48.5855496" lon="9.0136729"><ele>432.50000000000006</ele><time>2026-04-06T11:27:15.493Z</time></trkpt><trkpt lat="48.5854849" lon="9.0137469"><ele>432.0</ele><time>2026-04-06T11:27:16.503Z</time></trkpt><trkpt lat="48.5854201" lon="9.013822"><ele>431.5</ele><time>2026-04-06T11:27:17.481Z</time></trkpt><trkpt lat="48.5853514" lon="9.0138879"><ele>431.0</ele><time>2026-04-06T11:27:18.495Z</time></trkpt><trkpt lat="48.5852867" lon="9.0139522"><ele>430.50000000000006</ele><time>2026-04-06T11:27:19.495Z</time></trkpt><trkpt lat="48.5852248" lon="9.0140252"><ele>430.0</ele><time>2026-04-06T11:27:20.505Z</time></trkpt><trkpt lat="48.5851519" lon="9.0141007"><ele>429.33333333333337</ele><time>2026-04-06T11:27:21.495Z</time></trkpt><trkpt lat="48.5850847" lon="9.0141599"><ele>428.6666666666667</ele><time>2026-04-06T11:27:22.496Z</time></trkpt><trkpt lat="48.5850133" lon="9.0142273"><ele>428.0</ele><time>2026-04-06T11:27:23.501Z</time></trkpt><trkpt lat="48.5849498" lon="9.0142874"><ele>427.33333333333337</ele><time>2026-04-06T11:27:24.49Z</time></trkpt><trkpt lat="48.5848835" lon="9.0143567"><ele>426.6666666666667</ele><time>2026-04-06T11:27:25.498Z</time></trkpt><trkpt lat="48.5848139" lon="9.0144301"><ele>426.0</ele><time>2026-04-06T11:27:26.499Z</time></trkpt><trkpt lat="48.5847483" lon="9.0145022"><ele>426.0</ele><time>2026-04-06T11:27:27.494Z</time></trkpt><trkpt lat="48.5846829" lon="9.0145837"><ele>426.0</ele><time>2026-04-06T11:27:28.501Z</time></trkpt><trkpt lat="48.5846167" lon="9.0146584"><ele>426.0</ele><time>2026-04-06T11:27:29.492Z</time></trkpt><trkpt lat="48.5845482" lon="9.0147371"><ele>426.0</ele><time>2026-04-06T11:27:30.497Z</time></trkpt><trkpt lat="48.5844804" lon="9.0148157"><ele>426.0</ele><time>2026-04-06T11:27:31.486Z</time></trkpt><trkpt lat="48.5844112" lon="9.0148987"><ele>426.0</ele><time>2026-04-06T11:27:32.483Z</time></trkpt><trkpt lat="48.5843375" lon="9.0149746"><ele>425.3333333333333</ele><time>2026-04-06T11:27:33.456Z</time></trkpt><trkpt lat="48.5842707" lon="9.0150525"><ele>424.66666666666663</ele><time>2026-04-06T11:27:34.499Z</time></trkpt><trkpt lat="48.5842023" lon="9.0151244"><ele>424.0</ele><time>2026-04-06T11:27:35.498Z</time></trkpt><trkpt lat="48.5841353" lon="9.015204"><ele>423.3333333333333</ele><time>2026-04-06T11:27:36.478Z</time></trkpt><trkpt lat="48.5840676" lon="9.0152789"><ele>422.66666666666663</ele><time>2026-04-06T11:27:37.476Z</time></trkpt><trkpt lat="48.5839971" lon="9.0153536"><ele>422.0</ele><time>2026-04-06T11:27:38.498Z</time></trkpt><trkpt lat="48.5839262" lon="9.01543"><ele>421.99999999999994</ele><time>2026-04-06T11:27:39.498Z</time></trkpt><trkpt lat="48.5838568" lon="9.0155103"><ele>422.0</ele><time>2026-04-06T11:27:40.496Z</time></trkpt><trkpt lat="48.583784" lon="9.0155926"><ele>422.0</ele><time>2026-04-06T11:27:41.507Z</time></trkpt><trkpt lat="48.5837094" lon="9.015669"><ele>422.0</ele><time>2026-04-06T11:27:42.497Z</time></trkpt><trkpt lat="48.5836389" lon="9.0157491"><ele>421.99999999999994</ele><time>2026-04-06T11:27:43.499Z</time></trkpt><trkpt lat="48.5835688" lon="9.015838"><ele>422.0</ele><time>2026-04-06T11:27:44.506Z</time></trkpt><trkpt lat="48.5834966" lon="9.0159226"><ele>422.40000000000003</ele><time>2026-04-06T11:27:45.496Z</time></trkpt><trkpt lat="48.5834253" lon="9.0160188"><ele>422.8</ele><time>2026-04-06T11:27:46.474Z</time></trkpt><trkpt lat="48.5833615" lon="9.0161112"><ele>423.2</ele><time>2026-04-06T11:27:47.496Z</time></trkpt><trkpt lat="48.5832903" lon="9.0162066"><ele>423.6</ele><time>2026-04-06T11:27:48.505Z</time></trkpt><trkpt lat="48.5832202" lon="9.0163023"><ele>424.0</ele><time>2026-04-06T11:27:49.504Z</time></trkpt><trkpt lat="48.583155" lon="9.0163897"><ele>424.00000000000006</ele><time>2026-04-06T11:27:50.498Z</time></trkpt><trkpt lat="48.5830925" lon="9.0164835"><ele>424.0</ele><time>2026-04-06T11:27:51.469Z</time></trkpt><trkpt lat="48.5830299" lon="9.0165784"><ele>424.0</ele><time>2026-04-06T11:27:52.515Z</time></trkpt><trkpt lat="48.5829669" lon="9.0166758"><ele>424.0</ele><time>2026-04-06T11:27:53.484Z</time></trkpt><trkpt lat="48.5829049" lon="9.0167597"><ele>424.00000000000006</ele><time>2026-04-06T11:27:54.506Z</time></trkpt><trkpt lat="48.5828396" lon="9.016845"><ele>424.0</ele><time>2026-04-06T11:27:55.5Z</time></trkpt><trkpt lat="48.5827798" lon="9.0169346"><ele>425.83333333333337</ele><time>2026-04-06T11:27:56.496Z</time></trkpt><trkpt lat="48.5827156" lon="9.0170209"><ele>427.6666666666667</ele><time>2026-04-06T11:27:57.462Z</time></trkpt><trkpt lat="48.5826555" lon="9.017101"><ele>429.5</ele><time>2026-04-06T11:27:58.499Z</time></trkpt><trkpt lat="48.582593" lon="9.0171978"><ele>431.33333333333337</ele><time>2026-04-06T11:27:59.5Z</time></trkpt><trkpt lat="48.5825375" lon="9.0172901"><ele>433.1666666666667</ele><time>2026-04-06T11:28:00.506Z</time></trkpt><trkpt lat="48.5824727" lon="9.017372"><ele>435.0</ele><time>2026-04-06T11:28:01.508Z</time></trkpt><trkpt lat="48.5824119" lon="9.0174534"><ele>434.8</ele><time>2026-04-06T11:28:02.515Z</time></trkpt><trkpt lat="48.5823382" lon="9.0175488"><ele>434.6</ele><time>2026-04-06T11:28:03.497Z</time></trkpt><trkpt lat="48.5822619" lon="9.0176356"><ele>434.4</ele><time>2026-04-06T11:28:04.515Z</time></trkpt><trkpt lat="48.5821898" lon="9.0177363"><ele>434.2</ele><time>2026-04-06T11:28:05.52Z</time></trkpt><trkpt lat="48.5821119" lon="9.017834"><ele>434.0</ele><time>2026-04-06T11:28:06.5Z</time></trkpt><trkpt lat="48.5820414" lon="9.0179273"><ele>434.16666666666663</ele><time>2026-04-06T11:28:07.518Z</time></trkpt><trkpt lat="48.5819735" lon="9.0180176"><ele>434.3333333333333</ele><time>2026-04-06T11:28:08.506Z</time></trkpt><trkpt lat="48.5819072" lon="9.0181121"><ele>434.5</ele><time>2026-04-06T11:28:09.526Z</time></trkpt><trkpt lat="48.5818408" lon="9.0182065"><ele>434.66666666666663</ele><time>2026-04-06T11:28:10.487Z</time></trkpt><trkpt lat="48.5817749" lon="9.0182934"><ele>434.8333333333333</ele><time>2026-04-06T11:28:11.515Z</time></trkpt><trkpt lat="48.5817093" lon="9.0183842"><ele>435.0</ele><time>2026-04-06T11:28:12.509Z</time></trkpt><trkpt lat="48.5816485" lon="9.0184718"><ele>435.0</ele><time>2026-04-06T11:28:13.503Z</time></trkpt><trkpt lat="48.5815834" lon="9.0185671"><ele>435.0</ele><time>2026-04-06T11:28:14.483Z</time></trkpt><trkpt lat="48.581512" lon="9.0186613"><ele>435.0</ele><time>2026-04-06T11:28:15.523Z</time></trkpt><trkpt lat="48.5814479" lon="9.0187593"><ele>435.0</ele><time>2026-04-06T11:28:16.472Z</time></trkpt><trkpt lat="48.5813866" lon="9.0188486"><ele>435.0</ele><time>2026-04-06T11:28:17.513Z</time></trkpt><trkpt lat="48.5813198" lon="9.0189478"><ele>435.0</ele><time>2026-04-06T11:28:18.489Z</time></trkpt><trkpt lat="48.5812606" lon="9.0190561"><ele>435.0</ele><time>2026-04-06T11:28:19.489Z</time></trkpt><trkpt lat="48.5812074" lon="9.0191681"><ele>435.0</ele><time>2026-04-06T11:28:20.484Z</time></trkpt><trkpt lat="48.5811579" lon="9.0192763"><ele>435.0</ele><time>2026-04-06T11:28:21.491Z</time></trkpt><trkpt lat="48.581108" lon="9.0193876"><ele>435.0</ele><time>2026-04-06T11:28:22.503Z</time></trkpt><trkpt lat="48.5810598" lon="9.0195125"><ele>434.6</ele><time>2026-04-06T11:28:23.498Z</time></trkpt><trkpt lat="48.5810157" lon="9.0196413"><ele>434.2</ele><time>2026-04-06T11:28:24.5Z</time></trkpt><trkpt lat="48.5809757" lon="9.0197658"><ele>433.79999999999995</ele><time>2026-04-06T11:28:25.502Z</time></trkpt><trkpt lat="48.5809344" lon="9.0198883"><ele>433.4</ele><time>2026-04-06T11:28:26.499Z</time></trkpt><trkpt lat="48.5808859" lon="9.0199947"><ele>433.0</ele><time>2026-04-06T11:28:27.508Z</time></trkpt><trkpt lat="48.5808438" lon="9.0201121"><ele>432.6666666666667</ele><time>2026-04-06T11:28:28.5Z</time></trkpt><trkpt lat="48.5807968" lon="9.0202264"><ele>432.33333333333337</ele><time>2026-04-06T11:28:29.512Z</time></trkpt><trkpt lat="48.5807514" lon="9.0203347"><ele>432.0</ele><time>2026-04-06T11:28:30.504Z</time></trkpt><trkpt lat="48.5807073" lon="9.0204447"><ele>431.66666666666663</ele><time>2026-04-06T11:28:31.501Z</time></trkpt><trkpt lat="48.5806668" lon="9.0205557"><ele>431.3333333333333</ele><time>2026-04-06T11:28:32.513Z</time></trkpt><trkpt lat="48.5806228" lon="9.020665"><ele>431.0</ele><time>2026-04-06T11:28:33.491Z</time></trkpt><trkpt lat="48.5805791" lon="9.0207712"><ele>431.49999999999994</ele><time>2026-04-06T11:28:34.492Z</time></trkpt><trkpt lat="48.5805329" lon="9.0208751"><ele>432.0</ele><time>2026-04-06T11:28:35.489Z</time></trkpt><trkpt lat="48.5804832" lon="9.0209704"><ele>432.5</ele><time>2026-04-06T11:28:36.502Z</time></trkpt><trkpt lat="48.5804276" lon="9.0210644"><ele>433.0</ele><time>2026-04-06T11:28:37.473Z</time></trkpt><trkpt lat="48.5803683" lon="9.0211554"><ele>433.49999999999994</ele><time>2026-04-06T11:28:38.495Z</time></trkpt><trkpt lat="48.5802995" lon="9.0212369"><ele>434.0</ele><time>2026-04-06T11:28:39.495Z</time></trkpt><trkpt lat="48.5802232" lon="9.0213026"><ele>433.99999999999994</ele><time>2026-04-06T11:28:40.495Z</time></trkpt><trkpt lat="48.5801409" lon="9.0213549"><ele>434.0</ele><time>2026-04-06T11:28:41.5Z</time></trkpt><trkpt lat="48.5800565" lon="9.0213924"><ele>434.0</ele><time>2026-04-06T11:28:42.489Z</time></trkpt><trkpt lat="48.5799774" lon="9.0214376"><ele>434.0</ele><time>2026-04-06T11:28:43.493Z</time></trkpt><trkpt lat="48.579895" lon="9.0214773"><ele>433.99999999999994</ele><time>2026-04-06T11:28:44.498Z</time></trkpt><trkpt lat="48.5798164" lon="9.0215345"><ele>434.0</ele><time>2026-04-06T11:28:45.491Z</time></trkpt><trkpt lat="48.5797485" lon="9.0216045"><ele>433.2</ele><time>2026-04-06T11:28:46.505Z</time></trkpt><trkpt lat="48.5796896" lon="9.021691"><ele>432.4</ele><time>2026-04-06T11:28:47.498Z</time></trkpt><trkpt lat="48.5796393" lon="9.0218015"><ele>431.6</ele><time>2026-04-06T11:28:48.502Z</time></trkpt><trkpt lat="48.5795964" lon="9.0219308"><ele>430.8</ele><time>2026-04-06T11:28:49.479Z</time></trkpt><trkpt lat="48.5795552" lon="9.0220565"><ele>430.0</ele><time>2026-04-06T11:28:50.507Z</time></trkpt><trkpt lat="48.5795248" lon="9.0221926"><ele>430.0</ele><time>2026-04-06T11:28:51.511Z</time></trkpt><trkpt lat="48.5795246" lon="9.0223313"><ele>430.0</ele><time>2026-04-06T11:28:52.52Z</time></trkpt><trkpt lat="48.5795279" lon="9.0224791"><ele>430.0</ele><time>2026-04-06T11:28:53.499Z</time></trkpt><trkpt lat="48.5795562" lon="9.0226209"><ele>430.0</ele><time>2026-04-06T11:28:54.497Z</time></trkpt><trkpt lat="48.5795753" lon="9.0227533"><ele>430.0</ele><time>2026-04-06T11:28:55.491Z</time></trkpt><trkpt lat="48.5795848" lon="9.0228912"><ele>430.50000000000006</ele><time>2026-04-06T11:28:56.5Z</time></trkpt><trkpt lat="48.5795889" lon="9.0230294"><ele>431.0</ele><time>2026-04-06T11:28:57.506Z</time></trkpt><trkpt lat="48.5795738" lon="9.0231649"><ele>431.5</ele><time>2026-04-06T11:28:58.504Z</time></trkpt><trkpt lat="48.5795464" lon="9.0232956"><ele>432.0</ele><time>2026-04-06T11:28:59.49Z</time></trkpt><trkpt lat="48.57951" lon="9.0234104"><ele>432.50000000000006</ele><time>2026-04-06T11:29:00.504Z</time></trkpt><trkpt lat="48.5794557" lon="9.0235012"><ele>433.0</ele><time>2026-04-06T11:29:01.502Z</time></trkpt><trkpt lat="48.5793865" lon="9.0235902"><ele>432.00000000000006</ele><time>2026-04-06T11:29:02.497Z</time></trkpt><trkpt lat="48.5793247" lon="9.0236809"><ele>431.0</ele><time>2026-04-06T11:29:03.501Z</time></trkpt><trkpt lat="48.5792624" lon="9.023765"><ele>430.0</ele><time>2026-04-06T11:29:04.502Z</time></trkpt><trkpt lat="48.5792096" lon="9.0238518"><ele>429.0</ele><time>2026-04-06T11:29:05.497Z</time></trkpt><trkpt lat="48.5791523" lon="9.0239347"><ele>428.00000000000006</ele><time>2026-04-06T11:29:06.498Z</time></trkpt><trkpt lat="48.5791008" lon="9.0240211"><ele>427.0</ele><time>2026-04-06T11:29:07.472Z</time></trkpt><trkpt lat="48.5790547" lon="9.0241191"><ele>426.50000000000006</ele><time>2026-04-06T11:29:08.486Z</time></trkpt><trkpt lat="48.5790172" lon="9.0242256"><ele>426.0</ele><time>2026-04-06T11:29:09.501Z</time></trkpt><trkpt lat="48.5789795" lon="9.0243397"><ele>425.5</ele><time>2026-04-06T11:29:10.491Z</time></trkpt><trkpt lat="48.578954" lon="9.0244559"><ele>425.0</ele><time>2026-04-06T11:29:11.505Z</time></trkpt><trkpt lat="48.5789306" lon="9.0245663"><ele>424.50000000000006</ele><time>2026-04-06T11:29:12.477Z</time></trkpt><trkpt lat="48.5789095" lon="9.0246816"><ele>424.0</ele><time>2026-04-06T11:29:13.493Z</time></trkpt><trkpt lat="48.5788897" lon="9.024799"><ele>424.00000000000006</ele><time>2026-04-06T11:29:14.47Z</time></trkpt><trkpt lat="48.5788723" lon="9.0249185"><ele>424.0</ele><time>2026-04-06T11:29:15.496Z</time></trkpt><trkpt lat="48.5788566" lon="9.0250402"><ele>424.0</ele><time>2026-04-06T11:29:16.491Z</time></trkpt><trkpt lat="48.5788284" lon="9.0251619"><ele>424.0</ele><time>2026-04-06T11:29:17.498Z</time></trkpt><trkpt lat="48.578797" lon="9.0252792"><ele>424.00000000000006</ele><time>2026-04-06T11:29:18.479Z</time></trkpt><trkpt lat="48.5787577" lon="9.0253822"><ele>424.0</ele><time>2026-04-06T11:29:19.512Z</time></trkpt><trkpt lat="48.5787113" lon="9.0254883"><ele>423.1666666666667</ele><time>2026-04-06T11:29:20.487Z</time></trkpt><trkpt lat="48.5786656" lon="9.0255997"><ele>422.33333333333337</ele><time>2026-04-06T11:29:21.494Z</time></trkpt><trkpt lat="48.5786306" lon="9.0257131"><ele>421.5</ele><time>2026-04-06T11:29:22.45Z</time></trkpt><trkpt lat="48.5786075" lon="9.0258417"><ele>420.66666666666663</ele><time>2026-04-06T11:29:23.492Z</time></trkpt><trkpt lat="48.5786135" lon="9.0259755"><ele>419.8333333333333</ele><time>2026-04-06T11:29:24.492Z</time></trkpt><trkpt lat="48.5786457" lon="9.0261143"><ele>419.0</ele><time>2026-04-06T11:29:25.492Z</time></trkpt><trkpt lat="48.5786634" lon="9.0262392"><ele>420.66666666666663</ele><time>2026-04-06T11:29:26.493Z</time></trkpt><trkpt lat="48.5786923" lon="9.0263668"><ele>422.3333333333333</ele><time>2026-04-06T11:29:27.5Z</time></trkpt><trkpt lat="48.5787178" lon="9.0264919"><ele>424.0</ele><time>2026-04-06T11:29:28.498Z</time></trkpt><trkpt lat="48.5787371" lon="9.0266147"><ele>425.66666666666663</ele><time>2026-04-06T11:29:29.504Z</time></trkpt><trkpt lat="48.578755" lon="9.0267411"><ele>427.3333333333333</ele><time>2026-04-06T11:29:30.496Z</time></trkpt><trkpt lat="48.5787684" lon="9.0268672"><ele>429.0</ele><time>2026-04-06T11:29:31.518Z</time></trkpt><trkpt lat="48.5787766" lon="9.0269973"><ele>429.0</ele><time>2026-04-06T11:29:32.474Z</time></trkpt><trkpt lat="48.5787751" lon="9.0271389"><ele>429.0</ele><time>2026-04-06T11:29:33.512Z</time></trkpt><trkpt lat="48.5787646" lon="9.0272747"><ele>429.0</ele><time>2026-04-06T11:29:34.499Z</time></trkpt><trkpt lat="48.5787474" lon="9.0274065"><ele>429.0</ele><time>2026-04-06T11:29:35.493Z</time></trkpt><trkpt lat="48.5787239" lon="9.0275374"><ele>429.0</ele><time>2026-04-06T11:29:36.514Z</time></trkpt><trkpt lat="48.5787012" lon="9.0276677"><ele>426.2</ele><time>2026-04-06T11:29:37.522Z</time></trkpt><trkpt lat="48.5786789" lon="9.0277985"><ele>423.4</ele><time>2026-04-06T11:29:38.507Z</time></trkpt><trkpt lat="48.5786566" lon="9.0279288"><ele>420.6</ele><time>2026-04-06T11:29:39.509Z</time></trkpt><trkpt lat="48.5786275" lon="9.0280596"><ele>417.8</ele><time>2026-04-06T11:29:40.502Z</time></trkpt><trkpt lat="48.5785998" lon="9.0281939"><ele>415.0</ele><time>2026-04-06T11:29:41.527Z</time></trkpt><trkpt lat="48.5785808" lon="9.0283325"><ele>415.0</ele><time>2026-04-06T11:29:42.497Z</time></trkpt><trkpt lat="48.5785539" lon="9.0284631"><ele>415.0</ele><time>2026-04-06T11:29:43.503Z</time></trkpt><trkpt lat="48.5785301" lon="9.0285952"><ele>415.0</ele><time>2026-04-06T11:29:44.491Z</time></trkpt><trkpt lat="48.5785059" lon="9.0287294"><ele>415.0</ele><time>2026-04-06T11:29:45.48Z</time></trkpt><trkpt lat="48.5784826" lon="9.0288637"><ele>415.0</ele><time>2026-04-06T11:29:46.501Z</time></trkpt><trkpt lat="48.5784565" lon="9.0290018"><ele>415.0</ele><time>2026-04-06T11:29:47.506Z</time></trkpt><trkpt lat="48.5784302" lon="9.0291384"><ele>415.0</ele><time>2026-04-06T11:29:48.52Z</time></trkpt><trkpt lat="48.5784053" lon="9.029279"><ele>415.0</ele><time>2026-04-06T11:29:49.51Z</time></trkpt><trkpt lat="48.5783806" lon="9.0294268"><ele>415.0</ele><time>2026-04-06T11:29:50.49Z</time></trkpt><trkpt lat="48.5783546" lon="9.0295714"><ele>415.0</ele><time>2026-04-06T11:29:51.509Z</time></trkpt><trkpt lat="48.578327" lon="9.0297218"><ele>414.4</ele><time>2026-04-06T11:29:52.514Z</time></trkpt><trkpt lat="48.578298" lon="9.0298598"><ele>413.8</ele><time>2026-04-06T11:29:53.501Z</time></trkpt><trkpt lat="48.5782716" lon="9.0300001"><ele>413.20000000000005</ele><time>2026-04-06T11:29:54.495Z</time></trkpt><trkpt lat="48.5782444" lon="9.03014"><ele>412.6</ele><time>2026-04-06T11:29:55.511Z</time></trkpt><trkpt lat="48.578216" lon="9.0302866"><ele>412.0</ele><time>2026-04-06T11:29:56.505Z</time></trkpt><trkpt lat="48.5781891" lon="9.0304259"><ele>411.6666666666667</ele><time>2026-04-06T11:29:57.506Z</time></trkpt><trkpt lat="48.5781651" lon="9.0305623"><ele>411.33333333333337</ele><time>2026-04-06T11:29:58.498Z</time></trkpt><trkpt lat="48.5781395" lon="9.0307004"><ele>411.0</ele><time>2026-04-06T11:29:59.509Z</time></trkpt><trkpt lat="48.5781157" lon="9.0308259"><ele>410.66666666666663</ele><time>2026-04-06T11:30:00.497Z</time></trkpt><trkpt lat="48.5780903" lon="9.0309452"><ele>410.3333333333333</ele><time>2026-04-06T11:30:01.507Z</time></trkpt><trkpt lat="48.5780602" lon="9.0310716"><ele>410.0</ele><time>2026-04-06T11:30:02.5Z</time></trkpt><trkpt lat="48.5780267" lon="9.0311948"><ele>410.0</ele><time>2026-04-06T11:30:03.512Z</time></trkpt><trkpt lat="48.577981" lon="9.0313109"><ele>410.0</ele><time>2026-04-06T11:30:04.504Z</time></trkpt><trkpt lat="48.5779264" lon="9.0314338"><ele>410.0</ele><time>2026-04-06T11:30:05.499Z</time></trkpt><trkpt lat="48.5778662" lon="9.0315412"><ele>410.0</ele><time>2026-04-06T11:30:06.492Z</time></trkpt><trkpt lat="48.5778025" lon="9.0316566"><ele>410.0</ele><time>2026-04-06T11:30:07.51Z</time></trkpt><trkpt lat="48.5777412" lon="9.0317697"><ele>408.0</ele><time>2026-04-06T11:30:08.493Z</time></trkpt><trkpt lat="48.5776805" lon="9.0318758"><ele>406.0</ele><time>2026-04-06T11:30:09.513Z</time></trkpt><trkpt lat="48.5776217" lon="9.0319892"><ele>404.0</ele><time>2026-04-06T11:30:10.497Z</time></trkpt><trkpt lat="48.5775649" lon="9.0321083"><ele>402.0</ele><time>2026-04-06T11:30:11.506Z</time></trkpt><trkpt lat="48.5775096" lon="9.0322196"><ele>400.0</ele><time>2026-04-06T11:30:12.506Z</time></trkpt><trkpt lat="48.5774546" lon="9.0323311"><ele>400.0</ele><time>2026-04-06T11:30:13.503Z</time></trkpt><trkpt lat="48.5773982" lon="9.032447"><ele>400.0</ele><time>2026-04-06T11:30:14.51Z</time></trkpt><trkpt lat="48.5773452" lon="9.0325565"><ele>400.0</ele><time>2026-04-06T11:30:15.503Z</time></trkpt><trkpt lat="48.5772948" lon="9.0326616"><ele>400.0</ele><time>2026-04-06T11:30:16.499Z</time></trkpt><trkpt lat="48.5772454" lon="9.0327751"><ele>400.0</ele><time>2026-04-06T11:30:17.506Z</time></trkpt><trkpt lat="48.5771923" lon="9.0328833"><ele>400.33333333333337</ele><time>2026-04-06T11:30:18.501Z</time></trkpt><trkpt lat="48.5771431" lon="9.0329931"><ele>400.6666666666667</ele><time>2026-04-06T11:30:19.499Z</time></trkpt><trkpt lat="48.5770927" lon="9.0331087"><ele>401.0</ele><time>2026-04-06T11:30:20.499Z</time></trkpt><trkpt lat="48.5770406" lon="9.0332163"><ele>401.33333333333337</ele><time>2026-04-06T11:30:21.499Z</time></trkpt><trkpt lat="48.5769957" lon="9.0333284"><ele>401.6666666666667</ele><time>2026-04-06T11:30:22.509Z</time></trkpt><trkpt lat="48.5769535" lon="9.0334457"><ele>402.0</ele><time>2026-04-06T11:30:23.512Z</time></trkpt><trkpt lat="48.5769141" lon="9.0335573"><ele>401.5</ele><time>2026-04-06T11:30:24.491Z</time></trkpt><trkpt lat="48.5768746" lon="9.0336621"><ele>401.0</ele><time>2026-04-06T11:30:25.513Z</time></trkpt><trkpt lat="48.5768285" lon="9.03377"><ele>400.5</ele><time>2026-04-06T11:30:26.508Z</time></trkpt><trkpt lat="48.5767914" lon="9.0338712"><ele>400.0</ele><time>2026-04-06T11:30:27.516Z</time></trkpt><trkpt lat="48.576753" lon="9.0339737"><ele>399.5</ele><time>2026-04-06T11:30:28.505Z</time></trkpt><trkpt lat="48.5767179" lon="9.0340711"><ele>399.0</ele><time>2026-04-06T11:30:29.511Z</time></trkpt><trkpt lat="48.5766866" lon="9.034162"><ele>399.0</ele><time>2026-04-06T11:30:30.509Z</time></trkpt><trkpt lat="48.5766585" lon="9.0342556"><ele>399.0</ele><time>2026-04-06T11:30:31.493Z</time></trkpt><trkpt lat="48.5766306" lon="9.0343503"><ele>399.0</ele><time>2026-04-06T11:30:32.509Z</time></trkpt><trkpt lat="48.5766002" lon="9.03445"><ele>399.0</ele><time>2026-04-06T11:30:33.486Z</time></trkpt><trkpt lat="48.5765693" lon="9.0345423"><ele>399.0</ele><time>2026-04-06T11:30:34.489Z</time></trkpt><trkpt lat="48.5765339" lon="9.0346363"><ele>399.0</ele><time>2026-04-06T11:30:35.492Z</time></trkpt><trkpt lat="48.5764964" lon="9.0347417"><ele>399.0</ele><time>2026-04-06T11:30:36.465Z</time></trkpt><trkpt lat="48.5764496" lon="9.0348507"><ele>399.0</ele><time>2026-04-06T11:30:37.5Z</time></trkpt><trkpt lat="48.5764111" lon="9.0349554"><ele>399.0</ele><time>2026-04-06T11:30:38.491Z</time></trkpt><trkpt lat="48.576371" lon="9.0350555"><ele>399.0</ele><time>2026-04-06T11:30:39.498Z</time></trkpt><trkpt lat="48.5763373" lon="9.035164"><ele>399.0</ele><time>2026-04-06T11:30:40.482Z</time></trkpt><trkpt lat="48.5762968" lon="9.0352667"><ele>399.0</ele><time>2026-04-06T11:30:41.498Z</time></trkpt><trkpt lat="48.5762525" lon="9.0353559"><ele>399.0</ele><time>2026-04-06T11:30:42.494Z</time></trkpt><trkpt lat="48.5761962" lon="9.0354335"><ele>398.5</ele><time>2026-04-06T11:30:43.481Z</time></trkpt><trkpt lat="48.5761246" lon="9.0354993"><ele>398.0</ele><time>2026-04-06T11:30:44.502Z</time></trkpt><trkpt lat="48.5760559" lon="9.0355376"><ele>397.5</ele><time>2026-04-06T11:30:45.497Z</time></trkpt><trkpt lat="48.575983" lon="9.035549"><ele>397.0</ele><time>2026-04-06T11:30:46.499Z</time></trkpt><trkpt lat="48.5759032" lon="9.0355563"><ele>396.5</ele><time>2026-04-06T11:30:47.47Z</time></trkpt><trkpt lat="48.5758201" lon="9.0355556"><ele>396.0</ele><time>2026-04-06T11:30:48.496Z</time></trkpt><trkpt lat="48.5757368" lon="9.0355454"><ele>396.0</ele><time>2026-04-06T11:30:49.481Z</time></trkpt><trkpt lat="48.5756514" lon="9.0355192"><ele>396.0</ele><time>2026-04-06T11:30:50.504Z</time></trkpt><trkpt lat="48.575571" lon="9.0354888"><ele>396.0</ele><time>2026-04-06T11:30:51.495Z</time></trkpt><trkpt lat="48.57549" lon="9.0354552"><ele>396.0</ele><time>2026-04-06T11:30:52.5Z</time></trkpt><trkpt lat="48.5754101" lon="9.0354221"><ele>396.0</ele><time>2026-04-06T11:30:53.497Z</time></trkpt><trkpt lat="48.5753314" lon="9.0353884"><ele>396.0</ele><time>2026-04-06T11:30:54.487Z</time></trkpt><trkpt lat="48.5752592" lon="9.0353495"><ele>396.0</ele><time>2026-04-06T11:30:55.497Z</time></trkpt><trkpt lat="48.5751848" lon="9.03531"><ele>396.0</ele><time>2026-04-06T11:30:56.496Z</time></trkpt><trkpt lat="48.5751106" lon="9.0352744"><ele>396.0</ele><time>2026-04-06T11:30:57.477Z</time></trkpt><trkpt lat="48.5750335" lon="9.0352346"><ele>396.0</ele><time>2026-04-06T11:30:58.51Z</time></trkpt><trkpt lat="48.5749574" lon="9.0351944"><ele>396.0</ele><time>2026-04-06T11:30:59.453Z</time></trkpt><trkpt lat="48.5748847" lon="9.035158"><ele>396.0</ele><time>2026-04-06T11:31:00.484Z</time></trkpt><trkpt lat="48.5748107" lon="9.0351201"><ele>396.0</ele><time>2026-04-06T11:31:01.488Z</time></trkpt><trkpt lat="48.5747353" lon="9.0350818"><ele>396.0</ele><time>2026-04-06T11:31:02.492Z</time></trkpt><trkpt lat="48.5746597" lon="9.0350485"><ele>396.0</ele><time>2026-04-06T11:31:03.48Z</time></trkpt><trkpt lat="48.5745862" lon="9.0350199"><ele>396.0</ele><time>2026-04-06T11:31:04.493Z</time></trkpt><trkpt lat="48.5745156" lon="9.0349897"><ele>396.0</ele><time>2026-04-06T11:31:05.502Z</time></trkpt><trkpt lat="48.574456" lon="9.0349577"><ele>396.0</ele><time>2026-04-06T11:31:06.495Z</time></trkpt><trkpt lat="48.5743925" lon="9.0349078"><ele>396.0</ele><time>2026-04-06T11:31:08.496Z</time></trkpt><trkpt lat="48.5743282" lon="9.0348613"><ele>396.3333333333333</ele><time>2026-04-06T11:31:13.49Z</time></trkpt><trkpt lat="48.574267" lon="9.0348178"><ele>396.66666666666663</ele><time>2026-04-06T11:31:21.473Z</time></trkpt><trkpt lat="48.5741871" lon="9.0347764"><ele>397.0</ele><time>2026-04-06T11:31:30.506Z</time></trkpt><trkpt lat="48.5740936" lon="9.0347434"><ele>397.3333333333333</ele><time>2026-04-06T11:31:33.505Z</time></trkpt><trkpt lat="48.5740019" lon="9.0346989"><ele>397.66666666666663</ele><time>2026-04-06T11:31:35.496Z</time></trkpt><trkpt lat="48.5739391" lon="9.0346826"><ele>398.0</ele><time>2026-04-06T11:31:36.5Z</time></trkpt><trkpt lat="48.5738242" lon="9.0346243"><ele>397.99999999999994</ele><time>2026-04-06T11:31:38.498Z</time></trkpt><trkpt lat="48.5737589" lon="9.0345995"><ele>398.0</ele><time>2026-04-06T11:31:39.493Z</time></trkpt><trkpt lat="48.5736881" lon="9.0345863"><ele>398.0</ele><time>2026-04-06T11:31:40.491Z</time></trkpt><trkpt lat="48.5736178" lon="9.0345853"><ele>398.0</ele><time>2026-04-06T11:31:41.519Z</time></trkpt><trkpt lat="48.5735458" lon="9.0345891"><ele>398.0</ele><time>2026-04-06T11:31:42.5Z</time></trkpt><trkpt lat="48.5734694" lon="9.0345952"><ele>397.99999999999994</ele><time>2026-04-06T11:31:43.5Z</time></trkpt><trkpt lat="48.5733903" lon="9.0346088"><ele>398.0</ele><time>2026-04-06T11:31:44.498Z</time></trkpt><trkpt lat="48.57331" lon="9.0346152"><ele>398.16666666666663</ele><time>2026-04-06T11:31:45.509Z</time></trkpt><trkpt lat="48.5732264" lon="9.0346149"><ele>398.3333333333333</ele><time>2026-04-06T11:31:46.491Z</time></trkpt><trkpt lat="48.5731484" lon="9.0346189"><ele>398.5</ele><time>2026-04-06T11:31:47.487Z</time></trkpt><trkpt lat="48.5730713" lon="9.0346262"><ele>398.66666666666663</ele><time>2026-04-06T11:31:48.502Z</time></trkpt><trkpt lat="48.5729908" lon="9.0346322"><ele>398.8333333333333</ele><time>2026-04-06T11:31:49.503Z</time></trkpt><trkpt lat="48.5729174" lon="9.0346409"><ele>399.0</ele><time>2026-04-06T11:31:50.493Z</time></trkpt><trkpt lat="48.5728365" lon="9.0346359"><ele>399.5</ele><time>2026-04-06T11:31:51.506Z</time></trkpt><trkpt lat="48.5727587" lon="9.0346244"><ele>400.0</ele><time>2026-04-06T11:31:52.464Z</time></trkpt><trkpt lat="48.5726786" lon="9.0346128"><ele>400.5</ele><time>2026-04-06T11:31:53.491Z</time></trkpt><trkpt lat="48.5725988" lon="9.0345802"><ele>401.0</ele><time>2026-04-06T11:31:54.488Z</time></trkpt><trkpt lat="48.5725214" lon="9.0345229"><ele>401.5</ele><time>2026-04-06T11:31:55.494Z</time></trkpt><trkpt lat="48.5724517" lon="9.0344711"><ele>402.0</ele><time>2026-04-06T11:31:56.498Z</time></trkpt><trkpt lat="48.5723805" lon="9.0344089"><ele>402.0</ele><time>2026-04-06T11:31:57.496Z</time></trkpt><trkpt lat="48.5723105" lon="9.034351"><ele>402.0</ele><time>2026-04-06T11:31:58.498Z</time></trkpt><trkpt lat="48.5722358" lon="9.0342839"><ele>402.0</ele><time>2026-04-06T11:31:59.5Z</time></trkpt><trkpt lat="48.5721636" lon="9.0342131"><ele>402.0</ele><time>2026-04-06T11:32:00.498Z</time></trkpt><trkpt lat="48.5720966" lon="9.034153"><ele>402.0</ele><time>2026-04-06T11:32:01.476Z</time></trkpt><trkpt lat="48.5720245" lon="9.0340852"><ele>402.0</ele><time>2026-04-06T11:32:02.493Z</time></trkpt><trkpt lat="48.5719576" lon="9.0340186"><ele>403.0</ele><time>2026-04-06T11:32:03.49Z</time></trkpt><trkpt lat="48.5718807" lon="9.0339542"><ele>404.0</ele><time>2026-04-06T11:32:04.503Z</time></trkpt><trkpt lat="48.5718065" lon="9.0338978"><ele>405.0</ele><time>2026-04-06T11:32:05.517Z</time></trkpt><trkpt lat="48.5717276" lon="9.0338418"><ele>406.0</ele><time>2026-04-06T11:32:06.493Z</time></trkpt><trkpt lat="48.5716465" lon="9.0337897"><ele>407.0</ele><time>2026-04-06T11:32:07.503Z</time></trkpt><trkpt lat="48.5715613" lon="9.0337415"><ele>408.0</ele><time>2026-04-06T11:32:08.495Z</time></trkpt><trkpt lat="48.571479" lon="9.0336956"><ele>408.0</ele><time>2026-04-06T11:32:09.508Z</time></trkpt><trkpt lat="48.5713941" lon="9.0336552"><ele>408.0</ele><time>2026-04-06T11:32:10.499Z</time></trkpt><trkpt lat="48.5713042" lon="9.0336251"><ele>408.0</ele><time>2026-04-06T11:32:11.504Z</time></trkpt><trkpt lat="48.5712194" lon="9.0336046"><ele>408.0</ele><time>2026-04-06T11:32:12.488Z</time></trkpt><trkpt lat="48.5711307" lon="9.0335972"><ele>408.0</ele><time>2026-04-06T11:32:13.492Z</time></trkpt><trkpt lat="48.5710415" lon="9.0335925"><ele>408.0</ele><time>2026-04-06T11:32:14.5Z</time></trkpt><trkpt lat="48.570961" lon="9.033592"><ele>407.6666666666667</ele><time>2026-04-06T11:32:15.504Z</time></trkpt><trkpt lat="48.5708777" lon="9.0335988"><ele>407.33333333333337</ele><time>2026-04-06T11:32:16.519Z</time></trkpt><trkpt lat="48.5707963" lon="9.0336038"><ele>407.0</ele><time>2026-04-06T11:32:17.489Z</time></trkpt><trkpt lat="48.5707164" lon="9.0336165"><ele>406.6666666666667</ele><time>2026-04-06T11:32:18.484Z</time></trkpt><trkpt lat="48.5706322" lon="9.0336249"><ele>406.33333333333337</ele><time>2026-04-06T11:32:19.496Z</time></trkpt><trkpt lat="48.5705484" lon="9.0336384"><ele>406.0</ele><time>2026-04-06T11:32:20.517Z</time></trkpt><trkpt lat="48.5704648" lon="9.0336486"><ele>406.00000000000006</ele><time>2026-04-06T11:32:21.497Z</time></trkpt><trkpt lat="48.570384" lon="9.0336703"><ele>406.0</ele><time>2026-04-06T11:32:22.509Z</time></trkpt><trkpt lat="48.570306" lon="9.0336764"><ele>406.0</ele><time>2026-04-06T11:32:23.483Z</time></trkpt><trkpt lat="48.5702301" lon="9.0336811"><ele>406.0</ele><time>2026-04-06T11:32:24.496Z</time></trkpt><trkpt lat="48.570152" lon="9.0336861"><ele>406.00000000000006</ele><time>2026-04-06T11:32:25.516Z</time></trkpt><trkpt lat="48.5700722" lon="9.0336923"><ele>406.0</ele><time>2026-04-06T11:32:26.512Z</time></trkpt><trkpt lat="48.5699955" lon="9.0337"><ele>405.83333333333337</ele><time>2026-04-06T11:32:27.493Z</time></trkpt><trkpt lat="48.5699126" lon="9.0336979"><ele>405.6666666666667</ele><time>2026-04-06T11:32:28.501Z</time></trkpt><trkpt lat="48.5698316" lon="9.0336866"><ele>405.5</ele><time>2026-04-06T11:32:29.493Z</time></trkpt><trkpt lat="48.5697487" lon="9.0336614"><ele>405.33333333333337</ele><time>2026-04-06T11:32:30.49Z</time></trkpt><trkpt lat="48.5696667" lon="9.0336382"><ele>405.1666666666667</ele><time>2026-04-06T11:32:31.49Z</time></trkpt><trkpt lat="48.5695856" lon="9.0336043"><ele>405.0</ele><time>2026-04-06T11:32:32.523Z</time></trkpt><trkpt lat="48.5695007" lon="9.0335622"><ele>405.3333333333333</ele><time>2026-04-06T11:32:33.487Z</time></trkpt><trkpt lat="48.5694211" lon="9.0335173"><ele>405.66666666666663</ele><time>2026-04-06T11:32:34.491Z</time></trkpt><trkpt lat="48.5693468" lon="9.0334672"><ele>406.0</ele><time>2026-04-06T11:32:35.485Z</time></trkpt><trkpt lat="48.569274" lon="9.0334164"><ele>406.3333333333333</ele><time>2026-04-06T11:32:36.492Z</time></trkpt><trkpt lat="48.5691995" lon="9.0333524"><ele>406.66666666666663</ele><time>2026-04-06T11:32:37.502Z</time></trkpt><trkpt lat="48.5691244" lon="9.0332833"><ele>407.0</ele><time>2026-04-06T11:32:38.493Z</time></trkpt><trkpt lat="48.5690557" lon="9.0332185"><ele>406.99999999999994</ele><time>2026-04-06T11:32:39.447Z</time></trkpt><trkpt lat="48.5689845" lon="9.0331531"><ele>407.0</ele><time>2026-04-06T11:32:40.483Z</time></trkpt><trkpt lat="48.5689137" lon="9.0330827"><ele>407.0</ele><time>2026-04-06T11:32:41.494Z</time></trkpt><trkpt lat="48.5688428" lon="9.0330167"><ele>407.0</ele><time>2026-04-06T11:32:42.485Z</time></trkpt><trkpt lat="48.5687728" lon="9.0329595"><ele>406.99999999999994</ele><time>2026-04-06T11:32:43.492Z</time></trkpt><trkpt lat="48.5686985" lon="9.0329149"><ele>407.0</ele><time>2026-04-06T11:32:44.484Z</time></trkpt><trkpt lat="48.5686187" lon="9.0328805"><ele>406.16666666666663</ele><time>2026-04-06T11:32:45.465Z</time></trkpt><trkpt lat="48.5685396" lon="9.032857"><ele>405.3333333333333</ele><time>2026-04-06T11:32:46.494Z</time></trkpt><trkpt lat="48.5684616" lon="9.0328481"><ele>404.5</ele><time>2026-04-06T11:32:47.44Z</time></trkpt><trkpt lat="48.5683783" lon="9.0328362"><ele>403.66666666666663</ele><time>2026-04-06T11:32:48.478Z</time></trkpt><trkpt lat="48.5682976" lon="9.032832"><ele>402.8333333333333</ele><time>2026-04-06T11:32:49.486Z</time></trkpt><trkpt lat="48.5682193" lon="9.0328345"><ele>402.0</ele><time>2026-04-06T11:32:50.497Z</time></trkpt><trkpt lat="48.5681393" lon="9.032838"><ele>402.0</ele><time>2026-04-06T11:32:51.486Z</time></trkpt><trkpt lat="48.5680544" lon="9.0328437"><ele>402.0</ele><time>2026-04-06T11:32:52.507Z</time></trkpt><trkpt lat="48.5679658" lon="9.0328428"><ele>402.0</ele><time>2026-04-06T11:32:53.497Z</time></trkpt><trkpt lat="48.5678822" lon="9.0328454"><ele>402.0</ele><time>2026-04-06T11:32:54.505Z</time></trkpt><trkpt lat="48.5678011" lon="9.0328586"><ele>402.0</ele><time>2026-04-06T11:32:55.497Z</time></trkpt><trkpt lat="48.5677251" lon="9.0328625"><ele>402.0</ele><time>2026-04-06T11:32:56.501Z</time></trkpt><trkpt lat="48.5676437" lon="9.0328647"><ele>401.5</ele><time>2026-04-06T11:32:57.482Z</time></trkpt><trkpt lat="48.5675621" lon="9.0328761"><ele>401.0</ele><time>2026-04-06T11:32:58.488Z</time></trkpt><trkpt lat="48.5674837" lon="9.032884"><ele>400.5</ele><time>2026-04-06T11:32:59.484Z</time></trkpt><trkpt lat="48.5674054" lon="9.0329035"><ele>400.0</ele><time>2026-04-06T11:33:00.494Z</time></trkpt><trkpt lat="48.5673234" lon="9.0329237"><ele>399.5</ele><time>2026-04-06T11:33:01.492Z</time></trkpt><trkpt lat="48.5672466" lon="9.0329389"><ele>399.0</ele><time>2026-04-06T11:33:02.494Z</time></trkpt><trkpt lat="48.5671652" lon="9.0329547"><ele>399.0</ele><time>2026-04-06T11:33:03.484Z</time></trkpt><trkpt lat="48.5670869" lon="9.032978"><ele>399.0</ele><time>2026-04-06T11:33:04.471Z</time></trkpt><trkpt lat="48.5670171" lon="9.0330138"><ele>399.0</ele><time>2026-04-06T11:33:05.47Z</time></trkpt><trkpt lat="48.566945" lon="9.033037"><ele>399.0</ele><time>2026-04-06T11:33:06.492Z</time></trkpt><trkpt lat="48.5668704" lon="9.0330543"><ele>399.0</ele><time>2026-04-06T11:33:07.438Z</time></trkpt><trkpt lat="48.5667928" lon="9.0330597"><ele>399.0</ele><time>2026-04-06T11:33:08.503Z</time></trkpt><trkpt lat="48.5667112" lon="9.0330784"><ele>398.5</ele><time>2026-04-06T11:33:09.484Z</time></trkpt><trkpt lat="48.5666374" lon="9.033118"><ele>398.0</ele><time>2026-04-06T11:33:10.491Z</time></trkpt><trkpt lat="48.5665662" lon="9.0331646"><ele>397.5</ele><time>2026-04-06T11:33:11.448Z</time></trkpt><trkpt lat="48.5664968" lon="9.0332193"><ele>397.0</ele><time>2026-04-06T11:33:12.48Z</time></trkpt><trkpt lat="48.5664253" lon="9.0332738"><ele>396.5</ele><time>2026-04-06T11:33:13.453Z</time></trkpt><trkpt lat="48.5663645" lon="9.033322"><ele>396.0</ele><time>2026-04-06T11:33:14.486Z</time></trkpt><trkpt lat="48.5663051" lon="9.0333824"><ele>395.6666666666667</ele><time>2026-04-06T11:33:15.485Z</time></trkpt><trkpt lat="48.5662414" lon="9.0334314"><ele>395.33333333333337</ele><time>2026-04-06T11:33:16.492Z</time></trkpt><trkpt lat="48.5661763" lon="9.0334759"><ele>395.0</ele><time>2026-04-06T11:33:17.456Z</time></trkpt><trkpt lat="48.5661118" lon="9.0335094"><ele>394.6666666666667</ele><time>2026-04-06T11:33:18.493Z</time></trkpt><trkpt lat="48.5660341" lon="9.033539"><ele>394.33333333333337</ele><time>2026-04-06T11:33:19.505Z</time></trkpt><trkpt lat="48.5659519" lon="9.0335589"><ele>394.0</ele><time>2026-04-06T11:33:20.472Z</time></trkpt><trkpt lat="48.5658701" lon="9.0335763"><ele>394.00000000000006</ele><time>2026-04-06T11:33:21.492Z</time></trkpt><trkpt lat="48.5657853" lon="9.0336106"><ele>394.0</ele><time>2026-04-06T11:33:22.491Z</time></trkpt><trkpt lat="48.5657117" lon="9.0336233"><ele>394.0</ele><time>2026-04-06T11:33:23.51Z</time></trkpt><trkpt lat="48.5656409" lon="9.033638"><ele>394.0</ele><time>2026-04-06T11:33:24.486Z</time></trkpt><trkpt lat="48.5655651" lon="9.0336521"><ele>394.00000000000006</ele><time>2026-04-06T11:33:25.462Z</time></trkpt><trkpt lat="48.5654937" lon="9.0336583"><ele>394.0</ele><time>2026-04-06T11:33:26.476Z</time></trkpt><trkpt lat="48.565414" lon="9.0336432"><ele>393.33333333333337</ele><time>2026-04-06T11:33:27.462Z</time></trkpt><trkpt lat="48.5653381" lon="9.0336218"><ele>392.6666666666667</ele><time>2026-04-06T11:33:28.474Z</time></trkpt><trkpt lat="48.5652632" lon="9.0335866"><ele>392.0</ele><time>2026-04-06T11:33:29.491Z</time></trkpt><trkpt lat="48.5651926" lon="9.0335469"><ele>391.33333333333337</ele><time>2026-04-06T11:33:30.494Z</time></trkpt><trkpt lat="48.56512" lon="9.0335362"><ele>390.6666666666667</ele><time>2026-04-06T11:33:31.491Z</time></trkpt><trkpt lat="48.5650438" lon="9.0335621"><ele>390.0</ele><time>2026-04-06T11:33:32.488Z</time></trkpt><trkpt lat="48.5649603" lon="9.0336023"><ele>390.0</ele><time>2026-04-06T11:33:33.494Z</time></trkpt><trkpt lat="48.5648863" lon="9.0336455"><ele>390.0</ele><time>2026-04-06T11:33:34.494Z</time></trkpt><trkpt lat="48.5648038" lon="9.0336889"><ele>390.0</ele><time>2026-04-06T11:33:35.492Z</time></trkpt><trkpt lat="48.564721" lon="9.0337303"><ele>390.0</ele><time>2026-04-06T11:33:36.531Z</time></trkpt><trkpt lat="48.564647" lon="9.0337665"><ele>390.0</ele><time>2026-04-06T11:33:37.509Z</time></trkpt><trkpt lat="48.5645853" lon="9.0338012"><ele>390.0</ele><time>2026-04-06T11:33:38.495Z</time></trkpt><trkpt lat="48.5645031" lon="9.0338433"><ele>390.0</ele><time>2026-04-06T11:33:40.504Z</time></trkpt><trkpt lat="48.5644504" lon="9.033898"><ele>390.0</ele><time>2026-04-06T11:33:42.503Z</time></trkpt><trkpt lat="48.5643617" lon="9.0339176"><ele>390.0</ele><time>2026-04-06T11:33:44.504Z</time></trkpt><trkpt lat="48.5642655" lon="9.0339686"><ele>390.0</ele><time>2026-04-06T11:33:46.497Z</time></trkpt><trkpt lat="48.5641606" lon="9.0340499"><ele>390.0</ele><time>2026-04-06T11:33:48.507Z</time></trkpt><trkpt lat="48.5641071" lon="9.0341057"><ele>390.0</ele><time>2026-04-06T11:33:49.478Z</time></trkpt><trkpt lat="48.5640492" lon="9.0341633"><ele>390.0</ele><time>2026-04-06T11:33:50.476Z</time></trkpt><trkpt lat="48.5639919" lon="9.0342212"><ele>390.0</ele><time>2026-04-06T11:33:51.496Z</time></trkpt><trkpt lat="48.5639373" lon="9.0342869"><ele>390.0</ele><time>2026-04-06T11:33:52.485Z</time></trkpt><trkpt lat="48.5638877" lon="9.0343586"><ele>390.0</ele><time>2026-04-06T11:33:53.511Z</time></trkpt><trkpt lat="48.5638401" lon="9.0344457"><ele>390.0</ele><time>2026-04-06T11:33:54.5Z</time></trkpt><trkpt lat="48.563793" lon="9.0345364"><ele>390.0</ele><time>2026-04-06T11:33:55.497Z</time></trkpt><trkpt lat="48.5637449" lon="9.0346291"><ele>390.0</ele><time>2026-04-06T11:33:56.507Z</time></trkpt><trkpt lat="48.5636981" lon="9.0347212"><ele>389.8333333333333</ele><time>2026-04-06T11:33:57.477Z</time></trkpt><trkpt lat="48.5636511" lon="9.0348243"><ele>389.66666666666663</ele><time>2026-04-06T11:33:58.498Z</time></trkpt><trkpt lat="48.5636127" lon="9.0349104"><ele>389.5</ele><time>2026-04-06T11:33:59.456Z</time></trkpt><trkpt lat="48.5635705" lon="9.0350066"><ele>389.3333333333333</ele><time>2026-04-06T11:34:00.521Z</time></trkpt><trkpt lat="48.5635228" lon="9.0351002"><ele>389.16666666666663</ele><time>2026-04-06T11:34:01.498Z</time></trkpt><trkpt lat="48.5634777" lon="9.0352047"><ele>389.0</ele><time>2026-04-06T11:34:02.491Z</time></trkpt><trkpt lat="48.5634339" lon="9.0353024"><ele>388.99999999999994</ele><time>2026-04-06T11:34:03.507Z</time></trkpt><trkpt lat="48.5633936" lon="9.0353967"><ele>389.0</ele><time>2026-04-06T11:34:04.496Z</time></trkpt><trkpt lat="48.5633503" lon="9.0354966"><ele>389.0</ele><time>2026-04-06T11:34:05.519Z</time></trkpt><trkpt lat="48.5633114" lon="9.035592"><ele>389.0</ele><time>2026-04-06T11:34:06.523Z</time></trkpt><trkpt lat="48.5632674" lon="9.0356882"><ele>388.99999999999994</ele><time>2026-04-06T11:34:07.479Z</time></trkpt><trkpt lat="48.5632284" lon="9.0357882"><ele>389.0</ele><time>2026-04-06T11:34:08.53Z</time></trkpt><trkpt lat="48.5631889" lon="9.0358917"><ele>389.14285714285717</ele><time>2026-04-06T11:34:09.522Z</time></trkpt><trkpt lat="48.5631501" lon="9.0359865"><ele>389.2857142857143</ele><time>2026-04-06T11:34:10.507Z</time></trkpt><trkpt lat="48.5631118" lon="9.0360811"><ele>389.42857142857144</ele><time>2026-04-06T11:34:11.506Z</time></trkpt><trkpt lat="48.5630716" lon="9.0361687"><ele>389.57142857142856</ele><time>2026-04-06T11:34:12.508Z</time></trkpt><trkpt lat="48.5630342" lon="9.0362654"><ele>389.71428571428567</ele><time>2026-04-06T11:34:13.5Z</time></trkpt><trkpt lat="48.5629955" lon="9.0363575"><ele>389.85714285714283</ele><time>2026-04-06T11:34:14.515Z</time></trkpt><trkpt lat="48.5629538" lon="9.0364536"><ele>390.0</ele><time>2026-04-06T11:34:15.506Z</time></trkpt><trkpt lat="48.5629087" lon="9.0365459"><ele>388.8333333333333</ele><time>2026-04-06T11:34:16.515Z</time></trkpt><trkpt lat="48.5628721" lon="9.0366493"><ele>387.6666666666667</ele><time>2026-04-06T11:34:17.511Z</time></trkpt><trkpt lat="48.5628282" lon="9.0367502"><ele>386.5</ele><time>2026-04-06T11:34:18.485Z</time></trkpt><trkpt lat="48.5627864" lon="9.0368502"><ele>385.33333333333337</ele><time>2026-04-06T11:34:19.512Z</time></trkpt><trkpt lat="48.5627443" lon="9.0369419"><ele>384.1666666666667</ele><time>2026-04-06T11:34:20.497Z</time></trkpt><trkpt lat="48.5627031" lon="9.0370435"><ele>383.0</ele><time>2026-04-06T11:34:21.495Z</time></trkpt><trkpt lat="48.5626665" lon="9.0371415"><ele>383.0</ele><time>2026-04-06T11:34:22.502Z</time></trkpt><trkpt lat="48.5626311" lon="9.0372405"><ele>383.0</ele><time>2026-04-06T11:34:23.529Z</time></trkpt><trkpt lat="48.5625901" lon="9.0373403"><ele>383.0</ele><time>2026-04-06T11:34:24.517Z</time></trkpt><trkpt lat="48.5625452" lon="9.0374485"><ele>383.0</ele><time>2026-04-06T11:34:25.498Z</time></trkpt><trkpt lat="48.5625074" lon="9.0375475"><ele>383.0</ele><time>2026-04-06T11:34:26.507Z</time></trkpt><trkpt lat="48.5624674" lon="9.0376519"><ele>383.0</ele><time>2026-04-06T11:34:27.505Z</time></trkpt><trkpt lat="48.5624254" lon="9.037755"><ele>383.5</ele><time>2026-04-06T11:34:28.502Z</time></trkpt><trkpt lat="48.5623773" lon="9.0378519"><ele>384.0</ele><time>2026-04-06T11:34:29.483Z</time></trkpt><trkpt lat="48.5623294" lon="9.03795"><ele>384.5</ele><time>2026-04-06T11:34:30.522Z</time></trkpt><trkpt lat="48.562288" lon="9.03806"><ele>385.0</ele><time>2026-04-06T11:34:31.488Z</time></trkpt><trkpt lat="48.5622448" lon="9.0381739"><ele>385.49999999999994</ele><time>2026-04-06T11:34:32.495Z</time></trkpt><trkpt lat="48.5622044" lon="9.0382846"><ele>386.0</ele><time>2026-04-06T11:34:33.495Z</time></trkpt><trkpt lat="48.5621592" lon="9.0383964"><ele>386.3333333333333</ele><time>2026-04-06T11:34:34.506Z</time></trkpt><trkpt lat="48.5621113" lon="9.038504"><ele>386.66666666666663</ele><time>2026-04-06T11:34:35.489Z</time></trkpt><trkpt lat="48.5620646" lon="9.0386165"><ele>387.0</ele><time>2026-04-06T11:34:36.481Z</time></trkpt><trkpt lat="48.5620219" lon="9.0387282"><ele>387.33333333333337</ele><time>2026-04-06T11:34:37.501Z</time></trkpt><trkpt lat="48.5619763" lon="9.0388436"><ele>387.6666666666667</ele><time>2026-04-06T11:34:38.52Z</time></trkpt><trkpt lat="48.5619291" lon="9.0389572"><ele>388.0</ele><time>2026-04-06T11:34:39.504Z</time></trkpt><trkpt lat="48.5618766" lon="9.0390671"><ele>387.33333333333337</ele><time>2026-04-06T11:34:40.463Z</time></trkpt><trkpt lat="48.5618227" lon="9.0391767"><ele>386.6666666666667</ele><time>2026-04-06T11:34:41.494Z</time></trkpt><trkpt lat="48.5617785" lon="9.0392955"><ele>386.0</ele><time>2026-04-06T11:34:42.515Z</time></trkpt><trkpt lat="48.5617271" lon="9.0393987"><ele>385.33333333333337</ele><time>2026-04-06T11:34:43.515Z</time></trkpt><trkpt lat="48.5616786" lon="9.0395004"><ele>384.6666666666667</ele><time>2026-04-06T11:34:44.51Z</time></trkpt><trkpt lat="48.5616317" lon="9.0396003"><ele>384.0</ele><time>2026-04-06T11:34:45.47Z</time></trkpt><trkpt lat="48.5615756" lon="9.0397014"><ele>384.0</ele><time>2026-04-06T11:34:46.457Z</time></trkpt><trkpt lat="48.5615258" lon="9.0398107"><ele>384.0</ele><time>2026-04-06T11:34:47.487Z</time></trkpt><trkpt lat="48.5614728" lon="9.0399115"><ele>384.0</ele><time>2026-04-06T11:34:48.449Z</time></trkpt><trkpt lat="48.561413" lon="9.0400143"><ele>384.0</ele><time>2026-04-06T11:34:49.489Z</time></trkpt><trkpt lat="48.5613538" lon="9.0401195"><ele>384.0</ele><time>2026-04-06T11:34:50.493Z</time></trkpt><trkpt lat="48.5613071" lon="9.0402269"><ele>384.0</ele><time>2026-04-06T11:34:51.47Z</time></trkpt><trkpt lat="48.5612516" lon="9.0403328"><ele>384.4</ele><time>2026-04-06T11:34:52.465Z</time></trkpt><trkpt lat="48.5612013" lon="9.0404423"><ele>384.79999999999995</ele><time>2026-04-06T11:34:53.493Z</time></trkpt><trkpt lat="48.5611511" lon="9.0405599"><ele>385.20000000000005</ele><time>2026-04-06T11:34:54.497Z</time></trkpt><trkpt lat="48.5611006" lon="9.0406654"><ele>385.6</ele><time>2026-04-06T11:34:55.492Z</time></trkpt><trkpt lat="48.5610541" lon="9.04078"><ele>386.0</ele><time>2026-04-06T11:34:56.498Z</time></trkpt><trkpt lat="48.5610034" lon="9.0408997"><ele>385.99999999999994</ele><time>2026-04-06T11:34:57.469Z</time></trkpt><trkpt lat="48.560954" lon="9.0410199"><ele>386.0</ele><time>2026-04-06T11:34:58.47Z</time></trkpt><trkpt lat="48.5609129" lon="9.0411363"><ele>386.0</ele><time>2026-04-06T11:34:59.479Z</time></trkpt><trkpt lat="48.5608678" lon="9.0412528"><ele>386.0</ele><time>2026-04-06T11:35:00.498Z</time></trkpt><trkpt lat="48.5608257" lon="9.0413721"><ele>385.99999999999994</ele><time>2026-04-06T11:35:01.485Z</time></trkpt><trkpt lat="48.5607767" lon="9.0414844"><ele>386.0</ele><time>2026-04-06T11:35:02.493Z</time></trkpt><trkpt lat="48.5607202" lon="9.0416025"><ele>385.8</ele><time>2026-04-06T11:35:03.503Z</time></trkpt><trkpt lat="48.5606585" lon="9.0417069"><ele>385.6</ele><time>2026-04-06T11:35:04.49Z</time></trkpt><trkpt lat="48.5605891" lon="9.0418095"><ele>385.4</ele><time>2026-04-06T11:35:05.513Z</time></trkpt><trkpt lat="48.5605239" lon="9.0419098"><ele>385.2</ele><time>2026-04-06T11:35:06.509Z</time></trkpt><trkpt lat="48.5604527" lon="9.0419892"><ele>385.0</ele><time>2026-04-06T11:35:07.503Z</time></trkpt><trkpt lat="48.5603871" lon="9.0420759"><ele>384.83333333333337</ele><time>2026-04-06T11:35:08.517Z</time></trkpt><trkpt lat="48.5603273" lon="9.0421598"><ele>384.6666666666667</ele><time>2026-04-06T11:35:09.484Z</time></trkpt><trkpt lat="48.5602592" lon="9.0422426"><ele>384.5</ele><time>2026-04-06T11:35:10.501Z</time></trkpt><trkpt lat="48.5601972" lon="9.0423224"><ele>384.33333333333337</ele><time>2026-04-06T11:35:11.496Z</time></trkpt><trkpt lat="48.5601364" lon="9.0423938"><ele>384.1666666666667</ele><time>2026-04-06T11:35:12.501Z</time></trkpt><trkpt lat="48.5600863" lon="9.0424751"><ele>384.0</ele><time>2026-04-06T11:35:13.506Z</time></trkpt><trkpt lat="48.560031" lon="9.0425435"><ele>383.99999999999994</ele><time>2026-04-06T11:35:14.505Z</time></trkpt><trkpt lat="48.5599733" lon="9.0426078"><ele>384.0</ele><time>2026-04-06T11:35:15.483Z</time></trkpt><trkpt lat="48.5598926" lon="9.0426847"><ele>384.0</ele><time>2026-04-06T11:35:17.505Z</time></trkpt><trkpt lat="48.5598451" lon="9.0427758"><ele>384.0</ele><time>2026-04-06T11:35:26.505Z</time></trkpt><trkpt lat="48.5597916" lon="9.0428281"><ele>384.0</ele><time>2026-04-06T11:35:38.49Z</time></trkpt><trkpt lat="48.5597384" lon="9.0428891"><ele>383.99999999999994</ele><time>2026-04-06T11:35:41.496Z</time></trkpt><trkpt lat="48.5596849" lon="9.0429499"><ele>384.0</ele><time>2026-04-06T11:35:43.516Z</time></trkpt><trkpt lat="48.5596266" lon="9.0430168"><ele>384.0</ele><time>2026-04-06T11:35:45.512Z</time></trkpt><trkpt lat="48.5595564" lon="9.043081"><ele>384.0</ele><time>2026-04-06T11:35:47.501Z</time></trkpt><trkpt lat="48.5594678" lon="9.0431353"><ele>384.0</ele><time>2026-04-06T11:35:49.524Z</time></trkpt><trkpt lat="48.5593841" lon="9.0431585"><ele>384.0</ele><time>2026-04-06T11:35:51.512Z</time></trkpt><trkpt lat="48.5593018" lon="9.0431682"><ele>384.0</ele><time>2026-04-06T11:35:53.509Z</time></trkpt><trkpt lat="48.5592123" lon="9.04312"><ele>384.0</ele><time>2026-04-06T11:35:55.504Z</time></trkpt><trkpt lat="48.55911" lon="9.0430688"><ele>384.79999999999995</ele><time>2026-04-06T11:35:57.481Z</time></trkpt><trkpt lat="48.5590067" lon="9.0430187"><ele>385.59999999999997</ele><time>2026-04-06T11:35:59.491Z</time></trkpt><trkpt lat="48.5589017" lon="9.0429724"><ele>386.4</ele><time>2026-04-06T11:36:01.502Z</time></trkpt><trkpt lat="48.5587938" lon="9.0429622"><ele>387.2</ele><time>2026-04-06T11:36:03.518Z</time></trkpt><trkpt lat="48.5586852" lon="9.0429655"><ele>388.0</ele><time>2026-04-06T11:36:05.493Z</time></trkpt><trkpt lat="48.5585919" lon="9.0429238"><ele>387.59999999999997</ele><time>2026-04-06T11:36:07.496Z</time></trkpt><trkpt lat="48.5585137" lon="9.0428578"><ele>387.2</ele><time>2026-04-06T11:36:09.508Z</time></trkpt><trkpt lat="48.5584667" lon="9.0427495"><ele>386.8</ele><time>2026-04-06T11:36:11.481Z</time></trkpt><trkpt lat="48.5584401" lon="9.0425951"><ele>386.4</ele><time>2026-04-06T11:36:13.52Z</time></trkpt><trkpt lat="48.5584147" lon="9.0424477"><ele>386.0</ele><time>2026-04-06T11:36:15.512Z</time></trkpt><trkpt lat="48.5583807" lon="9.0423028"><ele>385.99999999999994</ele><time>2026-04-06T11:36:17.507Z</time></trkpt><trkpt lat="48.5583449" lon="9.0421498"><ele>386.0</ele><time>2026-04-06T11:36:19.514Z</time></trkpt><trkpt lat="48.5583129" lon="9.0420222"><ele>386.0</ele><time>2026-04-06T11:36:21.531Z</time></trkpt><trkpt lat="48.5582837" lon="9.0419073"><ele>386.0</ele><time>2026-04-06T11:36:23.52Z</time></trkpt><trkpt lat="48.5582581" lon="9.0418022"><ele>385.99999999999994</ele><time>2026-04-06T11:36:25.507Z</time></trkpt><trkpt lat="48.5582313" lon="9.0416803"><ele>386.0</ele><time>2026-04-06T11:36:27.516Z</time></trkpt><trkpt lat="48.5582147" lon="9.0415446"><ele>387.0</ele><time>2026-04-06T11:36:29.507Z</time></trkpt><trkpt lat="48.5581844" lon="9.0413676"><ele>388.0</ele><time>2026-04-06T11:36:31.512Z</time></trkpt><trkpt lat="48.5581611" lon="9.0411881"><ele>389.0</ele><time>2026-04-06T11:36:33.491Z</time></trkpt><trkpt lat="48.5581414" lon="9.0410225"><ele>390.0</ele><time>2026-04-06T11:36:35.502Z</time></trkpt><trkpt lat="48.5581326" lon="9.0408452"><ele>391.0</ele><time>2026-04-06T11:36:37.5Z</time></trkpt><trkpt lat="48.5581327" lon="9.040692"><ele>392.0</ele><time>2026-04-06T11:36:39.498Z</time></trkpt><trkpt lat="48.5581203" lon="9.04053"><ele>393.0</ele><time>2026-04-06T11:36:41.496Z</time></trkpt><trkpt lat="48.5581108" lon="9.0403708"><ele>394.0</ele><time>2026-04-06T11:36:43.504Z</time></trkpt><trkpt lat="48.5580852" lon="9.0402053"><ele>395.0</ele><time>2026-04-06T11:36:45.493Z</time></trkpt><trkpt lat="48.5580548" lon="9.0400443"><ele>395.4</ele><time>2026-04-06T11:36:47.504Z</time></trkpt><trkpt lat="48.558022" lon="9.0399023"><ele>395.8</ele><time>2026-04-06T11:36:49.509Z</time></trkpt><trkpt lat="48.5580147" lon="9.0397447"><ele>396.20000000000005</ele><time>2026-04-06T11:36:51.512Z</time></trkpt><trkpt lat="48.5580003" lon="9.0395911"><ele>396.6</ele><time>2026-04-06T11:36:53.517Z</time></trkpt><trkpt lat="48.5579793" lon="9.039433"><ele>397.0</ele><time>2026-04-06T11:36:55.522Z</time></trkpt><trkpt lat="48.5579531" lon="9.0392782"><ele>397.40000000000003</ele><time>2026-04-06T11:36:57.517Z</time></trkpt><trkpt lat="48.5579295" lon="9.0391268"><ele>397.8</ele><time>2026-04-06T11:36:59.509Z</time></trkpt><trkpt lat="48.5579088" lon="9.0389744"><ele>398.2</ele><time>2026-04-06T11:37:01.503Z</time></trkpt><trkpt lat="48.5578908" lon="9.0388296"><ele>398.6</ele><time>2026-04-06T11:37:03.496Z</time></trkpt><trkpt lat="48.5578697" lon="9.038678"><ele>399.0</ele><time>2026-04-06T11:37:05.525Z</time></trkpt><trkpt lat="48.5578497" lon="9.0385338"><ele>396.0</ele><time>2026-04-06T11:37:07.52Z</time></trkpt><trkpt lat="48.5578444" lon="9.0383696"><ele>393.0</ele><time>2026-04-06T11:37:09.513Z</time></trkpt><trkpt lat="48.5578264" lon="9.0382333"><ele>390.0</ele><time>2026-04-06T11:37:11.511Z</time></trkpt><trkpt lat="48.5578141" lon="9.0380846"><ele>387.0</ele><time>2026-04-06T11:37:13.523Z</time></trkpt><trkpt lat="48.5578046" lon="9.0379324"><ele>384.0</ele><time>2026-04-06T11:37:15.528Z</time></trkpt><trkpt lat="48.5577939" lon="9.0377895"><ele>383.79999999999995</ele><time>2026-04-06T11:37:17.529Z</time></trkpt><trkpt lat="48.557781" lon="9.0376502"><ele>383.59999999999997</ele><time>2026-04-06T11:37:19.516Z</time></trkpt><trkpt lat="48.5577756" lon="9.0375095"><ele>383.4</ele><time>2026-04-06T11:37:21.494Z</time></trkpt><trkpt lat="48.5577719" lon="9.0373719"><ele>383.2</ele><time>2026-04-06T11:37:23.516Z</time></trkpt><trkpt lat="48.5577589" lon="9.0372112"><ele>383.0</ele><time>2026-04-06T11:37:25.507Z</time></trkpt><trkpt lat="48.5577529" lon="9.0370603"><ele>383.79999999999995</ele><time>2026-04-06T11:37:27.512Z</time></trkpt><trkpt lat="48.5577372" lon="9.0369064"><ele>384.6</ele><time>2026-04-06T11:37:29.498Z</time></trkpt><trkpt lat="48.5577239" lon="9.0367516"><ele>385.4</ele><time>2026-04-06T11:37:31.517Z</time></trkpt><trkpt lat="48.5577156" lon="9.0365812"><ele>386.20000000000005</ele><time>2026-04-06T11:37:33.508Z</time></trkpt><trkpt lat="48.5576972" lon="9.0364243"><ele>387.0</ele><time>2026-04-06T11:37:35.507Z</time></trkpt><trkpt lat="48.557677" lon="9.0362672"><ele>387.20000000000005</ele><time>2026-04-06T11:37:37.525Z</time></trkpt><trkpt lat="48.5576596" lon="9.0361017"><ele>387.4</ele><time>2026-04-06T11:37:39.491Z</time></trkpt><trkpt lat="48.5576367" lon="9.0359347"><ele>387.6</ele><time>2026-04-06T11:37:41.505Z</time></trkpt><trkpt lat="48.5576088" lon="9.0357807"><ele>387.79999999999995</ele><time>2026-04-06T11:37:43.519Z</time></trkpt><trkpt lat="48.5575721" lon="9.0356286"><ele>388.0</ele><time>2026-04-06T11:37:45.508Z</time></trkpt><trkpt lat="48.5575292" lon="9.0354741"><ele>389.2</ele><time>2026-04-06T11:37:47.51Z</time></trkpt><trkpt lat="48.5574792" lon="9.0353357"><ele>390.4</ele><time>2026-04-06T11:37:49.501Z</time></trkpt><trkpt lat="48.5574169" lon="9.0351954"><ele>391.59999999999997</ele><time>2026-04-06T11:37:51.515Z</time></trkpt><trkpt lat="48.5573567" lon="9.0350612"><ele>392.79999999999995</ele><time>2026-04-06T11:37:53.495Z</time></trkpt><trkpt lat="48.5572805" lon="9.034925"><ele>394.0</ele><time>2026-04-06T11:37:55.51Z</time></trkpt><trkpt lat="48.5572155" lon="9.0347939"><ele>394.0</ele><time>2026-04-06T11:37:57.512Z</time></trkpt><trkpt lat="48.5571627" lon="9.0346653"><ele>394.0</ele><time>2026-04-06T11:37:59.491Z</time></trkpt><trkpt lat="48.5571093" lon="9.034543"><ele>394.0</ele><time>2026-04-06T11:38:01.514Z</time></trkpt><trkpt lat="48.5570397" lon="9.0344059"><ele>394.0</ele><time>2026-04-06T11:38:03.525Z</time></trkpt><trkpt lat="48.5569702" lon="9.034279"><ele>394.0</ele><time>2026-04-06T11:38:05.486Z</time></trkpt><trkpt lat="48.5568976" lon="9.0341377"><ele>394.0</ele><time>2026-04-06T11:38:07.501Z</time></trkpt><trkpt lat="48.5568298" lon="9.0340126"><ele>394.0</ele><time>2026-04-06T11:38:09.497Z</time></trkpt><trkpt lat="48.5567742" lon="9.0338602"><ele>394.0</ele><time>2026-04-06T11:38:11.528Z</time></trkpt><trkpt lat="48.5567245" lon="9.0337275"><ele>394.0</ele><time>2026-04-06T11:38:13.498Z</time></trkpt><trkpt lat="48.5566646" lon="9.0335745"><ele>394.0</ele><time>2026-04-06T11:38:15.518Z</time></trkpt><trkpt lat="48.5566109" lon="9.0334374"><ele>395.4</ele><time>2026-04-06T11:38:17.525Z</time></trkpt><trkpt lat="48.5565517" lon="9.0333036"><ele>396.79999999999995</ele><time>2026-04-06T11:38:19.505Z</time></trkpt><trkpt lat="48.5564987" lon="9.033172"><ele>398.20000000000005</ele><time>2026-04-06T11:38:21.517Z</time></trkpt><trkpt lat="48.556444" lon="9.033073"><ele>399.6</ele><time>2026-04-06T11:38:23.522Z</time></trkpt><trkpt lat="48.556403" lon="9.0329388"><ele>401.0</ele><time>2026-04-06T11:38:25.503Z</time></trkpt><trkpt lat="48.5563715" lon="9.0327808"><ele>401.0</ele><time>2026-04-06T11:38:27.533Z</time></trkpt><trkpt lat="48.5563442" lon="9.0326271"><ele>401.0</ele><time>2026-04-06T11:38:29.513Z</time></trkpt><trkpt lat="48.5563291" lon="9.0324728"><ele>401.0</ele><time>2026-04-06T11:38:31.497Z</time></trkpt><trkpt lat="48.5563003" lon="9.0323224"><ele>401.0</ele><time>2026-04-06T11:38:33.482Z</time></trkpt><trkpt lat="48.5562751" lon="9.0321567"><ele>401.0</ele><time>2026-04-06T11:38:35.495Z</time></trkpt><trkpt lat="48.5562556" lon="9.0320188"><ele>401.0</ele><time>2026-04-06T11:38:37.51Z</time></trkpt><trkpt lat="48.5562365" lon="9.031868"><ele>401.0</ele><time>2026-04-06T11:38:39.48Z</time></trkpt><trkpt lat="48.5562264" lon="9.031715"><ele>401.0</ele><time>2026-04-06T11:38:41.513Z</time></trkpt><trkpt lat="48.5562247" lon="9.0315564"><ele>401.0</ele><time>2026-04-06T11:38:43.504Z</time></trkpt><trkpt lat="48.556222" lon="9.031394"><ele>401.0</ele><time>2026-04-06T11:38:45.498Z</time></trkpt><trkpt lat="48.5561995" lon="9.0312288"><ele>401.0</ele><time>2026-04-06T11:38:47.513Z</time></trkpt><trkpt lat="48.5561766" lon="9.0310661"><ele>401.0</ele><time>2026-04-06T11:38:49.504Z</time></trkpt><trkpt lat="48.5561574" lon="9.0309092"><ele>401.0</ele><time>2026-04-06T11:38:51.493Z</time></trkpt><trkpt lat="48.5561502" lon="9.0307482"><ele>401.0</ele><time>2026-04-06T11:38:53.509Z</time></trkpt><trkpt lat="48.5561432" lon="9.0306172"><ele>401.0</ele><time>2026-04-06T11:38:55.487Z</time></trkpt><trkpt lat="48.556123" lon="9.0304874"><ele>400.6</ele><time>2026-04-06T11:38:57.513Z</time></trkpt><trkpt lat="48.5561041" lon="9.0303537"><ele>400.20000000000005</ele><time>2026-04-06T11:38:59.506Z</time></trkpt><trkpt lat="48.5560752" lon="9.0301826"><ele>399.79999999999995</ele><time>2026-04-06T11:39:01.503Z</time></trkpt><trkpt lat="48.556046" lon="9.030013"><ele>399.4</ele><time>2026-04-06T11:39:03.503Z</time></trkpt><trkpt lat="48.5560132" lon="9.0298347"><ele>399.0</ele><time>2026-04-06T11:39:05.502Z</time></trkpt><trkpt lat="48.5559751" lon="9.0296596"><ele>399.0</ele><time>2026-04-06T11:39:07.51Z</time></trkpt><trkpt lat="48.555956" lon="9.0295669"><ele>399.0</ele><time>2026-04-06T11:39:08.507Z</time></trkpt><trkpt lat="48.5559312" lon="9.0294696"><ele>399.0</ele><time>2026-04-06T11:39:09.517Z</time></trkpt><trkpt lat="48.5558934" lon="9.0293115"><ele>399.0</ele><time>2026-04-06T11:39:11.491Z</time></trkpt><trkpt lat="48.5558431" lon="9.0291406"><ele>399.0</ele><time>2026-04-06T11:39:13.507Z</time></trkpt><trkpt lat="48.5558042" lon="9.0289683"><ele>398.79999999999995</ele><time>2026-04-06T11:39:15.502Z</time></trkpt><trkpt lat="48.5557547" lon="9.0288031"><ele>398.59999999999997</ele><time>2026-04-06T11:39:17.506Z</time></trkpt><trkpt lat="48.5557207" lon="9.0286619"><ele>398.4</ele><time>2026-04-06T11:39:19.511Z</time></trkpt><trkpt lat="48.5557034" lon="9.0285232"><ele>398.2</ele><time>2026-04-06T11:39:21.504Z</time></trkpt><trkpt lat="48.5556764" lon="9.0284134"><ele>398.0</ele><time>2026-04-06T11:39:23.513Z</time></trkpt><trkpt lat="48.555655" lon="9.0282794"><ele>398.0</ele><time>2026-04-06T11:39:25.51Z</time></trkpt><trkpt lat="48.5556296" lon="9.0281073"><ele>398.0</ele><time>2026-04-06T11:39:27.515Z</time></trkpt><trkpt lat="48.5556046" lon="9.0279239"><ele>398.0</ele><time>2026-04-06T11:39:29.508Z</time></trkpt><trkpt lat="48.555588" lon="9.0277447"><ele>398.0</ele><time>2026-04-06T11:39:31.511Z</time></trkpt><trkpt lat="48.5555833" lon="9.0275782"><ele>398.59999999999997</ele><time>2026-04-06T11:39:33.516Z</time></trkpt><trkpt lat="48.5555857" lon="9.0274296"><ele>399.2</ele><time>2026-04-06T11:39:35.479Z</time></trkpt><trkpt lat="48.5555963" lon="9.0272744"><ele>399.8</ele><time>2026-04-06T11:39:37.519Z</time></trkpt><trkpt lat="48.5556015" lon="9.0271091"><ele>400.4</ele><time>2026-04-06T11:39:39.524Z</time></trkpt><trkpt lat="48.5556017" lon="9.0270111"><ele>401.0</ele><time>2026-04-06T11:39:40.51Z</time></trkpt><trkpt lat="48.555603" lon="9.0268201"><ele>401.0</ele><time>2026-04-06T11:39:42.519Z</time></trkpt><trkpt lat="48.5555988" lon="9.0267221"><ele>401.0</ele><time>2026-04-06T11:39:43.511Z</time></trkpt><trkpt lat="48.5555946" lon="9.0266252"><ele>401.0</ele><time>2026-04-06T11:39:44.517Z</time></trkpt><trkpt lat="48.555592" lon="9.026441"><ele>401.0</ele><time>2026-04-06T11:39:46.511Z</time></trkpt><trkpt lat="48.5555911" lon="9.0262646"><ele>401.0</ele><time>2026-04-06T11:39:48.488Z</time></trkpt><trkpt lat="48.5555954" lon="9.0261083"><ele>401.4</ele><time>2026-04-06T11:39:50.514Z</time></trkpt><trkpt lat="48.5555916" lon="9.0259508"><ele>401.8</ele><time>2026-04-06T11:39:52.513Z</time></trkpt><trkpt lat="48.5555936" lon="9.0257889"><ele>402.2</ele><time>2026-04-06T11:39:54.5Z</time></trkpt><trkpt lat="48.5556019" lon="9.025645"><ele>402.59999999999997</ele><time>2026-04-06T11:39:56.509Z</time></trkpt><trkpt lat="48.5556213" lon="9.0254871"><ele>403.0</ele><time>2026-04-06T11:39:58.515Z</time></trkpt><trkpt lat="48.5556339" lon="9.025328"><ele>403.0</ele><time>2026-04-06T11:40:00.52Z</time></trkpt><trkpt lat="48.5556577" lon="9.0251565"><ele>403.0</ele><time>2026-04-06T11:40:02.513Z</time></trkpt><trkpt lat="48.555675" lon="9.0249912"><ele>403.0</ele><time>2026-04-06T11:40:04.517Z</time></trkpt><trkpt lat="48.5556888" lon="9.0248302"><ele>403.0</ele><time>2026-04-06T11:40:06.524Z</time></trkpt><trkpt lat="48.5557023" lon="9.0246511"><ele>403.25</ele><time>2026-04-06T11:40:08.511Z</time></trkpt><trkpt lat="48.5557225" lon="9.024475"><ele>403.5</ele><time>2026-04-06T11:40:10.517Z</time></trkpt><trkpt lat="48.5557337" lon="9.0243057"><ele>403.75</ele><time>2026-04-06T11:40:12.505Z</time></trkpt><trkpt lat="48.5557556" lon="9.0241208"><ele>404.0</ele><time>2026-04-06T11:40:14.52Z</time></trkpt><trkpt lat="48.5557751" lon="9.0239437"><ele>404.0</ele><time>2026-04-06T11:40:16.507Z</time></trkpt><trkpt lat="48.5557905" lon="9.0237681"><ele>404.0</ele><time>2026-04-06T11:40:18.51Z</time></trkpt><trkpt lat="48.5558113" lon="9.0235941"><ele>404.0</ele><time>2026-04-06T11:40:20.502Z</time></trkpt><trkpt lat="48.5558339" lon="9.0234154"><ele>404.0</ele><time>2026-04-06T11:40:22.528Z</time></trkpt><trkpt lat="48.5558447" lon="9.0232383"><ele>404.0</ele><time>2026-04-06T11:40:24.522Z</time></trkpt><trkpt lat="48.5558608" lon="9.0230779"><ele>404.0</ele><time>2026-04-06T11:40:26.523Z</time></trkpt><trkpt lat="48.5558884" lon="9.022905"><ele>404.0</ele><time>2026-04-06T11:40:28.513Z</time></trkpt><trkpt lat="48.5559037" lon="9.0227189"><ele>404.0</ele><time>2026-04-06T11:40:30.518Z</time></trkpt><trkpt lat="48.5559015" lon="9.0226209"><ele>404.0</ele><time>2026-04-06T11:40:31.509Z</time></trkpt><trkpt lat="48.5559124" lon="9.0224676"><ele>405.75</ele><time>2026-04-06T11:40:33.529Z</time></trkpt><trkpt lat="48.5559248" lon="9.0222901"><ele>407.5</ele><time>2026-04-06T11:40:35.502Z</time></trkpt><trkpt lat="48.5559393" lon="9.0221007"><ele>409.25</ele><time>2026-04-06T11:40:37.508Z</time></trkpt><trkpt lat="48.5559477" lon="9.0219233"><ele>411.0</ele><time>2026-04-06T11:40:39.506Z</time></trkpt><trkpt lat="48.5559271" lon="9.0217528"><ele>411.4</ele><time>2026-04-06T11:40:41.518Z</time></trkpt><trkpt lat="48.5559027" lon="9.0215873"><ele>411.8</ele><time>2026-04-06T11:40:43.508Z</time></trkpt><trkpt lat="48.5558773" lon="9.0214315"><ele>412.2</ele><time>2026-04-06T11:40:45.485Z</time></trkpt><trkpt lat="48.5558496" lon="9.0212756"><ele>412.59999999999997</ele><time>2026-04-06T11:40:47.512Z</time></trkpt><trkpt lat="48.5558363" lon="9.0211217"><ele>413.0</ele><time>2026-04-06T11:40:49.529Z</time></trkpt><trkpt lat="48.5558238" lon="9.0209902"><ele>412.99999999999994</ele><time>2026-04-06T11:40:51.511Z</time></trkpt><trkpt lat="48.5558186" lon="9.0208619"><ele>413.0</ele><time>2026-04-06T11:40:53.491Z</time></trkpt><trkpt lat="48.5558296" lon="9.0207063"><ele>413.0</ele><time>2026-04-06T11:40:55.497Z</time></trkpt><trkpt lat="48.5558502" lon="9.0205858"><ele>413.0</ele><time>2026-04-06T11:40:56.522Z</time></trkpt><trkpt lat="48.5558719" lon="9.0204813"><ele>412.99999999999994</ele><time>2026-04-06T11:40:57.518Z</time></trkpt><trkpt lat="48.5558914" lon="9.0203904"><ele>413.0</ele><time>2026-04-06T11:40:58.516Z</time></trkpt><trkpt lat="48.5559154" lon="9.0202942"><ele>412.79999999999995</ele><time>2026-04-06T11:40:59.518Z</time></trkpt><trkpt lat="48.5559401" lon="9.0201984"><ele>412.6</ele><time>2026-04-06T11:41:00.516Z</time></trkpt><trkpt lat="48.5559852" lon="9.0200325"><ele>412.4</ele><time>2026-04-06T11:41:02.511Z</time></trkpt><trkpt lat="48.5560329" lon="9.0198769"><ele>412.20000000000005</ele><time>2026-04-06T11:41:04.511Z</time></trkpt><trkpt lat="48.5560805" lon="9.0197499"><ele>412.0</ele><time>2026-04-06T11:41:06.51Z</time></trkpt><trkpt lat="48.5561018" lon="9.0196526"><ele>412.6</ele><time>2026-04-06T11:41:09.515Z</time></trkpt><trkpt lat="48.556105" lon="9.0195425"><ele>413.20000000000005</ele><time>2026-04-06T11:41:21.521Z</time></trkpt><trkpt lat="48.5561521" lon="9.0194581"><ele>413.8</ele><time>2026-04-06T11:41:24.512Z</time></trkpt><trkpt lat="48.5561854" lon="9.0193232"><ele>414.4</ele><time>2026-04-06T11:41:26.502Z</time></trkpt><trkpt lat="48.5562339" lon="9.0191619"><ele>415.0</ele><time>2026-04-06T11:41:28.515Z</time></trkpt><trkpt lat="48.5562854" lon="9.0189966"><ele>415.0</ele><time>2026-04-06T11:41:30.523Z</time></trkpt><trkpt lat="48.5563429" lon="9.0188356"><ele>415.0</ele><time>2026-04-06T11:41:32.506Z</time></trkpt><trkpt lat="48.5563926" lon="9.0186738"><ele>415.0</ele><time>2026-04-06T11:41:34.478Z</time></trkpt><trkpt lat="48.5564464" lon="9.0185204"><ele>415.0</ele><time>2026-04-06T11:41:36.507Z</time></trkpt><trkpt lat="48.5565015" lon="9.01837"><ele>414.4</ele><time>2026-04-06T11:41:38.507Z</time></trkpt><trkpt lat="48.556561" lon="9.0182077"><ele>413.8</ele><time>2026-04-06T11:41:40.507Z</time></trkpt><trkpt lat="48.5566088" lon="9.0180379"><ele>413.20000000000005</ele><time>2026-04-06T11:41:42.493Z</time></trkpt><trkpt lat="48.5566272" lon="9.0179469"><ele>412.6</ele><time>2026-04-06T11:41:43.494Z</time></trkpt><trkpt lat="48.556675" lon="9.0177929"><ele>412.0</ele><time>2026-04-06T11:41:45.474Z</time></trkpt><trkpt lat="48.5567262" lon="9.0176321"><ele>412.75</ele><time>2026-04-06T11:41:47.509Z</time></trkpt><trkpt lat="48.5567757" lon="9.0174773"><ele>413.5</ele><time>2026-04-06T11:41:49.527Z</time></trkpt><trkpt lat="48.5568343" lon="9.0173299"><ele>414.25</ele><time>2026-04-06T11:41:51.504Z</time></trkpt><trkpt lat="48.5568796" lon="9.0171829"><ele>415.0</ele><time>2026-04-06T11:41:53.507Z</time></trkpt><trkpt lat="48.5569247" lon="9.0170231"><ele>415.0</ele><time>2026-04-06T11:41:55.52Z</time></trkpt><trkpt lat="48.5569706" lon="9.0168686"><ele>415.0</ele><time>2026-04-06T11:41:57.482Z</time></trkpt><trkpt lat="48.5570149" lon="9.0167307"><ele>415.0</ele><time>2026-04-06T11:41:59.515Z</time></trkpt><trkpt lat="48.5570536" lon="9.0165756"><ele>415.0</ele><time>2026-04-06T11:42:01.528Z</time></trkpt><trkpt lat="48.5571069" lon="9.0164213"><ele>415.0</ele><time>2026-04-06T11:42:03.516Z</time></trkpt><trkpt lat="48.5571509" lon="9.0162747"><ele>415.00000000000006</ele><time>2026-04-06T11:42:05.5Z</time></trkpt><trkpt lat="48.5571965" lon="9.0161439"><ele>415.0</ele><time>2026-04-06T11:42:07.487Z</time></trkpt><trkpt lat="48.5572514" lon="9.0159905"><ele>415.0</ele><time>2026-04-06T11:42:09.507Z</time></trkpt><trkpt lat="48.5572671" lon="9.0158659"><ele>415.0</ele><time>2026-04-06T11:42:11.512Z</time></trkpt><trkpt lat="48.5572472" lon="9.0157625"><ele>415.00000000000006</ele><time>2026-04-06T11:42:13.518Z</time></trkpt><trkpt lat="48.55727" lon="9.0156734"><ele>415.0</ele><time>2026-04-06T11:48:17.509Z</time></trkpt><trkpt lat="48.5573341" lon="9.0156415"><ele>415.00000000000006</ele><time>2026-04-06T11:48:21.507Z</time></trkpt><trkpt lat="48.5573916" lon="9.0155611"><ele>415.0</ele><time>2026-04-06T11:48:25.511Z</time></trkpt><trkpt lat="48.5574142" lon="9.0154661"><ele>415.0</ele><time>2026-04-06T11:48:28.495Z</time></trkpt><trkpt lat="48.5574417" lon="9.0153283"><ele>415.0</ele><time>2026-04-06T11:48:31.5Z</time></trkpt><trkpt lat="48.5574552" lon="9.0152294"><ele>415.00000000000006</ele><time>2026-04-06T11:48:33.482Z</time></trkpt><trkpt lat="48.5574355" lon="9.0150729"><ele>415.0</ele><time>2026-04-06T11:48:35.497Z</time></trkpt><trkpt lat="48.5574296" lon="9.0149459"><ele>415.4</ele><time>2026-04-06T11:48:37.49Z</time></trkpt><trkpt lat="48.5574273" lon="9.0148194"><ele>415.8</ele><time>2026-04-06T11:48:39.507Z</time></trkpt><trkpt lat="48.5574377" lon="9.014695"><ele>416.20000000000005</ele><time>2026-04-06T11:48:41.515Z</time></trkpt><trkpt lat="48.5574395" lon="9.0145648"><ele>416.6</ele><time>2026-04-06T11:48:43.482Z</time></trkpt><trkpt lat="48.5574434" lon="9.0143945"><ele>417.0</ele><time>2026-04-06T11:48:45.467Z</time></trkpt><trkpt lat="48.5574448" lon="9.0142221"><ele>417.40000000000003</ele><time>2026-04-06T11:48:47.479Z</time></trkpt><trkpt lat="48.5574517" lon="9.0140566"><ele>417.8</ele><time>2026-04-06T11:48:49.464Z</time></trkpt><trkpt lat="48.557437" lon="9.0139118"><ele>418.2</ele><time>2026-04-06T11:48:51.479Z</time></trkpt><trkpt lat="48.5574261" lon="9.0137991"><ele>418.6</ele><time>2026-04-06T11:48:53.486Z</time></trkpt><trkpt lat="48.5574229" lon="9.013676"><ele>419.0</ele><time>2026-04-06T11:48:55.468Z</time></trkpt><trkpt lat="48.5574113" lon="9.0135046"><ele>419.0</ele><time>2026-04-06T11:48:57.464Z</time></trkpt><trkpt lat="48.5574054" lon="9.0133338"><ele>419.0</ele><time>2026-04-06T11:48:59.483Z</time></trkpt><trkpt lat="48.5574105" lon="9.0131674"><ele>419.0</ele><time>2026-04-06T11:49:01.508Z</time></trkpt><trkpt lat="48.5573956" lon="9.0130251"><ele>419.0</ele><time>2026-04-06T11:49:03.458Z</time></trkpt><trkpt lat="48.5573929" lon="9.0128508"><ele>419.0</ele><time>2026-04-06T11:49:05.516Z</time></trkpt><trkpt lat="48.5573911" lon="9.0127325"><ele>418.79999999999995</ele><time>2026-04-06T11:49:07.498Z</time></trkpt><trkpt lat="48.5573871" lon="9.012569"><ele>418.59999999999997</ele><time>2026-04-06T11:49:09.523Z</time></trkpt><trkpt lat="48.5573908" lon="9.0124197"><ele>418.4</ele><time>2026-04-06T11:49:11.525Z</time></trkpt><trkpt lat="48.5573949" lon="9.0122853"><ele>418.2</ele><time>2026-04-06T11:49:13.53Z</time></trkpt><trkpt lat="48.5573946" lon="9.012145"><ele>418.0</ele><time>2026-04-06T11:49:15.516Z</time></trkpt><trkpt lat="48.5573784" lon="9.0119882"><ele>418.59999999999997</ele><time>2026-04-06T11:49:17.519Z</time></trkpt><trkpt lat="48.5573757" lon="9.0118284"><ele>419.2</ele><time>2026-04-06T11:49:19.484Z</time></trkpt><trkpt lat="48.5573773" lon="9.0116739"><ele>419.8</ele><time>2026-04-06T11:49:21.474Z</time></trkpt><trkpt lat="48.5573893" lon="9.0115106"><ele>420.4</ele><time>2026-04-06T11:49:23.516Z</time></trkpt><trkpt lat="48.5573849" lon="9.0113333"><ele>421.0</ele><time>2026-04-06T11:49:25.511Z</time></trkpt><trkpt lat="48.5573875" lon="9.0111784"><ele>421.20000000000005</ele><time>2026-04-06T11:49:27.506Z</time></trkpt><trkpt lat="48.5573728" lon="9.010997"><ele>421.40000000000003</ele><time>2026-04-06T11:49:29.502Z</time></trkpt><trkpt lat="48.5573636" lon="9.0108433"><ele>421.6</ele><time>2026-04-06T11:49:31.502Z</time></trkpt><trkpt lat="48.5574025" lon="9.010683"><ele>421.8</ele><time>2026-04-06T11:49:33.484Z</time></trkpt><trkpt lat="48.5574604" lon="9.0105473"><ele>422.0</ele><time>2026-04-06T11:49:35.485Z</time></trkpt><trkpt lat="48.557524" lon="9.0104138"><ele>422.6</ele><time>2026-04-06T11:49:37.496Z</time></trkpt><trkpt lat="48.5575917" lon="9.0103086"><ele>423.20000000000005</ele><time>2026-04-06T11:49:39.519Z</time></trkpt><trkpt lat="48.5576616" lon="9.0102073"><ele>423.8</ele><time>2026-04-06T11:49:41.491Z</time></trkpt><trkpt lat="48.5577321" lon="9.0100874"><ele>424.4</ele><time>2026-04-06T11:49:43.48Z</time></trkpt><trkpt lat="48.5578066" lon="9.0099949"><ele>425.0</ele><time>2026-04-06T11:49:45.505Z</time></trkpt><trkpt lat="48.5578715" lon="9.0098769"><ele>426.25</ele><time>2026-04-06T11:49:47.504Z</time></trkpt><trkpt lat="48.5579441" lon="9.0097575"><ele>427.5</ele><time>2026-04-06T11:49:49.505Z</time></trkpt><trkpt lat="48.5580155" lon="9.0096155"><ele>428.75</ele><time>2026-04-06T11:49:51.508Z</time></trkpt><trkpt lat="48.5580837" lon="9.0094696"><ele>430.0</ele><time>2026-04-06T11:49:53.518Z</time></trkpt><trkpt lat="48.5581508" lon="9.0093294"><ele>430.0</ele><time>2026-04-06T11:49:55.509Z</time></trkpt><trkpt lat="48.5582147" lon="9.0091916"><ele>430.0</ele><time>2026-04-06T11:49:57.506Z</time></trkpt><trkpt lat="48.5582787" lon="9.009034"><ele>430.0</ele><time>2026-04-06T11:49:59.511Z</time></trkpt><trkpt lat="48.558312" lon="9.0089531"><ele>430.0</ele><time>2026-04-06T11:50:00.484Z</time></trkpt><trkpt lat="48.5583728" lon="9.0088296"><ele>430.0</ele><time>2026-04-06T11:50:02.469Z</time></trkpt><trkpt lat="48.5584404" lon="9.0087408"><ele>430.0</ele><time>2026-04-06T11:50:04.498Z</time></trkpt><trkpt lat="48.5584986" lon="9.0086032"><ele>430.0</ele><time>2026-04-06T11:50:06.513Z</time></trkpt><trkpt lat="48.5585612" lon="9.0084498"><ele>430.0</ele><time>2026-04-06T11:50:08.5Z</time></trkpt><trkpt lat="48.5586252" lon="9.0082997"><ele>430.0</ele><time>2026-04-06T11:50:10.511Z</time></trkpt><trkpt lat="48.5586811" lon="9.0081419"><ele>432.0</ele><time>2026-04-06T11:50:12.505Z</time></trkpt><trkpt lat="48.5587378" lon="9.0079794"><ele>434.0</ele><time>2026-04-06T11:50:14.505Z</time></trkpt><trkpt lat="48.5588086" lon="9.007835"><ele>436.0</ele><time>2026-04-06T11:50:16.503Z</time></trkpt><trkpt lat="48.558869" lon="9.0077017"><ele>438.0</ele><time>2026-04-06T11:50:18.495Z</time></trkpt><trkpt lat="48.5589305" lon="9.0075674"><ele>437.79999999999995</ele><time>2026-04-06T11:50:20.502Z</time></trkpt><trkpt lat="48.5589843" lon="9.0074416"><ele>437.59999999999997</ele><time>2026-04-06T11:50:22.518Z</time></trkpt><trkpt lat="48.5590383" lon="9.0073151"><ele>437.40000000000003</ele><time>2026-04-06T11:50:24.509Z</time></trkpt><trkpt lat="48.5591037" lon="9.0071937"><ele>437.20000000000005</ele><time>2026-04-06T11:50:26.516Z</time></trkpt><trkpt lat="48.5591638" lon="9.007055"><ele>437.0</ele><time>2026-04-06T11:50:28.518Z</time></trkpt><trkpt lat="48.5592106" lon="9.0069297"><ele>437.0</ele><time>2026-04-06T11:50:30.506Z</time></trkpt><trkpt lat="48.559268" lon="9.0067964"><ele>437.00000000000006</ele><time>2026-04-06T11:50:32.482Z</time></trkpt><trkpt lat="48.5592997" lon="9.0067096"><ele>437.00000000000006</ele><time>2026-04-06T11:50:33.509Z</time></trkpt><trkpt lat="48.5593497" lon="9.0065718"><ele>437.0</ele><time>2026-04-06T11:50:35.504Z</time></trkpt><trkpt lat="48.559413" lon="9.0064169"><ele>437.0</ele><time>2026-04-06T11:50:37.473Z</time></trkpt><trkpt lat="48.5594656" lon="9.0062957"><ele>437.0</ele><time>2026-04-06T11:50:39.497Z</time></trkpt><trkpt lat="48.5595042" lon="9.0062154"><ele>437.0</ele><time>2026-04-06T11:50:41.496Z</time></trkpt><trkpt lat="48.5595518" lon="9.0061007"><ele>437.0</ele><time>2026-04-06T11:50:43.504Z</time></trkpt><trkpt lat="48.5595959" lon="9.0060105"><ele>437.0</ele><time>2026-04-06T11:50:44.503Z</time></trkpt><trkpt lat="48.5596391" lon="9.0059148"><ele>437.0</ele><time>2026-04-06T11:50:45.494Z</time></trkpt><trkpt lat="48.5596803" lon="9.0058313"><ele>437.0</ele><time>2026-04-06T11:50:46.509Z</time></trkpt><trkpt lat="48.5597126" lon="9.0057464"><ele>437.0</ele><time>2026-04-06T11:50:47.507Z</time></trkpt><trkpt lat="48.5597693" lon="9.0056052"><ele>437.0</ele><time>2026-04-06T11:50:49.485Z</time></trkpt><trkpt lat="48.5598333" lon="9.005459"><ele>437.0</ele><time>2026-04-06T11:50:51.495Z</time></trkpt><trkpt lat="48.5598868" lon="9.0053212"><ele>437.0</ele><time>2026-04-06T11:50:53.494Z</time></trkpt><trkpt lat="48.5599414" lon="9.0051732"><ele>437.0</ele><time>2026-04-06T11:50:55.508Z</time></trkpt><trkpt lat="48.5599855" lon="9.0050046"><ele>437.0</ele><time>2026-04-06T11:50:57.471Z</time></trkpt><trkpt lat="48.5600082" lon="9.0049117"><ele>437.00000000000006</ele><time>2026-04-06T11:50:58.515Z</time></trkpt><trkpt lat="48.5600437" lon="9.0047495"><ele>437.00000000000006</ele><time>2026-04-06T11:51:00.488Z</time></trkpt><trkpt lat="48.5600687" lon="9.0045807"><ele>437.0</ele><time>2026-04-06T11:51:02.506Z</time></trkpt><trkpt lat="48.5600978" lon="9.0044161"><ele>437.0</ele><time>2026-04-06T11:51:04.508Z</time></trkpt><trkpt lat="48.5601185" lon="9.0042562"><ele>437.25</ele><time>2026-04-06T11:51:06.514Z</time></trkpt><trkpt lat="48.56014" lon="9.0040921"><ele>437.5</ele><time>2026-04-06T11:51:08.515Z</time></trkpt><trkpt lat="48.5601613" lon="9.0039126"><ele>437.75</ele><time>2026-04-06T11:51:10.506Z</time></trkpt><trkpt lat="48.5601861" lon="9.0037377"><ele>438.0</ele><time>2026-04-06T11:51:12.512Z</time></trkpt><trkpt lat="48.5602117" lon="9.0035781"><ele>438.0</ele><time>2026-04-06T11:51:14.507Z</time></trkpt><trkpt lat="48.5602345" lon="9.0034225"><ele>437.99999999999994</ele><time>2026-04-06T11:51:16.508Z</time></trkpt><trkpt lat="48.5602576" lon="9.0032721"><ele>437.99999999999994</ele><time>2026-04-06T11:51:18.511Z</time></trkpt><trkpt lat="48.5602792" lon="9.0031085"><ele>438.0</ele><time>2026-04-06T11:51:20.505Z</time></trkpt><trkpt lat="48.5602877" lon="9.0029395"><ele>438.0</ele><time>2026-04-06T11:51:22.502Z</time></trkpt><trkpt lat="48.560301" lon="9.0027864"><ele>438.0</ele><time>2026-04-06T11:51:24.5Z</time></trkpt><trkpt lat="48.5603251" lon="9.0026235"><ele>437.99999999999994</ele><time>2026-04-06T11:51:26.505Z</time></trkpt><trkpt lat="48.5603467" lon="9.0024558"><ele>437.99999999999994</ele><time>2026-04-06T11:51:28.508Z</time></trkpt><trkpt lat="48.5603668" lon="9.0022915"><ele>438.0</ele><time>2026-04-06T11:51:30.516Z</time></trkpt><trkpt lat="48.5603971" lon="9.0021557"><ele>438.0</ele><time>2026-04-06T11:51:32.5Z</time></trkpt><trkpt lat="48.5604217" lon="9.0020029"><ele>439.0</ele><time>2026-04-06T11:51:34.505Z</time></trkpt><trkpt lat="48.5604384" lon="9.0018496"><ele>439.99999999999994</ele><time>2026-04-06T11:51:36.506Z</time></trkpt><trkpt lat="48.5604673" lon="9.0016889"><ele>440.99999999999994</ele><time>2026-04-06T11:51:38.524Z</time></trkpt><trkpt lat="48.5605001" lon="9.0015256"><ele>442.0</ele><time>2026-04-06T11:51:40.507Z</time></trkpt><trkpt lat="48.5605259" lon="9.0013658"><ele>443.0</ele><time>2026-04-06T11:51:42.505Z</time></trkpt><trkpt lat="48.5605663" lon="9.0012137"><ele>443.0</ele><time>2026-04-06T11:51:44.505Z</time></trkpt><trkpt lat="48.5606056" lon="9.0010679"><ele>442.99999999999994</ele><time>2026-04-06T11:51:46.511Z</time></trkpt><trkpt lat="48.5606481" lon="9.0009242"><ele>442.99999999999994</ele><time>2026-04-06T11:51:48.509Z</time></trkpt><trkpt lat="48.5606944" lon="9.0007769"><ele>443.0</ele><time>2026-04-06T11:51:50.513Z</time></trkpt><trkpt lat="48.5607409" lon="9.0006422"><ele>443.0</ele><time>2026-04-06T11:51:52.501Z</time></trkpt><trkpt lat="48.5607865" lon="9.0005034"><ele>444.5</ele><time>2026-04-06T11:51:54.48Z</time></trkpt><trkpt lat="48.5608421" lon="9.0003606"><ele>446.0</ele><time>2026-04-06T11:51:56.507Z</time></trkpt><trkpt lat="48.5609043" lon="9.0002202"><ele>447.5</ele><time>2026-04-06T11:51:58.511Z</time></trkpt><trkpt lat="48.5609791" lon="9.0000751"><ele>449.0</ele><time>2026-04-06T11:52:00.483Z</time></trkpt><trkpt lat="48.5610605" lon="8.9999499"><ele>449.0</ele><time>2026-04-06T11:52:02.479Z</time></trkpt><trkpt lat="48.5611345" lon="8.9998384"><ele>449.0</ele><time>2026-04-06T11:52:04.492Z</time></trkpt><trkpt lat="48.5612213" lon="8.9997507"><ele>449.0</ele><time>2026-04-06T11:52:06.508Z</time></trkpt><trkpt lat="48.5613145" lon="8.9996592"><ele>449.0</ele><time>2026-04-06T11:52:08.477Z</time></trkpt><trkpt lat="48.5614127" lon="8.9995806"><ele>449.0</ele><time>2026-04-06T11:52:10.47Z</time></trkpt><trkpt lat="48.5615209" lon="8.9995014"><ele>449.25</ele><time>2026-04-06T11:52:12.494Z</time></trkpt><trkpt lat="48.561634" lon="8.9994258"><ele>449.5</ele><time>2026-04-06T11:52:14.512Z</time></trkpt><trkpt lat="48.5617328" lon="8.9993346"><ele>449.75</ele><time>2026-04-06T11:52:16.517Z</time></trkpt><trkpt lat="48.5618306" lon="8.9992614"><ele>450.0</ele><time>2026-04-06T11:52:18.5Z</time></trkpt><trkpt lat="48.5619312" lon="8.9992009"><ele>450.0</ele><time>2026-04-06T11:52:20.519Z</time></trkpt><trkpt lat="48.562029" lon="8.9991412"><ele>450.0</ele><time>2026-04-06T11:52:22.515Z</time></trkpt><trkpt lat="48.5621141" lon="8.9990802"><ele>450.0</ele><time>2026-04-06T11:52:24.509Z</time></trkpt><trkpt lat="48.5622024" lon="8.9990202"><ele>450.0</ele><time>2026-04-06T11:52:26.502Z</time></trkpt><trkpt lat="48.5622952" lon="8.998948"><ele>450.0</ele><time>2026-04-06T11:52:28.524Z</time></trkpt><trkpt lat="48.5623825" lon="8.9988626"><ele>450.0</ele><time>2026-04-06T11:52:30.501Z</time></trkpt><trkpt lat="48.5624653" lon="8.998772"><ele>450.0</ele><time>2026-04-06T11:52:32.496Z</time></trkpt><trkpt lat="48.5625326" lon="8.9986644"><ele>450.0</ele><time>2026-04-06T11:52:34.499Z</time></trkpt><trkpt lat="48.5625827" lon="8.9985333"><ele>450.0</ele><time>2026-04-06T11:52:36.483Z</time></trkpt><trkpt lat="48.5626121" lon="8.998389"><ele>450.0</ele><time>2026-04-06T11:52:38.507Z</time></trkpt><trkpt lat="48.5626203" lon="8.9982463"><ele>448.4</ele><time>2026-04-06T11:52:40.514Z</time></trkpt><trkpt lat="48.562602" lon="8.9980875"><ele>446.8</ele><time>2026-04-06T11:52:42.517Z</time></trkpt><trkpt lat="48.5625811" lon="8.997944"><ele>445.20000000000005</ele><time>2026-04-06T11:52:44.503Z</time></trkpt><trkpt lat="48.5625549" lon="8.9978125"><ele>443.6</ele><time>2026-04-06T11:52:46.508Z</time></trkpt><trkpt lat="48.5625417" lon="8.9976732"><ele>442.0</ele><time>2026-04-06T11:52:48.486Z</time></trkpt><trkpt lat="48.5625089" lon="8.9975328"><ele>443.20000000000005</ele><time>2026-04-06T11:52:50.5Z</time></trkpt><trkpt lat="48.5624865" lon="8.997395"><ele>444.40000000000003</ele><time>2026-04-06T11:52:52.501Z</time></trkpt><trkpt lat="48.5624545" lon="8.9972445"><ele>445.59999999999997</ele><time>2026-04-06T11:52:54.508Z</time></trkpt><trkpt lat="48.5624409" lon="8.9971085"><ele>446.79999999999995</ele><time>2026-04-06T11:52:56.505Z</time></trkpt><trkpt lat="48.5624231" lon="8.9969741"><ele>448.0</ele><time>2026-04-06T11:52:58.488Z</time></trkpt><trkpt lat="48.5623975" lon="8.9968155"><ele>448.00000000000006</ele><time>2026-04-06T11:53:00.473Z</time></trkpt><trkpt lat="48.5623741" lon="8.9966864"><ele>448.0</ele><time>2026-04-06T11:53:02.503Z</time></trkpt><trkpt lat="48.5623573" lon="8.9965662"><ele>448.0</ele><time>2026-04-06T11:53:04.502Z</time></trkpt><trkpt lat="48.5623332" lon="8.9964378"><ele>448.0</ele><time>2026-04-06T11:53:06.508Z</time></trkpt><trkpt lat="48.5623177" lon="8.9963149"><ele>448.00000000000006</ele><time>2026-04-06T11:53:08.509Z</time></trkpt><trkpt lat="48.5623025" lon="8.9961814"><ele>448.0</ele><time>2026-04-06T11:53:10.497Z</time></trkpt><trkpt lat="48.562294" lon="8.9960764"><ele>448.59999999999997</ele><time>2026-04-06T11:53:12.497Z</time></trkpt><trkpt lat="48.5622997" lon="8.9959332"><ele>449.19999999999993</ele><time>2026-04-06T11:53:14.513Z</time></trkpt><trkpt lat="48.5623299" lon="8.9957935"><ele>449.8</ele><time>2026-04-06T11:53:16.464Z</time></trkpt><trkpt lat="48.5623602" lon="8.9956654"><ele>450.4</ele><time>2026-04-06T11:53:18.51Z</time></trkpt><trkpt lat="48.5624066" lon="8.9955472"><ele>451.0</ele><time>2026-04-06T11:53:20.495Z</time></trkpt><trkpt lat="48.5624515" lon="8.9954085"><ele>451.6666666666667</ele><time>2026-04-06T11:53:22.507Z</time></trkpt><trkpt lat="48.5625137" lon="8.995292"><ele>452.33333333333337</ele><time>2026-04-06T11:53:24.502Z</time></trkpt><trkpt lat="48.5625749" lon="8.9951802"><ele>453.0</ele><time>2026-04-06T11:53:26.479Z</time></trkpt><trkpt lat="48.5626468" lon="8.9951036"><ele>453.66666666666663</ele><time>2026-04-06T11:53:28.497Z</time></trkpt><trkpt lat="48.5626932" lon="8.9949951"><ele>454.3333333333333</ele><time>2026-04-06T11:53:30.524Z</time></trkpt><trkpt lat="48.5627301" lon="8.9948948"><ele>455.0</ele><time>2026-04-06T11:53:32.479Z</time></trkpt><trkpt lat="48.5627546" lon="8.9947841"><ele>456.0</ele><time>2026-04-06T11:53:34.519Z</time></trkpt><trkpt lat="48.5627764" lon="8.9946371"><ele>457.0</ele><time>2026-04-06T11:53:36.508Z</time></trkpt><trkpt lat="48.5627981" lon="8.9944931"><ele>458.0</ele><time>2026-04-06T11:53:38.516Z</time></trkpt><trkpt lat="48.5628067" lon="8.9943806"><ele>459.0</ele><time>2026-04-06T11:53:40.489Z</time></trkpt><trkpt lat="48.5628206" lon="8.9942572"><ele>460.0</ele><time>2026-04-06T11:53:42.512Z</time></trkpt><trkpt lat="48.5628374" lon="8.9941166"><ele>459.4</ele><time>2026-04-06T11:53:44.512Z</time></trkpt><trkpt lat="48.5628507" lon="8.9939435"><ele>458.8</ele><time>2026-04-06T11:53:46.519Z</time></trkpt><trkpt lat="48.5628772" lon="8.9937623"><ele>458.20000000000005</ele><time>2026-04-06T11:53:48.515Z</time></trkpt><trkpt lat="48.5628975" lon="8.9936104"><ele>457.6</ele><time>2026-04-06T11:53:50.513Z</time></trkpt><trkpt lat="48.5629049" lon="8.9934904"><ele>457.0</ele><time>2026-04-06T11:53:52.525Z</time></trkpt><trkpt lat="48.5629181" lon="8.993387"><ele>457.83333333333337</ele><time>2026-04-06T11:53:54.507Z</time></trkpt><trkpt lat="48.5629263" lon="8.9932729"><ele>458.6666666666667</ele><time>2026-04-06T11:53:56.526Z</time></trkpt><trkpt lat="48.5629385" lon="8.993177"><ele>459.5</ele><time>2026-04-06T11:53:59.485Z</time></trkpt><trkpt lat="48.5629305" lon="8.9930814"><ele>460.33333333333337</ele><time>2026-04-06T11:54:04.507Z</time></trkpt><trkpt lat="48.5629267" lon="8.9929743"><ele>461.1666666666667</ele><time>2026-04-06T11:54:11.511Z</time></trkpt><trkpt lat="48.5629202" lon="8.9928471"><ele>462.0</ele><time>2026-04-06T11:54:14.486Z</time></trkpt><trkpt lat="48.5629273" lon="8.9927074"><ele>462.0</ele><time>2026-04-06T11:54:17.513Z</time></trkpt><trkpt lat="48.5629416" lon="8.9925989"><ele>462.0</ele><time>2026-04-06T11:54:19.501Z</time></trkpt><trkpt lat="48.5629483" lon="8.992491"><ele>462.0</ele><time>2026-04-06T11:54:21.516Z</time></trkpt><trkpt lat="48.5629576" lon="8.9923806"><ele>462.0</ele><time>2026-04-06T11:54:23.507Z</time></trkpt><trkpt lat="48.5629502" lon="8.9922688"><ele>462.0</ele><time>2026-04-06T11:54:25.501Z</time></trkpt><trkpt lat="48.5629512" lon="8.99214"><ele>462.0</ele><time>2026-04-06T11:54:27.486Z</time></trkpt><trkpt lat="48.5629457" lon="8.9920005"><ele>462.8</ele><time>2026-04-06T11:54:29.475Z</time></trkpt><trkpt lat="48.5629321" lon="8.9918836"><ele>463.6</ele><time>2026-04-06T11:54:31.494Z</time></trkpt><trkpt lat="48.5629286" lon="8.9917156"><ele>464.40000000000003</ele><time>2026-04-06T11:54:33.482Z</time></trkpt><trkpt lat="48.5629045" lon="8.9915511"><ele>465.20000000000005</ele><time>2026-04-06T11:54:35.483Z</time></trkpt><trkpt lat="48.5628983" lon="8.9914564"><ele>466.0</ele><time>2026-04-06T11:54:37.5Z</time></trkpt><trkpt lat="48.5628894" lon="8.9913265"><ele>467.0</ele><time>2026-04-06T11:54:40.492Z</time></trkpt><trkpt lat="48.5628692" lon="8.9912015"><ele>468.0</ele><time>2026-04-06T11:54:42.501Z</time></trkpt><trkpt lat="48.5628349" lon="8.9910685"><ele>469.0</ele><time>2026-04-06T11:54:44.494Z</time></trkpt><trkpt lat="48.5627906" lon="8.9909679"><ele>470.0</ele><time>2026-04-06T11:54:46.477Z</time></trkpt><trkpt lat="48.5627468" lon="8.9908212"><ele>471.0</ele><time>2026-04-06T11:54:48.503Z</time></trkpt><trkpt lat="48.5626933" lon="8.9906709"><ele>471.6</ele><time>2026-04-06T11:54:50.509Z</time></trkpt><trkpt lat="48.5626609" lon="8.9905141"><ele>472.20000000000005</ele><time>2026-04-06T11:54:52.499Z</time></trkpt><trkpt lat="48.5626292" lon="8.9903655"><ele>472.79999999999995</ele><time>2026-04-06T11:54:54.507Z</time></trkpt><trkpt lat="48.5626095" lon="8.9902112"><ele>473.4</ele><time>2026-04-06T11:54:56.505Z</time></trkpt><trkpt lat="48.5625776" lon="8.9900735"><ele>474.0</ele><time>2026-04-06T11:54:58.512Z</time></trkpt><trkpt lat="48.5625562" lon="8.9899577"><ele>474.1666666666667</ele><time>2026-04-06T11:55:00.485Z</time></trkpt><trkpt lat="48.562537" lon="8.9898232"><ele>474.33333333333337</ele><time>2026-04-06T11:55:02.496Z</time></trkpt><trkpt lat="48.5625205" lon="8.989719"><ele>474.5</ele><time>2026-04-06T11:55:04.499Z</time></trkpt><trkpt lat="48.5624917" lon="8.9896185"><ele>474.6666666666667</ele><time>2026-04-06T11:55:06.511Z</time></trkpt><trkpt lat="48.5624488" lon="8.9894894"><ele>474.83333333333337</ele><time>2026-04-06T11:55:08.482Z</time></trkpt><trkpt lat="48.5624091" lon="8.9893446"><ele>475.0</ele><time>2026-04-06T11:55:10.493Z</time></trkpt><trkpt lat="48.5623635" lon="8.989225"><ele>475.00000000000006</ele><time>2026-04-06T11:55:12.499Z</time></trkpt><trkpt lat="48.5623246" lon="8.9891383"><ele>475.0</ele><time>2026-04-06T11:55:14.514Z</time></trkpt><trkpt lat="48.5622849" lon="8.9890003"><ele>475.0</ele><time>2026-04-06T11:55:17.502Z</time></trkpt><trkpt lat="48.5622377" lon="8.9888901"><ele>475.0</ele><time>2026-04-06T11:55:19.493Z</time></trkpt><trkpt lat="48.5622082" lon="8.9887486"><ele>475.00000000000006</ele><time>2026-04-06T11:55:21.507Z</time></trkpt><trkpt lat="48.5621648" lon="8.9886313"><ele>475.0</ele><time>2026-04-06T11:55:23.51Z</time></trkpt><trkpt lat="48.5621104" lon="8.9885023"><ele>475.0</ele><time>2026-04-06T11:55:25.49Z</time></trkpt><trkpt lat="48.5620714" lon="8.9883614"><ele>475.0</ele><time>2026-04-06T11:55:27.509Z</time></trkpt><trkpt lat="48.5620485" lon="8.988241"><ele>475.0</ele><time>2026-04-06T11:55:29.505Z</time></trkpt><trkpt lat="48.5620285" lon="8.9881054"><ele>475.0</ele><time>2026-04-06T11:55:31.511Z</time></trkpt><trkpt lat="48.5620168" lon="8.9879641"><ele>475.0</ele><time>2026-04-06T11:55:33.462Z</time></trkpt><trkpt lat="48.5619945" lon="8.9878194"><ele>475.1666666666667</ele><time>2026-04-06T11:55:35.513Z</time></trkpt><trkpt lat="48.5619713" lon="8.9876735"><ele>475.33333333333337</ele><time>2026-04-06T11:55:37.513Z</time></trkpt><trkpt lat="48.5619781" lon="8.9875435"><ele>475.5</ele><time>2026-04-06T11:55:39.517Z</time></trkpt><trkpt lat="48.5619685" lon="8.9874028"><ele>475.66666666666663</ele><time>2026-04-06T11:55:41.497Z</time></trkpt><trkpt lat="48.5619635" lon="8.9872666"><ele>475.8333333333333</ele><time>2026-04-06T11:55:43.489Z</time></trkpt><trkpt lat="48.5619675" lon="8.9871464"><ele>476.0</ele><time>2026-04-06T11:55:45.504Z</time></trkpt><trkpt lat="48.5619423" lon="8.9870053"><ele>476.0</ele><time>2026-04-06T11:55:47.513Z</time></trkpt><trkpt lat="48.561914" lon="8.9869152"><ele>476.0</ele><time>2026-04-06T11:55:48.504Z</time></trkpt><trkpt lat="48.5618848" lon="8.9867492"><ele>476.0</ele><time>2026-04-06T11:55:50.525Z</time></trkpt><trkpt lat="48.5618523" lon="8.9865938"><ele>476.0</ele><time>2026-04-06T11:55:52.502Z</time></trkpt><trkpt lat="48.5618303" lon="8.9864736"><ele>476.0</ele><time>2026-04-06T11:55:54.497Z</time></trkpt><trkpt lat="48.5618183" lon="8.9863425"><ele>475.8333333333333</ele><time>2026-04-06T11:55:56.474Z</time></trkpt><trkpt lat="48.5618175" lon="8.9862033"><ele>475.66666666666663</ele><time>2026-04-06T11:55:58.504Z</time></trkpt><trkpt lat="48.5618187" lon="8.9860756"><ele>475.5</ele><time>2026-04-06T11:56:00.493Z</time></trkpt><trkpt lat="48.5618065" lon="8.9859563"><ele>475.33333333333337</ele><time>2026-04-06T11:56:02.508Z</time></trkpt><trkpt lat="48.5617955" lon="8.9858178"><ele>475.1666666666667</ele><time>2026-04-06T11:56:04.512Z</time></trkpt><trkpt lat="48.5617786" lon="8.9856931"><ele>475.0</ele><time>2026-04-06T11:56:06.48Z</time></trkpt><trkpt lat="48.5617737" lon="8.9855865"><ele>475.1666666666667</ele><time>2026-04-06T11:56:08.512Z</time></trkpt><trkpt lat="48.5617669" lon="8.9854669"><ele>475.33333333333337</ele><time>2026-04-06T11:56:10.522Z</time></trkpt><trkpt lat="48.5617597" lon="8.9853295"><ele>475.5</ele><time>2026-04-06T11:56:12.508Z</time></trkpt><trkpt lat="48.5617427" lon="8.985198"><ele>475.66666666666663</ele><time>2026-04-06T11:56:14.511Z</time></trkpt><trkpt lat="48.5617291" lon="8.9850635"><ele>475.8333333333333</ele><time>2026-04-06T11:56:16.497Z</time></trkpt><trkpt lat="48.5617017" lon="8.984942"><ele>476.0</ele><time>2026-04-06T11:56:18.52Z</time></trkpt><trkpt lat="48.5616803" lon="8.9848168"><ele>475.99999999999994</ele><time>2026-04-06T11:56:20.518Z</time></trkpt><trkpt lat="48.5616657" lon="8.9846852"><ele>476.0</ele><time>2026-04-06T11:56:22.522Z</time></trkpt><trkpt lat="48.5616448" lon="8.9845634"><ele>476.0</ele><time>2026-04-06T11:56:24.457Z</time></trkpt><trkpt lat="48.5616295" lon="8.9844649"><ele>476.0</ele><time>2026-04-06T11:56:26.475Z</time></trkpt><trkpt lat="48.5616051" lon="8.9843427"><ele>475.99999999999994</ele><time>2026-04-06T11:56:28.53Z</time></trkpt><trkpt lat="48.5615934" lon="8.9842276"><ele>476.0</ele><time>2026-04-06T11:56:30.503Z</time></trkpt><trkpt lat="48.5615733" lon="8.9841232"><ele>475.66666666666663</ele><time>2026-04-06T11:56:32.491Z</time></trkpt><trkpt lat="48.5615525" lon="8.9840115"><ele>475.3333333333333</ele><time>2026-04-06T11:56:34.516Z</time></trkpt><trkpt lat="48.5615345" lon="8.9838958"><ele>475.0</ele><time>2026-04-06T11:56:36.474Z</time></trkpt><trkpt lat="48.5614956" lon="8.9837881"><ele>474.66666666666663</ele><time>2026-04-06T11:56:38.475Z</time></trkpt><trkpt lat="48.5614647" lon="8.9836979"><ele>474.3333333333333</ele><time>2026-04-06T11:56:40.473Z</time></trkpt><trkpt lat="48.5614419" lon="8.9836064"><ele>474.0</ele><time>2026-04-06T11:56:42.472Z</time></trkpt><trkpt lat="48.5614079" lon="8.9834805"><ele>474.0</ele><time>2026-04-06T11:56:44.472Z</time></trkpt><trkpt lat="48.5613857" lon="8.9833688"><ele>474.0</ele><time>2026-04-06T11:56:46.468Z</time></trkpt><trkpt lat="48.5613605" lon="8.9832547"><ele>474.0</ele><time>2026-04-06T11:56:48.5Z</time></trkpt><trkpt lat="48.5613408" lon="8.9831375"><ele>474.0</ele><time>2026-04-06T11:56:50.504Z</time></trkpt><trkpt lat="48.5613014" lon="8.9830047"><ele>474.0</ele><time>2026-04-06T11:56:52.497Z</time></trkpt><trkpt lat="48.5612585" lon="8.9828759"><ele>474.0</ele><time>2026-04-06T11:56:54.51Z</time></trkpt><trkpt lat="48.5612184" lon="8.9827252"><ele>474.2</ele><time>2026-04-06T11:56:56.48Z</time></trkpt><trkpt lat="48.561177" lon="8.9825636"><ele>474.4</ele><time>2026-04-06T11:56:58.495Z</time></trkpt><trkpt lat="48.5611346" lon="8.9823793"><ele>474.6</ele><time>2026-04-06T11:57:00.481Z</time></trkpt><trkpt lat="48.5611126" lon="8.9822723"><ele>474.8</ele><time>2026-04-06T11:57:01.512Z</time></trkpt><trkpt lat="48.5610835" lon="8.9821529"><ele>475.0</ele><time>2026-04-06T11:57:02.51Z</time></trkpt><trkpt lat="48.5610592" lon="8.9820297"><ele>475.0</ele><time>2026-04-06T11:57:03.49Z</time></trkpt><trkpt lat="48.5610397" lon="8.9819"><ele>475.0</ele><time>2026-04-06T11:57:04.494Z</time></trkpt><trkpt lat="48.5610214" lon="8.9817607"><ele>475.0</ele><time>2026-04-06T11:57:05.498Z</time></trkpt><trkpt lat="48.561011" lon="8.9816164"><ele>475.0</ele><time>2026-04-06T11:57:06.477Z</time></trkpt><trkpt lat="48.5610091" lon="8.9814678"><ele>475.0</ele><time>2026-04-06T11:57:07.511Z</time></trkpt><trkpt lat="48.5610111" lon="8.9812984"><ele>473.75</ele><time>2026-04-06T11:57:08.49Z</time></trkpt><trkpt lat="48.5610106" lon="8.9811341"><ele>472.5</ele><time>2026-04-06T11:57:09.49Z</time></trkpt><trkpt lat="48.561001" lon="8.9809669"><ele>471.25</ele><time>2026-04-06T11:57:10.484Z</time></trkpt><trkpt lat="48.5609784" lon="8.9807928"><ele>470.0</ele><time>2026-04-06T11:57:11.463Z</time></trkpt><trkpt lat="48.5609403" lon="8.9806287"><ele>468.5</ele><time>2026-04-06T11:57:12.475Z</time></trkpt><trkpt lat="48.5608839" lon="8.9804731"><ele>467.0</ele><time>2026-04-06T11:57:13.508Z</time></trkpt><trkpt lat="48.5608042" lon="8.9803322"><ele>465.5</ele><time>2026-04-06T11:57:14.501Z</time></trkpt><trkpt lat="48.5607154" lon="8.9802091"><ele>464.0</ele><time>2026-04-06T11:57:15.501Z</time></trkpt><trkpt lat="48.5606238" lon="8.9800945"><ele>466.5</ele><time>2026-04-06T11:57:16.47Z</time></trkpt><trkpt lat="48.5605251" lon="8.9799862"><ele>469.0</ele><time>2026-04-06T11:57:17.483Z</time></trkpt><trkpt lat="48.5604215" lon="8.9798909"><ele>471.5</ele><time>2026-04-06T11:57:18.502Z</time></trkpt><trkpt lat="48.5603192" lon="8.9797842"><ele>474.0</ele><time>2026-04-06T11:57:19.502Z</time></trkpt><trkpt lat="48.5602135" lon="8.9796679"><ele>468.25</ele><time>2026-04-06T11:57:20.502Z</time></trkpt><trkpt lat="48.5601083" lon="8.9795599"><ele>462.5</ele><time>2026-04-06T11:57:21.471Z</time></trkpt><trkpt lat="48.5600024" lon="8.9794444"><ele>456.75</ele><time>2026-04-06T11:57:22.5Z</time></trkpt><trkpt lat="48.5598989" lon="8.9793285"><ele>451.0</ele><time>2026-04-06T11:57:23.495Z</time></trkpt><trkpt lat="48.5597993" lon="8.9792086"><ele>451.5</ele><time>2026-04-06T11:57:24.492Z</time></trkpt><trkpt lat="48.5597021" lon="8.9790871"><ele>452.0</ele><time>2026-04-06T11:57:25.471Z</time></trkpt><trkpt lat="48.5596025" lon="8.9789544"><ele>452.5</ele><time>2026-04-06T11:57:26.477Z</time></trkpt><trkpt lat="48.5595129" lon="8.9788134"><ele>453.0</ele><time>2026-04-06T11:57:27.451Z</time></trkpt><trkpt lat="48.5594287" lon="8.9786607"><ele>449.0</ele><time>2026-04-06T11:57:28.464Z</time></trkpt><trkpt lat="48.559359" lon="8.9784963"><ele>445.0</ele><time>2026-04-06T11:57:29.469Z</time></trkpt><trkpt lat="48.5593052" lon="8.9783144"><ele>441.0</ele><time>2026-04-06T11:57:30.476Z</time></trkpt><trkpt lat="48.5592565" lon="8.9781212"><ele>437.0</ele><time>2026-04-06T11:57:31.45Z</time></trkpt><trkpt lat="48.5592177" lon="8.9779282"><ele>437.0</ele><time>2026-04-06T11:57:32.476Z</time></trkpt><trkpt lat="48.5591822" lon="8.9777329"><ele>437.0</ele><time>2026-04-06T11:57:33.484Z</time></trkpt><trkpt lat="48.5591441" lon="8.9775334"><ele>437.0</ele><time>2026-04-06T11:57:34.455Z</time></trkpt><trkpt lat="48.5591203" lon="8.9773356"><ele>437.0</ele><time>2026-04-06T11:57:35.476Z</time></trkpt><trkpt lat="48.5591184" lon="8.9771345"><ele>436.25</ele><time>2026-04-06T11:57:36.485Z</time></trkpt><trkpt lat="48.5591231" lon="8.9769346"><ele>435.5</ele><time>2026-04-06T11:57:37.469Z</time></trkpt><trkpt lat="48.5591355" lon="8.9767404"><ele>434.75</ele><time>2026-04-06T11:57:38.48Z</time></trkpt><trkpt lat="48.5591506" lon="8.9765529"><ele>434.0</ele><time>2026-04-06T11:57:39.49Z</time></trkpt><trkpt lat="48.5591601" lon="8.9763731"><ele>432.6</ele><time>2026-04-06T11:57:40.476Z</time></trkpt><trkpt lat="48.5591619" lon="8.9762345"><ele>431.2</ele><time>2026-04-06T11:57:41.487Z</time></trkpt><trkpt lat="48.559127" lon="8.9761169"><ele>429.80000000000007</ele><time>2026-04-06T11:57:42.461Z</time></trkpt><trkpt lat="48.5590614" lon="8.9760411"><ele>428.40000000000003</ele><time>2026-04-06T11:57:43.464Z</time></trkpt><trkpt lat="48.5589678" lon="8.9760065"><ele>427.0</ele><time>2026-04-06T11:57:44.477Z</time></trkpt><trkpt lat="48.5588829" lon="8.9759403"><ele>427.0</ele><time>2026-04-06T11:57:45.469Z</time></trkpt><trkpt lat="48.5587973" lon="8.9758539"><ele>427.00000000000006</ele><time>2026-04-06T11:57:46.457Z</time></trkpt><trkpt lat="48.55871" lon="8.9757809"><ele>427.00000000000006</ele><time>2026-04-06T11:57:47.46Z</time></trkpt><trkpt lat="48.5586172" lon="8.9757199"><ele>427.0</ele><time>2026-04-06T11:57:48.484Z</time></trkpt><trkpt lat="48.5585116" lon="8.9756907"><ele>427.0</ele><time>2026-04-06T11:57:49.487Z</time></trkpt><trkpt lat="48.5583984" lon="8.975688"><ele>424.5</ele><time>2026-04-06T11:57:50.492Z</time></trkpt><trkpt lat="48.5582804" lon="8.9756837"><ele>422.0</ele><time>2026-04-06T11:57:51.503Z</time></trkpt><trkpt lat="48.5581598" lon="8.9756785"><ele>419.5</ele><time>2026-04-06T11:57:52.512Z</time></trkpt><trkpt lat="48.5580389" lon="8.97567"><ele>417.0</ele><time>2026-04-06T11:57:53.499Z</time></trkpt><trkpt lat="48.5579156" lon="8.975643"><ele>415.25</ele><time>2026-04-06T11:57:54.48Z</time></trkpt><trkpt lat="48.5577882" lon="8.9756244"><ele>413.5</ele><time>2026-04-06T11:57:55.503Z</time></trkpt><trkpt lat="48.5576642" lon="8.9755884"><ele>411.75</ele><time>2026-04-06T11:57:56.457Z</time></trkpt><trkpt lat="48.5575386" lon="8.9755513"><ele>410.0</ele><time>2026-04-06T11:57:57.46Z</time></trkpt><trkpt lat="48.5574114" lon="8.9755129"><ele>410.0</ele><time>2026-04-06T11:57:58.513Z</time></trkpt><trkpt lat="48.5572813" lon="8.9754748"><ele>410.0</ele><time>2026-04-06T11:57:59.515Z</time></trkpt><trkpt lat="48.5571514" lon="8.9754174"><ele>410.0</ele><time>2026-04-06T11:58:00.483Z</time></trkpt><trkpt lat="48.557027" lon="8.975358"><ele>410.0</ele><time>2026-04-06T11:58:01.511Z</time></trkpt><trkpt lat="48.5569036" lon="8.9753017"><ele>408.5</ele><time>2026-04-06T11:58:02.505Z</time></trkpt><trkpt lat="48.5567827" lon="8.9752459"><ele>407.0</ele><time>2026-04-06T11:58:03.514Z</time></trkpt><trkpt lat="48.5566648" lon="8.9751818"><ele>405.5</ele><time>2026-04-06T11:58:04.502Z</time></trkpt><trkpt lat="48.5565524" lon="8.9751225"><ele>404.0</ele><time>2026-04-06T11:58:05.497Z</time></trkpt><trkpt lat="48.5564333" lon="8.9750475"><ele>403.75</ele><time>2026-04-06T11:58:06.498Z</time></trkpt><trkpt lat="48.5563166" lon="8.9749761"><ele>403.5</ele><time>2026-04-06T11:58:07.496Z</time></trkpt><trkpt lat="48.5562003" lon="8.9749176"><ele>403.25</ele><time>2026-04-06T11:58:08.505Z</time></trkpt><trkpt lat="48.5560886" lon="8.974862"><ele>403.0</ele><time>2026-04-06T11:58:09.506Z</time></trkpt><trkpt lat="48.5559881" lon="8.9748159"><ele>402.0</ele><time>2026-04-06T11:58:10.505Z</time></trkpt><trkpt lat="48.5558932" lon="8.974799"><ele>401.0</ele><time>2026-04-06T11:58:11.493Z</time></trkpt><trkpt lat="48.5557859" lon="8.974803"><ele>400.0</ele><time>2026-04-06T11:58:12.514Z</time></trkpt><trkpt lat="48.5556824" lon="8.9748012"><ele>399.0</ele><time>2026-04-06T11:58:13.508Z</time></trkpt><trkpt lat="48.5555868" lon="8.9747724"><ele>398.0</ele><time>2026-04-06T11:58:14.502Z</time></trkpt><trkpt lat="48.5554925" lon="8.9747088"><ele>398.0</ele><time>2026-04-06T11:58:15.501Z</time></trkpt><trkpt lat="48.5554141" lon="8.9746187"><ele>398.0</ele><time>2026-04-06T11:58:16.486Z</time></trkpt><trkpt lat="48.5553296" lon="8.9745367"><ele>398.0</ele><time>2026-04-06T11:58:17.503Z</time></trkpt><trkpt lat="48.5552414" lon="8.9744647"><ele>398.0</ele><time>2026-04-06T11:58:18.465Z</time></trkpt><trkpt lat="48.5551569" lon="8.9743904"><ele>398.0</ele><time>2026-04-06T11:58:19.506Z</time></trkpt><trkpt lat="48.555073" lon="8.9743179"><ele>397.4</ele><time>2026-04-06T11:58:20.504Z</time></trkpt><trkpt lat="48.5549932" lon="8.9742402"><ele>396.79999999999995</ele><time>2026-04-06T11:58:21.507Z</time></trkpt><trkpt lat="48.5549085" lon="8.9741625"><ele>396.2</ele><time>2026-04-06T11:58:22.501Z</time></trkpt><trkpt lat="48.5548191" lon="8.9740928"><ele>395.6</ele><time>2026-04-06T11:58:23.5Z</time></trkpt><trkpt lat="48.5547283" lon="8.9740318"><ele>395.0</ele><time>2026-04-06T11:58:24.491Z</time></trkpt><trkpt lat="48.5546317" lon="8.973985"><ele>394.4</ele><time>2026-04-06T11:58:25.503Z</time></trkpt><trkpt lat="48.5545353" lon="8.9739667"><ele>393.8</ele><time>2026-04-06T11:58:26.496Z</time></trkpt><trkpt lat="48.5544343" lon="8.9739747"><ele>393.20000000000005</ele><time>2026-04-06T11:58:27.505Z</time></trkpt><trkpt lat="48.554342" lon="8.9739934"><ele>392.6</ele><time>2026-04-06T11:58:28.496Z</time></trkpt><trkpt lat="48.5542571" lon="8.9740131"><ele>392.0</ele><time>2026-04-06T11:58:29.5Z</time></trkpt><trkpt lat="48.554172" lon="8.9740339"><ele>392.0</ele><time>2026-04-06T11:58:30.497Z</time></trkpt><trkpt lat="48.5540952" lon="8.9740547"><ele>392.0</ele><time>2026-04-06T11:58:31.502Z</time></trkpt><trkpt lat="48.5540219" lon="8.9740785"><ele>392.0</ele><time>2026-04-06T11:58:32.498Z</time></trkpt><trkpt lat="48.5539523" lon="8.9741094"><ele>392.0</ele><time>2026-04-06T11:58:33.489Z</time></trkpt><trkpt lat="48.5538874" lon="8.9741291"><ele>392.0</ele><time>2026-04-06T11:58:34.503Z</time></trkpt><trkpt lat="48.553819" lon="8.9741415"><ele>392.0</ele><time>2026-04-06T11:58:35.487Z</time></trkpt><trkpt lat="48.5537562" lon="8.974154"><ele>392.0</ele><time>2026-04-06T11:58:36.459Z</time></trkpt><trkpt lat="48.5536536" lon="8.9741768"><ele>393.0</ele><time>2026-04-06T11:58:38.499Z</time></trkpt><trkpt lat="48.5535693" lon="8.9741275"><ele>394.0</ele><time>2026-04-06T11:58:40.502Z</time></trkpt><trkpt lat="48.5534974" lon="8.9740134"><ele>395.0</ele><time>2026-04-06T11:58:42.501Z</time></trkpt><trkpt lat="48.553426" lon="8.9739066"><ele>396.0</ele><time>2026-04-06T11:58:44.507Z</time></trkpt><trkpt lat="48.5533389" lon="8.9738007"><ele>397.0</ele><time>2026-04-06T11:58:46.505Z</time></trkpt><trkpt lat="48.5532433" lon="8.9736953"><ele>397.0</ele><time>2026-04-06T11:58:48.466Z</time></trkpt><trkpt lat="48.5531957" lon="8.9736297"><ele>397.0</ele><time>2026-04-06T11:58:49.511Z</time></trkpt><trkpt lat="48.5531463" lon="8.9735628"><ele>397.0</ele><time>2026-04-06T11:58:50.506Z</time></trkpt><trkpt lat="48.5530968" lon="8.9734888"><ele>397.0</ele><time>2026-04-06T11:58:51.511Z</time></trkpt><trkpt lat="48.5530501" lon="8.9734074"><ele>397.0</ele><time>2026-04-06T11:58:52.506Z</time></trkpt><trkpt lat="48.553003" lon="8.9733195"><ele>397.0</ele><time>2026-04-06T11:58:53.501Z</time></trkpt><trkpt lat="48.5529646" lon="8.9732385"><ele>397.0</ele><time>2026-04-06T11:58:54.5Z</time></trkpt><trkpt lat="48.5529219" lon="8.9731473"><ele>396.00000000000006</ele><time>2026-04-06T11:58:55.502Z</time></trkpt><trkpt lat="48.5528859" lon="8.973064"><ele>395.0</ele><time>2026-04-06T11:58:56.505Z</time></trkpt><trkpt lat="48.5528314" lon="8.9729469"><ele>394.0</ele><time>2026-04-06T11:58:58.511Z</time></trkpt><trkpt lat="48.5527925" lon="8.9728539"><ele>393.0</ele><time>2026-04-06T11:59:00.479Z</time></trkpt><trkpt lat="48.5527454" lon="8.9727325"><ele>392.00000000000006</ele><time>2026-04-06T11:59:02.504Z</time></trkpt><trkpt lat="48.5526842" lon="8.9725995"><ele>391.0</ele><time>2026-04-06T11:59:04.503Z</time></trkpt><trkpt lat="48.5526172" lon="8.9724616"><ele>390.33333333333337</ele><time>2026-04-06T11:59:06.491Z</time></trkpt><trkpt lat="48.5525362" lon="8.9723106"><ele>389.6666666666667</ele><time>2026-04-06T11:59:08.481Z</time></trkpt><trkpt lat="48.5524923" lon="8.9722364"><ele>389.0</ele><time>2026-04-06T11:59:09.511Z</time></trkpt><trkpt lat="48.5524436" lon="8.9721596"><ele>388.33333333333337</ele><time>2026-04-06T11:59:10.497Z</time></trkpt><trkpt lat="48.5523945" lon="8.9720847"><ele>387.6666666666667</ele><time>2026-04-06T11:59:11.504Z</time></trkpt><trkpt lat="48.5523444" lon="8.9720096"><ele>387.0</ele><time>2026-04-06T11:59:12.515Z</time></trkpt><trkpt lat="48.5522972" lon="8.9719319"><ele>387.0</ele><time>2026-04-06T11:59:13.499Z</time></trkpt><trkpt lat="48.552248" lon="8.9718441"><ele>387.0</ele><time>2026-04-06T11:59:14.499Z</time></trkpt><trkpt lat="48.5521996" lon="8.9717513"><ele>387.0</ele><time>2026-04-06T11:59:15.505Z</time></trkpt><trkpt lat="48.5521577" lon="8.9716583"><ele>387.0</ele><time>2026-04-06T11:59:16.471Z</time></trkpt><trkpt lat="48.5521138" lon="8.9715657"><ele>387.0</ele><time>2026-04-06T11:59:17.505Z</time></trkpt><trkpt lat="48.5520618" lon="8.9714812"><ele>387.0</ele><time>2026-04-06T11:59:18.463Z</time></trkpt><trkpt lat="48.5520139" lon="8.9713994"><ele>386.1666666666667</ele><time>2026-04-06T11:59:19.48Z</time></trkpt><trkpt lat="48.5519687" lon="8.9713228"><ele>385.3333333333333</ele><time>2026-04-06T11:59:20.502Z</time></trkpt><trkpt lat="48.5518859" lon="8.9711806"><ele>384.5</ele><time>2026-04-06T11:59:22.48Z</time></trkpt><trkpt lat="48.551841" lon="8.9711113"><ele>383.66666666666663</ele><time>2026-04-06T11:59:23.489Z</time></trkpt><trkpt lat="48.5518015" lon="8.9710307"><ele>382.8333333333333</ele><time>2026-04-06T11:59:24.487Z</time></trkpt><trkpt lat="48.5517758" lon="8.9709386"><ele>382.0</ele><time>2026-04-06T11:59:25.514Z</time></trkpt><trkpt lat="48.5517508" lon="8.9708481"><ele>382.0</ele><time>2026-04-06T11:59:26.499Z</time></trkpt><trkpt lat="48.551725" lon="8.9707604"><ele>382.0</ele><time>2026-04-06T11:59:27.475Z</time></trkpt><trkpt lat="48.551684" lon="8.970577"><ele>382.0</ele><time>2026-04-06T11:59:29.505Z</time></trkpt><trkpt lat="48.5516633" lon="8.9704772"><ele>382.0</ele><time>2026-04-06T11:59:30.52Z</time></trkpt><trkpt lat="48.5516448" lon="8.9703813"><ele>382.0</ele><time>2026-04-06T11:59:31.482Z</time></trkpt><trkpt lat="48.5516252" lon="8.9702839"><ele>382.0</ele><time>2026-04-06T11:59:32.5Z</time></trkpt><trkpt lat="48.5516029" lon="8.9701841"><ele>382.0</ele><time>2026-04-06T11:59:33.517Z</time></trkpt><trkpt lat="48.5515726" lon="8.9700852"><ele>382.0</ele><time>2026-04-06T11:59:34.502Z</time></trkpt><trkpt lat="48.5515499" lon="8.9699814"><ele>382.0</ele><time>2026-04-06T11:59:35.506Z</time></trkpt><trkpt lat="48.5515231" lon="8.9698779"><ele>382.0</ele><time>2026-04-06T11:59:36.503Z</time></trkpt><trkpt lat="48.5514958" lon="8.9697706"><ele>382.0</ele><time>2026-04-06T11:59:37.517Z</time></trkpt><trkpt lat="48.5514721" lon="8.9696661"><ele>382.0</ele><time>2026-04-06T11:59:38.511Z</time></trkpt><trkpt lat="48.5514508" lon="8.9695622"><ele>382.0</ele><time>2026-04-06T11:59:39.494Z</time></trkpt><trkpt lat="48.5514309" lon="8.9694614"><ele>382.0</ele><time>2026-04-06T11:59:40.506Z</time></trkpt><trkpt lat="48.5514071" lon="8.9693546"><ele>382.0</ele><time>2026-04-06T11:59:41.492Z</time></trkpt><trkpt lat="48.5513846" lon="8.9692487"><ele>382.0</ele><time>2026-04-06T11:59:42.509Z</time></trkpt><trkpt lat="48.5513708" lon="8.9691369"><ele>382.0</ele><time>2026-04-06T11:59:43.507Z</time></trkpt><trkpt lat="48.5513596" lon="8.9690283"><ele>382.0</ele><time>2026-04-06T11:59:44.505Z</time></trkpt><trkpt lat="48.551342" lon="8.9689245"><ele>382.0</ele><time>2026-04-06T11:59:45.507Z</time></trkpt><trkpt lat="48.5513312" lon="8.968816"><ele>382.0</ele><time>2026-04-06T11:59:46.512Z</time></trkpt><trkpt lat="48.5513187" lon="8.9687069"><ele>381.8571428571429</ele><time>2026-04-06T11:59:47.507Z</time></trkpt><trkpt lat="48.5513074" lon="8.9686024"><ele>381.71428571428567</ele><time>2026-04-06T11:59:48.5Z</time></trkpt><trkpt lat="48.5512983" lon="8.9684944"><ele>381.57142857142856</ele><time>2026-04-06T11:59:49.494Z</time></trkpt><trkpt lat="48.5512922" lon="8.9683876"><ele>381.42857142857144</ele><time>2026-04-06T11:59:50.509Z</time></trkpt><trkpt lat="48.551284" lon="8.968271"><ele>381.28571428571433</ele><time>2026-04-06T11:59:51.491Z</time></trkpt><trkpt lat="48.5512799" lon="8.9681618"><ele>381.1428571428571</ele><time>2026-04-06T11:59:52.485Z</time></trkpt><trkpt lat="48.5512756" lon="8.968051"><ele>381.0</ele><time>2026-04-06T11:59:53.514Z</time></trkpt><trkpt lat="48.5512717" lon="8.9679559"><ele>380.7142857142857</ele><time>2026-04-06T11:59:54.508Z</time></trkpt><trkpt lat="48.5512796" lon="8.9678485"><ele>380.42857142857144</ele><time>2026-04-06T11:59:55.512Z</time></trkpt><trkpt lat="48.5512934" lon="8.9677349"><ele>380.14285714285717</ele><time>2026-04-06T11:59:56.503Z</time></trkpt><trkpt lat="48.5512999" lon="8.9676256"><ele>379.8571428571429</ele><time>2026-04-06T11:59:57.504Z</time></trkpt><trkpt lat="48.5513101" lon="8.967511"><ele>379.57142857142856</ele><time>2026-04-06T11:59:58.483Z</time></trkpt><trkpt lat="48.5513205" lon="8.9673964"><ele>379.28571428571433</ele><time>2026-04-06T11:59:59.476Z</time></trkpt><trkpt lat="48.5513361" lon="8.9672998"><ele>379.0</ele><time>2026-04-06T12:00:00.496Z</time></trkpt><trkpt lat="48.5513588" lon="8.9671974"><ele>378.8333333333333</ele><time>2026-04-06T12:00:01.497Z</time></trkpt><trkpt lat="48.551368" lon="8.9671003"><ele>378.66666666666663</ele><time>2026-04-06T12:00:02.51Z</time></trkpt><trkpt lat="48.5513748" lon="8.9670013"><ele>378.5</ele><time>2026-04-06T12:00:03.508Z</time></trkpt><trkpt lat="48.5513638" lon="8.9668496"><ele>378.3333333333333</ele><time>2026-04-06T12:00:05.514Z</time></trkpt><trkpt lat="48.5512915" lon="8.9667936"><ele>378.1666666666667</ele><time>2026-04-06T12:00:07.505Z</time></trkpt><trkpt lat="48.5511607" lon="8.9667768"><ele>378.0</ele><time>2026-04-06T12:00:09.479Z</time></trkpt><trkpt lat="48.5510943" lon="8.9667792"><ele>377.57142857142856</ele><time>2026-04-06T12:00:10.484Z</time></trkpt><trkpt lat="48.5510306" lon="8.9667868"><ele>377.1428571428571</ele><time>2026-04-06T12:00:11.513Z</time></trkpt><trkpt lat="48.5509644" lon="8.9667929"><ele>376.7142857142857</ele><time>2026-04-06T12:00:12.476Z</time></trkpt><trkpt lat="48.5508935" lon="8.9668031"><ele>376.2857142857143</ele><time>2026-04-06T12:00:13.508Z</time></trkpt><trkpt lat="48.5508202" lon="8.9668022"><ele>375.85714285714283</ele><time>2026-04-06T12:00:14.497Z</time></trkpt><trkpt lat="48.5507562" lon="8.9668034"><ele>375.42857142857144</ele><time>2026-04-06T12:00:15.499Z</time></trkpt><trkpt lat="48.5506858" lon="8.9668065"><ele>375.0</ele><time>2026-04-06T12:00:16.502Z</time></trkpt><trkpt lat="48.5506174" lon="8.9668029"><ele>375.0</ele><time>2026-04-06T12:00:17.466Z</time></trkpt><trkpt lat="48.550545" lon="8.9667982"><ele>375.0</ele><time>2026-04-06T12:00:18.517Z</time></trkpt><trkpt lat="48.5504749" lon="8.966794"><ele>375.0</ele><time>2026-04-06T12:00:19.514Z</time></trkpt><trkpt lat="48.5504066" lon="8.9667985"><ele>375.0</ele><time>2026-04-06T12:00:20.504Z</time></trkpt><trkpt lat="48.5503402" lon="8.9667972"><ele>375.0</ele><time>2026-04-06T12:00:21.472Z</time></trkpt><trkpt lat="48.5502723" lon="8.9667723"><ele>375.0</ele><time>2026-04-06T12:00:22.504Z</time></trkpt><trkpt lat="48.5502113" lon="8.96672"><ele>375.0</ele><time>2026-04-06T12:00:23.503Z</time></trkpt><trkpt lat="48.5501659" lon="8.9666469"><ele>374.6666666666667</ele><time>2026-04-06T12:00:24.482Z</time></trkpt><trkpt lat="48.5501476" lon="8.9664527"><ele>374.3333333333333</ele><time>2026-04-06T12:00:26.508Z</time></trkpt><trkpt lat="48.5501399" lon="8.9663556"><ele>374.0</ele><time>2026-04-06T12:00:27.502Z</time></trkpt><trkpt lat="48.5501266" lon="8.9662588"><ele>373.66666666666663</ele><time>2026-04-06T12:00:28.504Z</time></trkpt><trkpt lat="48.5501112" lon="8.9661574"><ele>373.3333333333333</ele><time>2026-04-06T12:00:29.509Z</time></trkpt><trkpt lat="48.5500968" lon="8.9660632"><ele>373.0</ele><time>2026-04-06T12:00:30.505Z</time></trkpt><trkpt lat="48.5500753" lon="8.9659683"><ele>373.2</ele><time>2026-04-06T12:00:31.523Z</time></trkpt><trkpt lat="48.5500476" lon="8.9657838"><ele>373.4</ele><time>2026-04-06T12:00:33.532Z</time></trkpt><trkpt lat="48.5500178" lon="8.9655971"><ele>373.59999999999997</ele><time>2026-04-06T12:00:35.512Z</time></trkpt><trkpt lat="48.5500042" lon="8.9655037"><ele>373.79999999999995</ele><time>2026-04-06T12:00:36.503Z</time></trkpt><trkpt lat="48.5499629" lon="8.965319"><ele>374.0</ele><time>2026-04-06T12:00:38.522Z</time></trkpt><trkpt lat="48.5499338" lon="8.9651496"><ele>374.2</ele><time>2026-04-06T12:00:40.532Z</time></trkpt><trkpt lat="48.5499044" lon="8.9649822"><ele>374.4</ele><time>2026-04-06T12:00:42.468Z</time></trkpt><trkpt lat="48.5498777" lon="8.9648209"><ele>374.6</ele><time>2026-04-06T12:00:44.472Z</time></trkpt><trkpt lat="48.5498385" lon="8.9646651"><ele>374.8</ele><time>2026-04-06T12:00:46.504Z</time></trkpt><trkpt lat="48.5498222" lon="8.9645189"><ele>375.0</ele><time>2026-04-06T12:00:48.51Z</time></trkpt><trkpt lat="48.5497994" lon="8.9643687"><ele>375.0</ele><time>2026-04-06T12:00:50.504Z</time></trkpt><trkpt lat="48.5497694" lon="8.9642292"><ele>375.0</ele><time>2026-04-06T12:00:52.496Z</time></trkpt><trkpt lat="48.5497498" lon="8.964096"><ele>375.0</ele><time>2026-04-06T12:00:54.505Z</time></trkpt><trkpt lat="48.5497292" lon="8.9639708"><ele>375.0</ele><time>2026-04-06T12:00:56.506Z</time></trkpt><trkpt lat="48.5497009" lon="8.9638363"><ele>375.0</ele><time>2026-04-06T12:00:58.507Z</time></trkpt><trkpt lat="48.5496564" lon="8.9637144"><ele>375.1666666666667</ele><time>2026-04-06T12:01:00.48Z</time></trkpt><trkpt lat="48.5495883" lon="8.9636217"><ele>375.3333333333333</ele><time>2026-04-06T12:01:02.511Z</time></trkpt><trkpt lat="48.5495016" lon="8.9636066"><ele>375.5</ele><time>2026-04-06T12:01:04.523Z</time></trkpt><trkpt lat="48.5494323" lon="8.9636749"><ele>375.66666666666663</ele><time>2026-04-06T12:01:06.492Z</time></trkpt><trkpt lat="48.5493577" lon="8.9637202"><ele>375.8333333333333</ele><time>2026-04-06T12:01:08.507Z</time></trkpt><trkpt lat="48.549264" lon="8.9637337"><ele>376.0</ele><time>2026-04-06T12:01:10.479Z</time></trkpt><trkpt lat="48.5491642" lon="8.9637347"><ele>375.6</ele><time>2026-04-06T12:01:12.517Z</time></trkpt><trkpt lat="48.5490594" lon="8.9637281"><ele>375.20000000000005</ele><time>2026-04-06T12:01:14.507Z</time></trkpt><trkpt lat="48.5489495" lon="8.9637174"><ele>374.79999999999995</ele><time>2026-04-06T12:01:16.505Z</time></trkpt><trkpt lat="48.5488338" lon="8.9637114"><ele>374.4</ele><time>2026-04-06T12:01:18.51Z</time></trkpt><trkpt lat="48.5487695" lon="8.963714"><ele>374.0</ele><time>2026-04-06T12:01:19.498Z</time></trkpt><trkpt lat="48.5487054" lon="8.9637118"><ele>373.7142857142857</ele><time>2026-04-06T12:01:20.515Z</time></trkpt><trkpt lat="48.548641" lon="8.9637006"><ele>373.42857142857144</ele><time>2026-04-06T12:01:21.51Z</time></trkpt><trkpt lat="48.548575" lon="8.9636999"><ele>373.14285714285717</ele><time>2026-04-06T12:01:22.477Z</time></trkpt><trkpt lat="48.548508" lon="8.9637039"><ele>372.8571428571429</ele><time>2026-04-06T12:01:23.495Z</time></trkpt><trkpt lat="48.5484438" lon="8.9637024"><ele>372.57142857142856</ele><time>2026-04-06T12:01:24.496Z</time></trkpt><trkpt lat="48.5483768" lon="8.9636978"><ele>372.28571428571433</ele><time>2026-04-06T12:01:25.498Z</time></trkpt><trkpt lat="48.5483111" lon="8.9636901"><ele>372.0</ele><time>2026-04-06T12:01:26.486Z</time></trkpt><trkpt lat="48.5481835" lon="8.9636704"><ele>372.00000000000006</ele><time>2026-04-06T12:01:28.511Z</time></trkpt><trkpt lat="48.5481173" lon="8.9636736"><ele>372.0</ele><time>2026-04-06T12:01:29.515Z</time></trkpt><trkpt lat="48.5480448" lon="8.9636739"><ele>372.0</ele><time>2026-04-06T12:01:30.501Z</time></trkpt><trkpt lat="48.5479744" lon="8.9636716"><ele>372.0</ele><time>2026-04-06T12:01:31.485Z</time></trkpt><trkpt lat="48.5479085" lon="8.9636669"><ele>372.0</ele><time>2026-04-06T12:01:32.512Z</time></trkpt><trkpt lat="48.5478418" lon="8.9636618"><ele>372.00000000000006</ele><time>2026-04-06T12:01:33.514Z</time></trkpt><trkpt lat="48.5477783" lon="8.9636653"><ele>372.0</ele><time>2026-04-06T12:01:34.496Z</time></trkpt><trkpt lat="48.5477152" lon="8.9636641"><ele>371.8</ele><time>2026-04-06T12:01:35.519Z</time></trkpt><trkpt lat="48.5476523" lon="8.9636563"><ele>371.6</ele><time>2026-04-06T12:01:36.515Z</time></trkpt><trkpt lat="48.5475313" lon="8.9636515"><ele>371.40000000000003</ele><time>2026-04-06T12:01:38.509Z</time></trkpt><trkpt lat="48.5474125" lon="8.9636466"><ele>371.20000000000005</ele><time>2026-04-06T12:01:40.51Z</time></trkpt><trkpt lat="48.5472909" lon="8.963644"><ele>371.0</ele><time>2026-04-06T12:01:42.508Z</time></trkpt><trkpt lat="48.5472278" lon="8.9636427"><ele>371.0</ele><time>2026-04-06T12:01:43.476Z</time></trkpt><trkpt lat="48.547165" lon="8.9636347"><ele>371.0</ele><time>2026-04-06T12:01:44.527Z</time></trkpt><trkpt lat="48.5471021" lon="8.9636277"><ele>371.0</ele><time>2026-04-06T12:01:45.511Z</time></trkpt><trkpt lat="48.5469757" lon="8.9636211"><ele>371.0</ele><time>2026-04-06T12:01:47.506Z</time></trkpt><trkpt lat="48.5469124" lon="8.9636169"><ele>371.0</ele><time>2026-04-06T12:01:48.512Z</time></trkpt><trkpt lat="48.5467978" lon="8.963613"><ele>371.0</ele><time>2026-04-06T12:01:50.512Z</time></trkpt><trkpt lat="48.5466849" lon="8.9636162"><ele>370.8</ele><time>2026-04-06T12:01:52.49Z</time></trkpt><trkpt lat="48.5465922" lon="8.9636065"><ele>370.6</ele><time>2026-04-06T12:01:54.493Z</time></trkpt><trkpt lat="48.5465015" lon="8.9635995"><ele>370.4</ele><time>2026-04-06T12:01:56.466Z</time></trkpt><trkpt lat="48.5464153" lon="8.9635939"><ele>370.2</ele><time>2026-04-06T12:01:58.5Z</time></trkpt><trkpt lat="48.5463242" lon="8.9635908"><ele>370.0</ele><time>2026-04-06T12:02:00.482Z</time></trkpt><trkpt lat="48.5462271" lon="8.9635863"><ele>369.8</ele><time>2026-04-06T12:02:02.513Z</time></trkpt><trkpt lat="48.5461301" lon="8.9635788"><ele>369.6</ele><time>2026-04-06T12:02:04.51Z</time></trkpt><trkpt lat="48.546027" lon="8.9635726"><ele>369.4</ele><time>2026-04-06T12:02:06.504Z</time></trkpt><trkpt lat="48.5459219" lon="8.9635592"><ele>369.2</ele><time>2026-04-06T12:02:08.532Z</time></trkpt><trkpt lat="48.5458165" lon="8.9635622"><ele>369.0</ele><time>2026-04-06T12:02:10.507Z</time></trkpt><trkpt lat="48.5457092" lon="8.9635649"><ele>369.0</ele><time>2026-04-06T12:02:12.5Z</time></trkpt><trkpt lat="48.5456008" lon="8.9635601"><ele>369.0</ele><time>2026-04-06T12:02:14.498Z</time></trkpt><trkpt lat="48.5454942" lon="8.9635471"><ele>369.0</ele><time>2026-04-06T12:02:16.48Z</time></trkpt><trkpt lat="48.5453859" lon="8.9635534"><ele>369.0</ele><time>2026-04-06T12:02:18.501Z</time></trkpt><trkpt lat="48.5452849" lon="8.9635291"><ele>369.0</ele><time>2026-04-06T12:02:20.493Z</time></trkpt><trkpt lat="48.5451818" lon="8.963524"><ele>368.5</ele><time>2026-04-06T12:02:22.513Z</time></trkpt><trkpt lat="48.5450688" lon="8.9635241"><ele>368.0</ele><time>2026-04-06T12:02:24.505Z</time></trkpt><trkpt lat="48.5449516" lon="8.9635175"><ele>367.5</ele><time>2026-04-06T12:02:26.496Z</time></trkpt><trkpt lat="48.5448365" lon="8.9634985"><ele>367.0</ele><time>2026-04-06T12:02:28.501Z</time></trkpt><trkpt lat="48.54471" lon="8.9634988"><ele>367.0</ele><time>2026-04-06T12:02:30.506Z</time></trkpt><trkpt lat="48.5446447" lon="8.9635002"><ele>367.0</ele><time>2026-04-06T12:02:31.488Z</time></trkpt><trkpt lat="48.5445719" lon="8.9634937"><ele>367.0</ele><time>2026-04-06T12:02:32.515Z</time></trkpt><trkpt lat="48.5445013" lon="8.9634822"><ele>367.0</ele><time>2026-04-06T12:02:33.507Z</time></trkpt><trkpt lat="48.5444278" lon="8.96347"><ele>367.0</ele><time>2026-04-06T12:02:34.5Z</time></trkpt><trkpt lat="48.5443568" lon="8.9634615"><ele>367.0</ele><time>2026-04-06T12:02:35.51Z</time></trkpt><trkpt lat="48.5442823" lon="8.9634565"><ele>367.0</ele><time>2026-04-06T12:02:36.481Z</time></trkpt><trkpt lat="48.5442055" lon="8.9634444"><ele>367.0</ele><time>2026-04-06T12:02:37.472Z</time></trkpt><trkpt lat="48.5441291" lon="8.9634369"><ele>367.0</ele><time>2026-04-06T12:02:38.485Z</time></trkpt><trkpt lat="48.5440526" lon="8.9634369"><ele>367.0</ele><time>2026-04-06T12:02:39.503Z</time></trkpt><trkpt lat="48.5439749" lon="8.9634306"><ele>367.0</ele><time>2026-04-06T12:02:40.499Z</time></trkpt><trkpt lat="48.5438961" lon="8.9634264"><ele>367.0</ele><time>2026-04-06T12:02:41.499Z</time></trkpt><trkpt lat="48.5438157" lon="8.9634196"><ele>367.0</ele><time>2026-04-06T12:02:42.506Z</time></trkpt><trkpt lat="48.5437343" lon="8.9634142"><ele>367.0</ele><time>2026-04-06T12:02:43.523Z</time></trkpt><trkpt lat="48.5436538" lon="8.9634089"><ele>367.0</ele><time>2026-04-06T12:02:44.507Z</time></trkpt><trkpt lat="48.5435727" lon="8.963403"><ele>367.0</ele><time>2026-04-06T12:02:45.496Z</time></trkpt><trkpt lat="48.5434942" lon="8.9633948"><ele>367.0</ele><time>2026-04-06T12:02:46.494Z</time></trkpt><trkpt lat="48.5434155" lon="8.9633839"><ele>367.0</ele><time>2026-04-06T12:02:47.503Z</time></trkpt><trkpt lat="48.5433407" lon="8.9633736"><ele>367.0</ele><time>2026-04-06T12:02:48.498Z</time></trkpt><trkpt lat="48.543266" lon="8.9633599"><ele>367.0</ele><time>2026-04-06T12:02:49.502Z</time></trkpt><trkpt lat="48.5431892" lon="8.9633487"><ele>367.0</ele><time>2026-04-06T12:02:50.507Z</time></trkpt><trkpt lat="48.5431123" lon="8.9633336"><ele>367.0</ele><time>2026-04-06T12:02:51.483Z</time></trkpt><trkpt lat="48.5430384" lon="8.9633105"><ele>367.0</ele><time>2026-04-06T12:02:52.494Z</time></trkpt><trkpt lat="48.5429632" lon="8.9632893"><ele>367.0</ele><time>2026-04-06T12:02:53.508Z</time></trkpt><trkpt lat="48.542889" lon="8.9632692"><ele>367.0</ele><time>2026-04-06T12:02:54.51Z</time></trkpt><trkpt lat="48.5428142" lon="8.963247"><ele>366.7142857142857</ele><time>2026-04-06T12:02:55.511Z</time></trkpt><trkpt lat="48.5427421" lon="8.9632212"><ele>366.42857142857144</ele><time>2026-04-06T12:02:56.505Z</time></trkpt><trkpt lat="48.5426687" lon="8.963196"><ele>366.14285714285717</ele><time>2026-04-06T12:02:57.498Z</time></trkpt><trkpt lat="48.5425962" lon="8.9631641"><ele>365.8571428571429</ele><time>2026-04-06T12:02:58.504Z</time></trkpt><trkpt lat="48.5425237" lon="8.9631356"><ele>365.57142857142856</ele><time>2026-04-06T12:02:59.492Z</time></trkpt><trkpt lat="48.5424524" lon="8.9631069"><ele>365.28571428571433</ele><time>2026-04-06T12:03:00.491Z</time></trkpt><trkpt lat="48.542382" lon="8.9630798"><ele>365.0</ele><time>2026-04-06T12:03:01.507Z</time></trkpt><trkpt lat="48.5423119" lon="8.9630434"><ele>365.00000000000006</ele><time>2026-04-06T12:03:02.509Z</time></trkpt><trkpt lat="48.5422413" lon="8.9630058"><ele>365.0</ele><time>2026-04-06T12:03:03.519Z</time></trkpt><trkpt lat="48.5421686" lon="8.962967"><ele>365.0</ele><time>2026-04-06T12:03:04.509Z</time></trkpt><trkpt lat="48.5421001" lon="8.9629235"><ele>365.0</ele><time>2026-04-06T12:03:05.494Z</time></trkpt><trkpt lat="48.5420326" lon="8.962876"><ele>365.0</ele><time>2026-04-06T12:03:06.502Z</time></trkpt><trkpt lat="48.5419619" lon="8.9628389"><ele>365.00000000000006</ele><time>2026-04-06T12:03:07.51Z</time></trkpt><trkpt lat="48.5418951" lon="8.9627967"><ele>365.0</ele><time>2026-04-06T12:03:08.523Z</time></trkpt><trkpt lat="48.5418276" lon="8.9627508"><ele>365.0</ele><time>2026-04-06T12:03:09.503Z</time></trkpt><trkpt lat="48.5417594" lon="8.9627044"><ele>365.0</ele><time>2026-04-06T12:03:10.502Z</time></trkpt><trkpt lat="48.5416892" lon="8.962654"><ele>365.0</ele><time>2026-04-06T12:03:11.501Z</time></trkpt><trkpt lat="48.5416193" lon="8.962603"><ele>365.0</ele><time>2026-04-06T12:03:12.506Z</time></trkpt><trkpt lat="48.5415488" lon="8.9625474"><ele>365.0</ele><time>2026-04-06T12:03:13.513Z</time></trkpt><trkpt lat="48.5414787" lon="8.9624946"><ele>365.0</ele><time>2026-04-06T12:03:14.519Z</time></trkpt><trkpt lat="48.5414082" lon="8.9624416"><ele>365.1666666666667</ele><time>2026-04-06T12:03:15.506Z</time></trkpt><trkpt lat="48.5413403" lon="8.9623894"><ele>365.33333333333337</ele><time>2026-04-06T12:03:16.503Z</time></trkpt><trkpt lat="48.541275" lon="8.9623313"><ele>365.5</ele><time>2026-04-06T12:03:17.505Z</time></trkpt><trkpt lat="48.5412086" lon="8.9622748"><ele>365.6666666666667</ele><time>2026-04-06T12:03:18.499Z</time></trkpt><trkpt lat="48.5411434" lon="8.9622102"><ele>365.8333333333333</ele><time>2026-04-06T12:03:19.517Z</time></trkpt><trkpt lat="48.5410793" lon="8.962151"><ele>366.0</ele><time>2026-04-06T12:03:20.492Z</time></trkpt><trkpt lat="48.5410159" lon="8.9620942"><ele>365.5</ele><time>2026-04-06T12:03:21.494Z</time></trkpt><trkpt lat="48.5409512" lon="8.962035"><ele>365.0</ele><time>2026-04-06T12:03:22.509Z</time></trkpt><trkpt lat="48.540886" lon="8.9619763"><ele>364.5</ele><time>2026-04-06T12:03:23.503Z</time></trkpt><trkpt lat="48.5408198" lon="8.9619167"><ele>364.0</ele><time>2026-04-06T12:03:24.504Z</time></trkpt><trkpt lat="48.5407531" lon="8.9618521"><ele>363.5</ele><time>2026-04-06T12:03:25.503Z</time></trkpt><trkpt lat="48.5406884" lon="8.9617914"><ele>363.0</ele><time>2026-04-06T12:03:26.494Z</time></trkpt><trkpt lat="48.5406217" lon="8.9617295"><ele>363.1428571428571</ele><time>2026-04-06T12:03:27.492Z</time></trkpt><trkpt lat="48.5405558" lon="8.961671"><ele>363.2857142857143</ele><time>2026-04-06T12:03:28.505Z</time></trkpt><trkpt lat="48.5404927" lon="8.961614"><ele>363.42857142857144</ele><time>2026-04-06T12:03:29.504Z</time></trkpt><trkpt lat="48.5404281" lon="8.9615555"><ele>363.57142857142856</ele><time>2026-04-06T12:03:30.505Z</time></trkpt><trkpt lat="48.5403641" lon="8.9614976"><ele>363.7142857142857</ele><time>2026-04-06T12:03:31.511Z</time></trkpt><trkpt lat="48.5403003" lon="8.9614417"><ele>363.85714285714283</ele><time>2026-04-06T12:03:32.507Z</time></trkpt><trkpt lat="48.5402384" lon="8.9613819"><ele>364.0</ele><time>2026-04-06T12:03:33.514Z</time></trkpt><trkpt lat="48.5401785" lon="8.9613151"><ele>363.57142857142856</ele><time>2026-04-06T12:03:34.507Z</time></trkpt><trkpt lat="48.5401189" lon="8.9612545"><ele>363.1428571428571</ele><time>2026-04-06T12:03:35.512Z</time></trkpt><trkpt lat="48.5400577" lon="8.9611991"><ele>362.7142857142857</ele><time>2026-04-06T12:03:36.507Z</time></trkpt><trkpt lat="48.5399944" lon="8.9611395"><ele>362.2857142857143</ele><time>2026-04-06T12:03:37.525Z</time></trkpt><trkpt lat="48.5399318" lon="8.961079"><ele>361.85714285714283</ele><time>2026-04-06T12:03:38.506Z</time></trkpt><trkpt lat="48.53987" lon="8.961025"><ele>361.42857142857144</ele><time>2026-04-06T12:03:39.507Z</time></trkpt><trkpt lat="48.5398078" lon="8.9609677"><ele>361.0</ele><time>2026-04-06T12:03:40.498Z</time></trkpt><trkpt lat="48.5397469" lon="8.9609104"><ele>361.0</ele><time>2026-04-06T12:03:41.517Z</time></trkpt><trkpt lat="48.5396834" lon="8.9608489"><ele>361.0</ele><time>2026-04-06T12:03:42.527Z</time></trkpt><trkpt lat="48.5396203" lon="8.9607899"><ele>361.0</ele><time>2026-04-06T12:03:43.527Z</time></trkpt><trkpt lat="48.5395584" lon="8.9607333"><ele>361.0</ele><time>2026-04-06T12:03:44.507Z</time></trkpt><trkpt lat="48.5394941" lon="8.9606748"><ele>361.0</ele><time>2026-04-06T12:03:45.505Z</time></trkpt><trkpt lat="48.5394304" lon="8.9606151"><ele>361.0</ele><time>2026-04-06T12:03:46.509Z</time></trkpt><trkpt lat="48.5393637" lon="8.9605559"><ele>361.0</ele><time>2026-04-06T12:03:47.521Z</time></trkpt><trkpt lat="48.5392952" lon="8.9604873"><ele>361.0</ele><time>2026-04-06T12:03:48.515Z</time></trkpt><trkpt lat="48.539225" lon="8.9604279"><ele>361.0</ele><time>2026-04-06T12:03:49.499Z</time></trkpt><trkpt lat="48.539154" lon="8.9603588"><ele>361.0</ele><time>2026-04-06T12:03:50.512Z</time></trkpt><trkpt lat="48.5390805" lon="8.9602913"><ele>361.0</ele><time>2026-04-06T12:03:51.491Z</time></trkpt><trkpt lat="48.539007" lon="8.9602241"><ele>361.0</ele><time>2026-04-06T12:03:52.514Z</time></trkpt><trkpt lat="48.5389274" lon="8.9601585"><ele>361.0</ele><time>2026-04-06T12:03:53.514Z</time></trkpt><trkpt lat="48.5388478" lon="8.9600936"><ele>361.16666666666663</ele><time>2026-04-06T12:03:54.505Z</time></trkpt><trkpt lat="48.5387702" lon="8.9600259"><ele>361.3333333333333</ele><time>2026-04-06T12:03:55.507Z</time></trkpt><trkpt lat="48.5386928" lon="8.9599496"><ele>361.5</ele><time>2026-04-06T12:03:56.525Z</time></trkpt><trkpt lat="48.5386154" lon="8.9598668"><ele>361.6666666666667</ele><time>2026-04-06T12:03:57.493Z</time></trkpt><trkpt lat="48.5385428" lon="8.9597986"><ele>361.83333333333337</ele><time>2026-04-06T12:03:58.492Z</time></trkpt><trkpt lat="48.5384616" lon="8.9597594"><ele>362.0</ele><time>2026-04-06T12:03:59.478Z</time></trkpt><trkpt lat="48.5383806" lon="8.9597348"><ele>362.0</ele><time>2026-04-06T12:04:00.472Z</time></trkpt><trkpt lat="48.5383004" lon="8.9597128"><ele>362.0</ele><time>2026-04-06T12:04:01.501Z</time></trkpt><trkpt lat="48.5382266" lon="8.9596846"><ele>362.0</ele><time>2026-04-06T12:04:02.499Z</time></trkpt><trkpt lat="48.538157" lon="8.9596577"><ele>362.0</ele><time>2026-04-06T12:04:03.503Z</time></trkpt><trkpt lat="48.538092" lon="8.9596311"><ele>362.0</ele><time>2026-04-06T12:04:04.5Z</time></trkpt><trkpt lat="48.5379831" lon="8.9595735"><ele>362.0</ele><time>2026-04-06T12:04:06.482Z</time></trkpt><trkpt lat="48.5378801" lon="8.9595253"><ele>362.83333333333337</ele><time>2026-04-06T12:04:08.493Z</time></trkpt><trkpt lat="48.5377963" lon="8.9594719"><ele>363.6666666666667</ele><time>2026-04-06T12:04:10.51Z</time></trkpt><trkpt lat="48.5377207" lon="8.959439"><ele>364.5</ele><time>2026-04-06T12:04:12.495Z</time></trkpt><trkpt lat="48.5376399" lon="8.9593976"><ele>365.3333333333333</ele><time>2026-04-06T12:04:15.453Z</time></trkpt><trkpt lat="48.5375524" lon="8.9593746"><ele>366.16666666666663</ele><time>2026-04-06T12:04:18.493Z</time></trkpt><trkpt lat="48.5374537" lon="8.9593582"><ele>367.0</ele><time>2026-04-06T12:04:21.479Z</time></trkpt><trkpt lat="48.5373811" lon="8.9593416"><ele>367.0</ele><time>2026-04-06T12:04:23.513Z</time></trkpt><trkpt lat="48.5373084" lon="8.9593276"><ele>367.0</ele><time>2026-04-06T12:04:26.492Z</time></trkpt><trkpt lat="48.5372269" lon="8.9593578"><ele>367.0</ele><time>2026-04-06T12:05:04.5Z</time></trkpt><trkpt lat="48.5371594" lon="8.9593667"><ele>367.0</ele><time>2026-04-06T12:05:06.503Z</time></trkpt><trkpt lat="48.5370673" lon="8.959404"><ele>367.0</ele><time>2026-04-06T12:05:08.477Z</time></trkpt><trkpt lat="48.53694" lon="8.9594363"><ele>367.0</ele><time>2026-04-06T12:05:10.507Z</time></trkpt><trkpt lat="48.5368656" lon="8.9594559"><ele>366.20000000000005</ele><time>2026-04-06T12:05:11.506Z</time></trkpt><trkpt lat="48.5367877" lon="8.9594842"><ele>365.4</ele><time>2026-04-06T12:05:12.508Z</time></trkpt><trkpt lat="48.5367013" lon="8.9595165"><ele>364.6</ele><time>2026-04-06T12:05:13.513Z</time></trkpt><trkpt lat="48.5366088" lon="8.9595631"><ele>363.79999999999995</ele><time>2026-04-06T12:05:14.496Z</time></trkpt><trkpt lat="48.5365189" lon="8.95962"><ele>363.0</ele><time>2026-04-06T12:05:15.507Z</time></trkpt><trkpt lat="48.5364212" lon="8.9596695"><ele>363.0</ele><time>2026-04-06T12:05:16.516Z</time></trkpt><trkpt lat="48.5363139" lon="8.9597039"><ele>363.0</ele><time>2026-04-06T12:05:17.505Z</time></trkpt><trkpt lat="48.5362062" lon="8.9597279"><ele>363.0</ele><time>2026-04-06T12:05:18.508Z</time></trkpt><trkpt lat="48.5361022" lon="8.9597419"><ele>363.0</ele><time>2026-04-06T12:05:19.507Z</time></trkpt><trkpt lat="48.5360055" lon="8.95972"><ele>363.0</ele><time>2026-04-06T12:05:20.525Z</time></trkpt><trkpt lat="48.5359186" lon="8.9596664"><ele>361.5</ele><time>2026-04-06T12:05:21.491Z</time></trkpt><trkpt lat="48.5358494" lon="8.9595795"><ele>360.0</ele><time>2026-04-06T12:05:22.511Z</time></trkpt><trkpt lat="48.5357813" lon="8.9594875"><ele>358.5</ele><time>2026-04-06T12:05:23.508Z</time></trkpt><trkpt lat="48.5357144" lon="8.9594002"><ele>357.0</ele><time>2026-04-06T12:05:24.518Z</time></trkpt><trkpt lat="48.5356471" lon="8.9593249"><ele>355.5</ele><time>2026-04-06T12:05:25.482Z</time></trkpt><trkpt lat="48.5355723" lon="8.9593056"><ele>354.0</ele><time>2026-04-06T12:05:26.508Z</time></trkpt><trkpt lat="48.5355031" lon="8.9593479"><ele>354.0</ele><time>2026-04-06T12:05:27.498Z</time></trkpt><trkpt lat="48.535443" lon="8.9594254"><ele>354.0</ele><time>2026-04-06T12:05:28.502Z</time></trkpt><trkpt lat="48.5353863" lon="8.9595031"><ele>354.0</ele><time>2026-04-06T12:05:29.506Z</time></trkpt><trkpt lat="48.5353306" lon="8.9595827"><ele>354.0</ele><time>2026-04-06T12:05:30.524Z</time></trkpt><trkpt lat="48.5352725" lon="8.9596537"><ele>354.0</ele><time>2026-04-06T12:05:31.489Z</time></trkpt><trkpt lat="48.5352202" lon="8.9597312"><ele>354.0</ele><time>2026-04-06T12:05:32.476Z</time></trkpt><trkpt lat="48.5351649" lon="8.959808"><ele>354.0</ele><time>2026-04-06T12:05:33.498Z</time></trkpt><trkpt lat="48.5351094" lon="8.9598803"><ele>354.0</ele><time>2026-04-06T12:05:34.497Z</time></trkpt><trkpt lat="48.5350501" lon="8.9599496"><ele>354.0</ele><time>2026-04-06T12:05:35.49Z</time></trkpt><trkpt lat="48.5349909" lon="8.9600102"><ele>354.0</ele><time>2026-04-06T12:05:36.493Z</time></trkpt><trkpt lat="48.534929" lon="8.9600668"><ele>354.0</ele><time>2026-04-06T12:05:37.502Z</time></trkpt><trkpt lat="48.5348668" lon="8.9601181"><ele>354.0</ele><time>2026-04-06T12:05:38.503Z</time></trkpt><trkpt lat="48.5348032" lon="8.9601705"><ele>354.0</ele><time>2026-04-06T12:05:39.5Z</time></trkpt><trkpt lat="48.5347395" lon="8.9602266"><ele>354.0</ele><time>2026-04-06T12:05:40.496Z</time></trkpt><trkpt lat="48.5346716" lon="8.9602824"><ele>354.0</ele><time>2026-04-06T12:05:41.471Z</time></trkpt><trkpt lat="48.534608" lon="8.9603368"><ele>354.0</ele><time>2026-04-06T12:05:42.498Z</time></trkpt><trkpt lat="48.5345388" lon="8.9603856"><ele>354.0</ele><time>2026-04-06T12:05:43.495Z</time></trkpt><trkpt lat="48.5344721" lon="8.9604299"><ele>354.0</ele><time>2026-04-06T12:05:44.499Z</time></trkpt><trkpt lat="48.534405" lon="8.9604762"><ele>354.0</ele><time>2026-04-06T12:05:45.475Z</time></trkpt><trkpt lat="48.5343417" lon="8.9605253"><ele>354.0</ele><time>2026-04-06T12:05:46.498Z</time></trkpt><trkpt lat="48.5342802" lon="8.9605849"><ele>354.0</ele><time>2026-04-06T12:05:47.502Z</time></trkpt><trkpt lat="48.5342234" lon="8.9606502"><ele>354.0</ele><time>2026-04-06T12:05:48.522Z</time></trkpt><trkpt lat="48.5341716" lon="8.9607318"><ele>354.0</ele><time>2026-04-06T12:05:49.52Z</time></trkpt><trkpt lat="48.5341265" lon="8.9608216"><ele>354.0</ele><time>2026-04-06T12:05:50.505Z</time></trkpt><trkpt lat="48.5340868" lon="8.9609056"><ele>354.0</ele><time>2026-04-06T12:05:51.513Z</time></trkpt><trkpt lat="48.534044" lon="8.9609871"><ele>354.0</ele><time>2026-04-06T12:05:52.507Z</time></trkpt><trkpt lat="48.5339991" lon="8.9610606"><ele>354.0</ele><time>2026-04-06T12:05:53.507Z</time></trkpt><trkpt lat="48.533954" lon="8.9611452"><ele>353.8571428571429</ele><time>2026-04-06T12:05:54.502Z</time></trkpt><trkpt lat="48.5339065" lon="8.9612203"><ele>353.71428571428567</ele><time>2026-04-06T12:05:55.511Z</time></trkpt><trkpt lat="48.5338615" lon="8.9613018"><ele>353.57142857142856</ele><time>2026-04-06T12:05:56.515Z</time></trkpt><trkpt lat="48.533817" lon="8.9613838"><ele>353.42857142857144</ele><time>2026-04-06T12:05:57.525Z</time></trkpt><trkpt lat="48.5337736" lon="8.9614622"><ele>353.28571428571433</ele><time>2026-04-06T12:05:58.534Z</time></trkpt><trkpt lat="48.533723" lon="8.9615404"><ele>353.1428571428571</ele><time>2026-04-06T12:05:59.477Z</time></trkpt><trkpt lat="48.5336673" lon="8.9616126"><ele>353.0</ele><time>2026-04-06T12:06:00.476Z</time></trkpt><trkpt lat="48.5336102" lon="8.9616683"><ele>353.0</ele><time>2026-04-06T12:06:01.532Z</time></trkpt><trkpt lat="48.533559" lon="8.9617383"><ele>353.0</ele><time>2026-04-06T12:06:02.514Z</time></trkpt><trkpt lat="48.5335203" lon="8.9618154"><ele>353.0</ele><time>2026-04-06T12:06:03.475Z</time></trkpt><trkpt lat="48.5334959" lon="8.9619168"><ele>353.0</ele><time>2026-04-06T12:06:04.503Z</time></trkpt><trkpt lat="48.5334857" lon="8.9620299"><ele>353.0</ele><time>2026-04-06T12:06:05.496Z</time></trkpt><trkpt lat="48.5334608" lon="8.9621346"><ele>353.0</ele><time>2026-04-06T12:06:06.499Z</time></trkpt><trkpt lat="48.5333726" lon="8.962271"><ele>353.0</ele><time>2026-04-06T12:06:08.504Z</time></trkpt><trkpt lat="48.5333211" lon="8.9623397"><ele>353.0</ele><time>2026-04-06T12:06:09.491Z</time></trkpt><trkpt lat="48.533276" lon="8.9624163"><ele>353.0</ele><time>2026-04-06T12:06:10.488Z</time></trkpt><trkpt lat="48.5332274" lon="8.9624882"><ele>353.0</ele><time>2026-04-06T12:06:11.509Z</time></trkpt><trkpt lat="48.5331761" lon="8.9625671"><ele>353.0</ele><time>2026-04-06T12:06:12.5Z</time></trkpt><trkpt lat="48.5331253" lon="8.9626405"><ele>353.0</ele><time>2026-04-06T12:06:13.507Z</time></trkpt><trkpt lat="48.5330719" lon="8.9627111"><ele>353.0</ele><time>2026-04-06T12:06:14.5Z</time></trkpt><trkpt lat="48.5330155" lon="8.962783"><ele>353.1666666666667</ele><time>2026-04-06T12:06:15.497Z</time></trkpt><trkpt lat="48.5329619" lon="8.9628592"><ele>353.33333333333337</ele><time>2026-04-06T12:06:16.514Z</time></trkpt><trkpt lat="48.5329058" lon="8.9629287"><ele>353.5</ele><time>2026-04-06T12:06:17.512Z</time></trkpt><trkpt lat="48.5328588" lon="8.9630009"><ele>353.6666666666667</ele><time>2026-04-06T12:06:18.507Z</time></trkpt><trkpt lat="48.5328072" lon="8.9630637"><ele>353.8333333333333</ele><time>2026-04-06T12:06:19.508Z</time></trkpt><trkpt lat="48.532756" lon="8.9631282"><ele>354.0</ele><time>2026-04-06T12:06:20.5Z</time></trkpt><trkpt lat="48.5326606" lon="8.9632558"><ele>353.2</ele><time>2026-04-06T12:06:22.507Z</time></trkpt><trkpt lat="48.5325716" lon="8.9633934"><ele>352.4</ele><time>2026-04-06T12:06:24.511Z</time></trkpt><trkpt lat="48.5325238" lon="8.963459"><ele>351.6</ele><time>2026-04-06T12:06:25.509Z</time></trkpt><trkpt lat="48.5324317" lon="8.9635843"><ele>350.8</ele><time>2026-04-06T12:06:27.506Z</time></trkpt><trkpt lat="48.532342" lon="8.9637103"><ele>350.0</ele><time>2026-04-06T12:06:29.516Z</time></trkpt><trkpt lat="48.5322523" lon="8.963843"><ele>350.0</ele><time>2026-04-06T12:06:31.516Z</time></trkpt><trkpt lat="48.5321619" lon="8.9639628"><ele>350.0</ele><time>2026-04-06T12:06:33.507Z</time></trkpt><trkpt lat="48.5321149" lon="8.9640328"><ele>350.0</ele><time>2026-04-06T12:06:34.452Z</time></trkpt><trkpt lat="48.532062" lon="8.9640925"><ele>350.0</ele><time>2026-04-06T12:06:35.5Z</time></trkpt><trkpt lat="48.5320139" lon="8.9641606"><ele>350.0</ele><time>2026-04-06T12:06:36.48Z</time></trkpt><trkpt lat="48.5319661" lon="8.9642244"><ele>350.0</ele><time>2026-04-06T12:06:37.51Z</time></trkpt><trkpt lat="48.5319143" lon="8.9642931"><ele>350.0</ele><time>2026-04-06T12:06:38.502Z</time></trkpt><trkpt lat="48.5318661" lon="8.9643622"><ele>350.0</ele><time>2026-04-06T12:06:39.495Z</time></trkpt><trkpt lat="48.5318183" lon="8.9644408"><ele>350.0</ele><time>2026-04-06T12:06:40.509Z</time></trkpt><trkpt lat="48.5317703" lon="8.9645211"><ele>350.0</ele><time>2026-04-06T12:06:41.446Z</time></trkpt><trkpt lat="48.5317243" lon="8.9646096"><ele>350.0</ele><time>2026-04-06T12:06:42.504Z</time></trkpt><trkpt lat="48.5316771" lon="8.9647072"><ele>350.0</ele><time>2026-04-06T12:06:43.502Z</time></trkpt><trkpt lat="48.531635" lon="8.9648116"><ele>350.0</ele><time>2026-04-06T12:06:44.496Z</time></trkpt><trkpt lat="48.5315989" lon="8.9649193"><ele>350.0</ele><time>2026-04-06T12:06:45.489Z</time></trkpt><trkpt lat="48.5315621" lon="8.9650256"><ele>350.0</ele><time>2026-04-06T12:06:46.474Z</time></trkpt><trkpt lat="48.5315219" lon="8.965127"><ele>350.0</ele><time>2026-04-06T12:06:47.513Z</time></trkpt><trkpt lat="48.531477" lon="8.9652219"><ele>350.0</ele><time>2026-04-06T12:06:48.52Z</time></trkpt><trkpt lat="48.5314411" lon="8.9653063"><ele>350.0</ele><time>2026-04-06T12:06:49.52Z</time></trkpt><trkpt lat="48.5314021" lon="8.9653846"><ele>350.0</ele><time>2026-04-06T12:06:50.496Z</time></trkpt><trkpt lat="48.5313546" lon="8.9654568"><ele>350.0</ele><time>2026-04-06T12:06:51.506Z</time></trkpt><trkpt lat="48.5312922" lon="8.9654964"><ele>350.0</ele><time>2026-04-06T12:06:52.495Z</time></trkpt><trkpt lat="48.5312249" lon="8.9654935"><ele>350.0</ele><time>2026-04-06T12:06:53.518Z</time></trkpt><trkpt lat="48.531165" lon="8.9654446"><ele>350.0</ele><time>2026-04-06T12:06:54.515Z</time></trkpt><trkpt lat="48.531102" lon="8.9653933"><ele>350.0</ele><time>2026-04-06T12:06:55.521Z</time></trkpt><trkpt lat="48.5310386" lon="8.9653337"><ele>350.0</ele><time>2026-04-06T12:06:56.51Z</time></trkpt><trkpt lat="48.5309741" lon="8.9652801"><ele>350.0</ele><time>2026-04-06T12:06:57.519Z</time></trkpt><trkpt lat="48.5309056" lon="8.9652216"><ele>350.0</ele><time>2026-04-06T12:06:58.512Z</time></trkpt><trkpt lat="48.5308356" lon="8.9651602"><ele>349.83333333333337</ele><time>2026-04-06T12:06:59.51Z</time></trkpt><trkpt lat="48.5307659" lon="8.965096"><ele>349.6666666666667</ele><time>2026-04-06T12:07:00.473Z</time></trkpt><trkpt lat="48.5306967" lon="8.965038"><ele>349.5</ele><time>2026-04-06T12:07:01.507Z</time></trkpt><trkpt lat="48.5306249" lon="8.9649957"><ele>349.3333333333333</ele><time>2026-04-06T12:07:02.513Z</time></trkpt><trkpt lat="48.530553" lon="8.9649534"><ele>349.16666666666663</ele><time>2026-04-06T12:07:03.507Z</time></trkpt><trkpt lat="48.5304787" lon="8.9649067"><ele>349.0</ele><time>2026-04-06T12:07:04.501Z</time></trkpt><trkpt lat="48.5304108" lon="8.96486"><ele>348.8333333333333</ele><time>2026-04-06T12:07:05.498Z</time></trkpt><trkpt lat="48.5303336" lon="8.9648185"><ele>348.66666666666663</ele><time>2026-04-06T12:07:06.508Z</time></trkpt><trkpt lat="48.5302561" lon="8.9647861"><ele>348.5</ele><time>2026-04-06T12:07:07.51Z</time></trkpt><trkpt lat="48.5301811" lon="8.9647545"><ele>348.3333333333333</ele><time>2026-04-06T12:07:08.497Z</time></trkpt><trkpt lat="48.5301086" lon="8.9647193"><ele>348.1666666666667</ele><time>2026-04-06T12:07:09.489Z</time></trkpt><trkpt lat="48.5300312" lon="8.9646828"><ele>348.0</ele><time>2026-04-06T12:07:10.497Z</time></trkpt><trkpt lat="48.5299559" lon="8.9646538"><ele>348.0</ele><time>2026-04-06T12:07:11.501Z</time></trkpt><trkpt lat="48.5298824" lon="8.9646323"><ele>348.0</ele><time>2026-04-06T12:07:12.501Z</time></trkpt><trkpt lat="48.5298081" lon="8.9646104"><ele>348.0</ele><time>2026-04-06T12:07:13.501Z</time></trkpt><trkpt lat="48.5297326" lon="8.9645843"><ele>348.0</ele><time>2026-04-06T12:07:14.497Z</time></trkpt><trkpt lat="48.5296595" lon="8.9645638"><ele>348.0</ele><time>2026-04-06T12:07:15.506Z</time></trkpt><trkpt lat="48.5295849" lon="8.9645428"><ele>348.0</ele><time>2026-04-06T12:07:16.512Z</time></trkpt><trkpt lat="48.5295121" lon="8.9645207"><ele>347.85714285714283</ele><time>2026-04-06T12:07:17.502Z</time></trkpt><trkpt lat="48.5294372" lon="8.9645014"><ele>347.7142857142857</ele><time>2026-04-06T12:07:18.501Z</time></trkpt><trkpt lat="48.5293657" lon="8.9644828"><ele>347.57142857142856</ele><time>2026-04-06T12:07:19.499Z</time></trkpt><trkpt lat="48.5292939" lon="8.9644628"><ele>347.42857142857144</ele><time>2026-04-06T12:07:20.485Z</time></trkpt><trkpt lat="48.5292205" lon="8.9644428"><ele>347.2857142857143</ele><time>2026-04-06T12:07:21.516Z</time></trkpt><trkpt lat="48.5291471" lon="8.9644229"><ele>347.14285714285717</ele><time>2026-04-06T12:07:22.505Z</time></trkpt><trkpt lat="48.5290762" lon="8.9644037"><ele>347.0</ele><time>2026-04-06T12:07:23.516Z</time></trkpt><trkpt lat="48.5290008" lon="8.9643854"><ele>347.0</ele><time>2026-04-06T12:07:24.514Z</time></trkpt><trkpt lat="48.5289243" lon="8.9643726"><ele>347.0</ele><time>2026-04-06T12:07:25.513Z</time></trkpt><trkpt lat="48.5288493" lon="8.9643678"><ele>347.0</ele><time>2026-04-06T12:07:26.511Z</time></trkpt><trkpt lat="48.528773" lon="8.9643635"><ele>347.0</ele><time>2026-04-06T12:07:27.526Z</time></trkpt><trkpt lat="48.5286981" lon="8.9643676"><ele>347.0</ele><time>2026-04-06T12:07:28.528Z</time></trkpt><trkpt lat="48.5286215" lon="8.9643749"><ele>347.0</ele><time>2026-04-06T12:07:29.505Z</time></trkpt><trkpt lat="48.528545" lon="8.9643842"><ele>347.0</ele><time>2026-04-06T12:07:30.474Z</time></trkpt><trkpt lat="48.5284682" lon="8.9643909"><ele>347.0</ele><time>2026-04-06T12:07:31.494Z</time></trkpt><trkpt lat="48.528388" lon="8.964402"><ele>347.0</ele><time>2026-04-06T12:07:32.496Z</time></trkpt><trkpt lat="48.5283135" lon="8.9644172"><ele>347.0</ele><time>2026-04-06T12:07:33.511Z</time></trkpt><trkpt lat="48.5282425" lon="8.9644368"><ele>347.0</ele><time>2026-04-06T12:07:34.496Z</time></trkpt><trkpt lat="48.5281701" lon="8.9644696"><ele>347.0</ele><time>2026-04-06T12:07:35.517Z</time></trkpt><trkpt lat="48.5280963" lon="8.9645076"><ele>347.0</ele><time>2026-04-06T12:07:36.498Z</time></trkpt><trkpt lat="48.5280274" lon="8.9645412"><ele>347.0</ele><time>2026-04-06T12:07:37.499Z</time></trkpt><trkpt lat="48.5279531" lon="8.9645806"><ele>347.0</ele><time>2026-04-06T12:07:38.503Z</time></trkpt><trkpt lat="48.5278822" lon="8.9646137"><ele>347.0</ele><time>2026-04-06T12:07:39.502Z</time></trkpt><trkpt lat="48.5278097" lon="8.9646429"><ele>347.0</ele><time>2026-04-06T12:07:40.513Z</time></trkpt><trkpt lat="48.5277385" lon="8.9646706"><ele>347.0</ele><time>2026-04-06T12:07:41.497Z</time></trkpt><trkpt lat="48.5276635" lon="8.9646938"><ele>347.0</ele><time>2026-04-06T12:07:42.489Z</time></trkpt><trkpt lat="48.527588" lon="8.964707"><ele>347.0</ele><time>2026-04-06T12:07:43.512Z</time></trkpt><trkpt lat="48.5275136" lon="8.9647148"><ele>347.0</ele><time>2026-04-06T12:07:44.505Z</time></trkpt><trkpt lat="48.5274359" lon="8.9647265"><ele>347.0</ele><time>2026-04-06T12:07:45.472Z</time></trkpt><trkpt lat="48.5273623" lon="8.9647236"><ele>347.0</ele><time>2026-04-06T12:07:46.499Z</time></trkpt><trkpt lat="48.5272901" lon="8.9647057"><ele>347.0</ele><time>2026-04-06T12:07:47.471Z</time></trkpt><trkpt lat="48.5272204" lon="8.9646785"><ele>347.0</ele><time>2026-04-06T12:07:48.492Z</time></trkpt><trkpt lat="48.5271473" lon="8.9646409"><ele>347.0</ele><time>2026-04-06T12:07:49.479Z</time></trkpt><trkpt lat="48.5270751" lon="8.9646022"><ele>347.0</ele><time>2026-04-06T12:07:50.512Z</time></trkpt><trkpt lat="48.5270037" lon="8.9645589"><ele>347.0</ele><time>2026-04-06T12:07:51.509Z</time></trkpt><trkpt lat="48.5269326" lon="8.9645197"><ele>347.0</ele><time>2026-04-06T12:07:52.493Z</time></trkpt><trkpt lat="48.5268632" lon="8.9644843"><ele>347.0</ele><time>2026-04-06T12:07:53.518Z</time></trkpt><trkpt lat="48.5267916" lon="8.9644521"><ele>347.0</ele><time>2026-04-06T12:07:54.516Z</time></trkpt><trkpt lat="48.526724" lon="8.9644246"><ele>347.0</ele><time>2026-04-06T12:07:55.517Z</time></trkpt><trkpt lat="48.526656" lon="8.9643936"><ele>347.14285714285717</ele><time>2026-04-06T12:07:56.511Z</time></trkpt><trkpt lat="48.5265892" lon="8.9643651"><ele>347.2857142857143</ele><time>2026-04-06T12:07:57.522Z</time></trkpt><trkpt lat="48.5265245" lon="8.9643553"><ele>347.42857142857144</ele><time>2026-04-06T12:07:58.523Z</time></trkpt><trkpt lat="48.5264602" lon="8.9643656"><ele>347.57142857142856</ele><time>2026-04-06T12:07:59.513Z</time></trkpt><trkpt lat="48.5263971" lon="8.964361"><ele>347.7142857142857</ele><time>2026-04-06T12:08:00.481Z</time></trkpt><trkpt lat="48.5262737" lon="8.9643462"><ele>347.85714285714283</ele><time>2026-04-06T12:08:02.519Z</time></trkpt><trkpt lat="48.5262107" lon="8.9643408"><ele>348.0</ele><time>2026-04-06T12:08:03.509Z</time></trkpt><trkpt lat="48.5260816" lon="8.9643339"><ele>348.1428571428571</ele><time>2026-04-06T12:08:05.511Z</time></trkpt><trkpt lat="48.5260148" lon="8.9643253"><ele>348.2857142857143</ele><time>2026-04-06T12:08:06.493Z</time></trkpt><trkpt lat="48.5259446" lon="8.9643252"><ele>348.42857142857144</ele><time>2026-04-06T12:08:07.508Z</time></trkpt><trkpt lat="48.5258774" lon="8.9643257"><ele>348.57142857142856</ele><time>2026-04-06T12:08:08.502Z</time></trkpt><trkpt lat="48.5258082" lon="8.9643291"><ele>348.7142857142857</ele><time>2026-04-06T12:08:09.511Z</time></trkpt><trkpt lat="48.5257372" lon="8.9643195"><ele>348.85714285714283</ele><time>2026-04-06T12:08:10.513Z</time></trkpt><trkpt lat="48.5256715" lon="8.9643063"><ele>349.0</ele><time>2026-04-06T12:08:11.51Z</time></trkpt><trkpt lat="48.5256085" lon="8.9642853"><ele>348.99999999999994</ele><time>2026-04-06T12:08:12.508Z</time></trkpt><trkpt lat="48.5255372" lon="8.9642708"><ele>349.0</ele><time>2026-04-06T12:08:13.505Z</time></trkpt><trkpt lat="48.5254668" lon="8.9642496"><ele>349.0</ele><time>2026-04-06T12:08:14.499Z</time></trkpt><trkpt lat="48.5253991" lon="8.9642312"><ele>349.0</ele><time>2026-04-06T12:08:15.505Z</time></trkpt><trkpt lat="48.5253317" lon="8.9642048"><ele>349.0</ele><time>2026-04-06T12:08:16.504Z</time></trkpt><trkpt lat="48.5252651" lon="8.9641771"><ele>348.99999999999994</ele><time>2026-04-06T12:08:17.505Z</time></trkpt><trkpt lat="48.5251989" lon="8.964158"><ele>349.0</ele><time>2026-04-06T12:08:18.504Z</time></trkpt><trkpt lat="48.5251328" lon="8.9641325"><ele>349.1428571428571</ele><time>2026-04-06T12:08:19.498Z</time></trkpt><trkpt lat="48.5250671" lon="8.9641098"><ele>349.2857142857143</ele><time>2026-04-06T12:08:20.501Z</time></trkpt><trkpt lat="48.5250026" lon="8.9640891"><ele>349.42857142857144</ele><time>2026-04-06T12:08:21.514Z</time></trkpt><trkpt lat="48.5249365" lon="8.9640624"><ele>349.57142857142856</ele><time>2026-04-06T12:08:22.51Z</time></trkpt><trkpt lat="48.5248699" lon="8.9640309"><ele>349.7142857142857</ele><time>2026-04-06T12:08:23.505Z</time></trkpt><trkpt lat="48.5248066" lon="8.9640071"><ele>349.85714285714283</ele><time>2026-04-06T12:08:24.514Z</time></trkpt><trkpt lat="48.5247436" lon="8.963983"><ele>350.0</ele><time>2026-04-06T12:08:25.513Z</time></trkpt><trkpt lat="48.5246806" lon="8.9639611"><ele>349.8</ele><time>2026-04-06T12:08:26.507Z</time></trkpt><trkpt lat="48.5245588" lon="8.9638988"><ele>349.6</ele><time>2026-04-06T12:08:28.494Z</time></trkpt><trkpt lat="48.524495" lon="8.9638807"><ele>349.4</ele><time>2026-04-06T12:08:29.509Z</time></trkpt><trkpt lat="48.5243779" lon="8.9638415"><ele>349.2</ele><time>2026-04-06T12:08:31.49Z</time></trkpt><trkpt lat="48.5242565" lon="8.963795"><ele>349.0</ele><time>2026-04-06T12:08:33.503Z</time></trkpt><trkpt lat="48.5241359" lon="8.9637487"><ele>349.0</ele><time>2026-04-06T12:08:35.504Z</time></trkpt><trkpt lat="48.5240723" lon="8.9637283"><ele>349.0</ele><time>2026-04-06T12:08:36.488Z</time></trkpt><trkpt lat="48.5240102" lon="8.9637066"><ele>349.0</ele><time>2026-04-06T12:08:37.501Z</time></trkpt><trkpt lat="48.5238871" lon="8.9636745"><ele>349.0</ele><time>2026-04-06T12:08:39.481Z</time></trkpt><trkpt lat="48.5237769" lon="8.9636428"><ele>349.0</ele><time>2026-04-06T12:08:41.507Z</time></trkpt><trkpt lat="48.5236571" lon="8.9636119"><ele>349.2</ele><time>2026-04-06T12:08:43.519Z</time></trkpt><trkpt lat="48.5235347" lon="8.9635824"><ele>349.4</ele><time>2026-04-06T12:08:45.502Z</time></trkpt><trkpt lat="48.5234713" lon="8.9635716"><ele>349.6</ele><time>2026-04-06T12:08:46.495Z</time></trkpt><trkpt lat="48.5233503" lon="8.9635482"><ele>349.8</ele><time>2026-04-06T12:08:48.509Z</time></trkpt><trkpt lat="48.5232272" lon="8.9635586"><ele>350.0</ele><time>2026-04-06T12:08:50.526Z</time></trkpt><trkpt lat="48.523113" lon="8.9635821"><ele>350.0</ele><time>2026-04-06T12:08:52.498Z</time></trkpt><trkpt lat="48.5229973" lon="8.9636064"><ele>350.0</ele><time>2026-04-06T12:08:54.513Z</time></trkpt><trkpt lat="48.5228801" lon="8.963657"><ele>350.0</ele><time>2026-04-06T12:08:56.501Z</time></trkpt><trkpt lat="48.5227676" lon="8.9637217"><ele>350.0</ele><time>2026-04-06T12:08:58.514Z</time></trkpt><trkpt lat="48.5226558" lon="8.9637828"><ele>351.0</ele><time>2026-04-06T12:09:00.471Z</time></trkpt><trkpt lat="48.5225417" lon="8.9638581"><ele>352.0</ele><time>2026-04-06T12:09:02.498Z</time></trkpt><trkpt lat="48.5224269" lon="8.9639282"><ele>353.0</ele><time>2026-04-06T12:09:04.519Z</time></trkpt><trkpt lat="48.5223117" lon="8.9639862"><ele>354.0</ele><time>2026-04-06T12:09:06.52Z</time></trkpt><trkpt lat="48.5222009" lon="8.9640412"><ele>354.0</ele><time>2026-04-06T12:09:08.5Z</time></trkpt><trkpt lat="48.5220877" lon="8.9640894"><ele>354.0</ele><time>2026-04-06T12:09:10.484Z</time></trkpt><trkpt lat="48.5219771" lon="8.964122"><ele>354.0</ele><time>2026-04-06T12:09:12.488Z</time></trkpt><trkpt lat="48.5218709" lon="8.9641598"><ele>354.0</ele><time>2026-04-06T12:09:14.495Z</time></trkpt><trkpt lat="48.5217714" lon="8.9641958"><ele>354.0</ele><time>2026-04-06T12:09:16.523Z</time></trkpt><trkpt lat="48.5216705" lon="8.9642305"><ele>354.2</ele><time>2026-04-06T12:09:18.491Z</time></trkpt><trkpt lat="48.5215703" lon="8.9642656"><ele>354.4</ele><time>2026-04-06T12:09:20.506Z</time></trkpt><trkpt lat="48.5214729" lon="8.9643022"><ele>354.6</ele><time>2026-04-06T12:09:22.504Z</time></trkpt><trkpt lat="48.5213728" lon="8.9643451"><ele>354.8</ele><time>2026-04-06T12:09:24.497Z</time></trkpt><trkpt lat="48.5212853" lon="8.964396"><ele>355.0</ele><time>2026-04-06T12:09:26.503Z</time></trkpt><trkpt lat="48.5211979" lon="8.964453"><ele>356.0</ele><time>2026-04-06T12:09:28.491Z</time></trkpt><trkpt lat="48.5211118" lon="8.9645034"><ele>357.0</ele><time>2026-04-06T12:09:30.515Z</time></trkpt><trkpt lat="48.5210355" lon="8.96455"><ele>358.0</ele><time>2026-04-06T12:09:32.5Z</time></trkpt><trkpt lat="48.5209577" lon="8.9645885"><ele>359.0</ele><time>2026-04-06T12:09:34.498Z</time></trkpt><trkpt lat="48.5208862" lon="8.9646193"><ele>360.0</ele><time>2026-04-06T12:09:36.458Z</time></trkpt><trkpt lat="48.52081" lon="8.9646489"><ele>361.0</ele><time>2026-04-06T12:09:38.501Z</time></trkpt><trkpt lat="48.5207441" lon="8.9646811"><ele>361.0</ele><time>2026-04-06T12:09:40.501Z</time></trkpt><trkpt lat="48.5206765" lon="8.9646961"><ele>361.0</ele><time>2026-04-06T12:09:42.502Z</time></trkpt><trkpt lat="48.5205842" lon="8.9647162"><ele>361.0</ele><time>2026-04-06T12:09:45.502Z</time></trkpt><trkpt lat="48.5205166" lon="8.9647242"><ele>361.0</ele><time>2026-04-06T12:09:47.504Z</time></trkpt><trkpt lat="48.5204319" lon="8.9647191"><ele>361.0</ele><time>2026-04-06T12:09:49.524Z</time></trkpt><trkpt lat="48.5203305" lon="8.9647196"><ele>361.0</ele><time>2026-04-06T12:09:51.498Z</time></trkpt><trkpt lat="48.5202172" lon="8.9647361"><ele>360.66666666666663</ele><time>2026-04-06T12:09:53.512Z</time></trkpt><trkpt lat="48.5200951" lon="8.9647396"><ele>360.3333333333333</ele><time>2026-04-06T12:09:55.496Z</time></trkpt><trkpt lat="48.5200296" lon="8.9647474"><ele>360.0</ele><time>2026-04-06T12:09:56.484Z</time></trkpt><trkpt lat="48.5199639" lon="8.9647478"><ele>359.6666666666667</ele><time>2026-04-06T12:09:57.503Z</time></trkpt><trkpt lat="48.5199008" lon="8.9647453"><ele>359.33333333333337</ele><time>2026-04-06T12:09:58.482Z</time></trkpt><trkpt lat="48.5198333" lon="8.9647422"><ele>359.0</ele><time>2026-04-06T12:09:59.499Z</time></trkpt><trkpt lat="48.5197633" lon="8.9647434"><ele>359.0</ele><time>2026-04-06T12:10:00.478Z</time></trkpt><trkpt lat="48.5196942" lon="8.9647435"><ele>359.0</ele><time>2026-04-06T12:10:01.5Z</time></trkpt><trkpt lat="48.5196269" lon="8.9647409"><ele>359.0</ele><time>2026-04-06T12:10:02.508Z</time></trkpt><trkpt lat="48.5195579" lon="8.9647427"><ele>359.0</ele><time>2026-04-06T12:10:03.482Z</time></trkpt><trkpt lat="48.5194881" lon="8.9647455"><ele>359.0</ele><time>2026-04-06T12:10:04.503Z</time></trkpt><trkpt lat="48.5194194" lon="8.9647491"><ele>359.0</ele><time>2026-04-06T12:10:05.503Z</time></trkpt><trkpt lat="48.519348" lon="8.9647478"><ele>359.0</ele><time>2026-04-06T12:10:06.512Z</time></trkpt><trkpt lat="48.519279" lon="8.9647425"><ele>358.6666666666667</ele><time>2026-04-06T12:10:07.499Z</time></trkpt><trkpt lat="48.519206" lon="8.964738"><ele>358.33333333333337</ele><time>2026-04-06T12:10:08.523Z</time></trkpt><trkpt lat="48.519131" lon="8.9647419"><ele>358.0</ele><time>2026-04-06T12:10:09.467Z</time></trkpt><trkpt lat="48.519057" lon="8.9647434"><ele>357.6666666666667</ele><time>2026-04-06T12:10:10.506Z</time></trkpt><trkpt lat="48.5189799" lon="8.9647388"><ele>357.3333333333333</ele><time>2026-04-06T12:10:11.511Z</time></trkpt><trkpt lat="48.5189021" lon="8.9647366"><ele>357.0</ele><time>2026-04-06T12:10:12.509Z</time></trkpt><trkpt lat="48.5188254" lon="8.9647336"><ele>357.0</ele><time>2026-04-06T12:10:13.495Z</time></trkpt><trkpt lat="48.5187525" lon="8.9647303"><ele>357.0</ele><time>2026-04-06T12:10:14.508Z</time></trkpt><trkpt lat="48.5186766" lon="8.9647306"><ele>357.0</ele><time>2026-04-06T12:10:15.517Z</time></trkpt><trkpt lat="48.5185989" lon="8.9647338"><ele>357.0</ele><time>2026-04-06T12:10:16.473Z</time></trkpt><trkpt lat="48.5185183" lon="8.9647325"><ele>357.0</ele><time>2026-04-06T12:10:17.47Z</time></trkpt><trkpt lat="48.5184398" lon="8.964726"><ele>357.0</ele><time>2026-04-06T12:10:18.459Z</time></trkpt><trkpt lat="48.5183595" lon="8.9647216"><ele>356.6666666666667</ele><time>2026-04-06T12:10:19.508Z</time></trkpt><trkpt lat="48.5182785" lon="8.9647164"><ele>356.3333333333333</ele><time>2026-04-06T12:10:20.512Z</time></trkpt><trkpt lat="48.5181973" lon="8.9647122"><ele>356.0</ele><time>2026-04-06T12:10:21.495Z</time></trkpt><trkpt lat="48.5181158" lon="8.9647039"><ele>355.66666666666663</ele><time>2026-04-06T12:10:22.512Z</time></trkpt><trkpt lat="48.518033" lon="8.9646977"><ele>355.3333333333333</ele><time>2026-04-06T12:10:23.512Z</time></trkpt><trkpt lat="48.5179508" lon="8.9646922"><ele>355.0</ele><time>2026-04-06T12:10:24.519Z</time></trkpt><trkpt lat="48.517871" lon="8.9646876"><ele>355.0</ele><time>2026-04-06T12:10:25.515Z</time></trkpt><trkpt lat="48.5177903" lon="8.9646803"><ele>355.0</ele><time>2026-04-06T12:10:26.52Z</time></trkpt><trkpt lat="48.5177089" lon="8.9646689"><ele>355.0</ele><time>2026-04-06T12:10:27.516Z</time></trkpt><trkpt lat="48.5176281" lon="8.9646543"><ele>355.0</ele><time>2026-04-06T12:10:28.511Z</time></trkpt><trkpt lat="48.5175427" lon="8.9646419"><ele>355.0</ele><time>2026-04-06T12:10:29.486Z</time></trkpt><trkpt lat="48.5174616" lon="8.9646257"><ele>355.0</ele><time>2026-04-06T12:10:30.513Z</time></trkpt><trkpt lat="48.5173774" lon="8.9646049"><ele>355.0</ele><time>2026-04-06T12:10:31.484Z</time></trkpt><trkpt lat="48.5172925" lon="8.9645822"><ele>355.0</ele><time>2026-04-06T12:10:32.511Z</time></trkpt><trkpt lat="48.5172158" lon="8.9645447"><ele>355.0</ele><time>2026-04-06T12:10:33.506Z</time></trkpt><trkpt lat="48.5171421" lon="8.9644892"><ele>355.0</ele><time>2026-04-06T12:10:34.514Z</time></trkpt><trkpt lat="48.5170731" lon="8.964429"><ele>355.0</ele><time>2026-04-06T12:10:35.508Z</time></trkpt><trkpt lat="48.5170032" lon="8.9643698"><ele>355.0</ele><time>2026-04-06T12:10:36.498Z</time></trkpt><trkpt lat="48.5169331" lon="8.9643108"><ele>355.16666666666663</ele><time>2026-04-06T12:10:37.505Z</time></trkpt><trkpt lat="48.516862" lon="8.9642537"><ele>355.3333333333333</ele><time>2026-04-06T12:10:38.483Z</time></trkpt><trkpt lat="48.5167918" lon="8.9641991"><ele>355.5</ele><time>2026-04-06T12:10:39.52Z</time></trkpt><trkpt lat="48.5167224" lon="8.9641485"><ele>355.6666666666667</ele><time>2026-04-06T12:10:40.509Z</time></trkpt><trkpt lat="48.5166579" lon="8.9640998"><ele>355.83333333333337</ele><time>2026-04-06T12:10:41.472Z</time></trkpt><trkpt lat="48.5165961" lon="8.9640452"><ele>356.0</ele><time>2026-04-06T12:10:42.482Z</time></trkpt><trkpt lat="48.5165364" lon="8.9639857"><ele>355.99999999999994</ele><time>2026-04-06T12:10:43.504Z</time></trkpt><trkpt lat="48.5164794" lon="8.9639312"><ele>356.0</ele><time>2026-04-06T12:10:44.477Z</time></trkpt><trkpt lat="48.5164194" lon="8.9638797"><ele>356.0</ele><time>2026-04-06T12:10:45.511Z</time></trkpt><trkpt lat="48.5163612" lon="8.9638273"><ele>356.0</ele><time>2026-04-06T12:10:46.515Z</time></trkpt><trkpt lat="48.5163078" lon="8.9637725"><ele>356.0</ele><time>2026-04-06T12:10:47.504Z</time></trkpt><trkpt lat="48.5162516" lon="8.9637205"><ele>355.99999999999994</ele><time>2026-04-06T12:10:48.509Z</time></trkpt><trkpt lat="48.5161984" lon="8.9636673"><ele>356.0</ele><time>2026-04-06T12:10:49.513Z</time></trkpt><trkpt lat="48.5161454" lon="8.9636148"><ele>356.75</ele><time>2026-04-06T12:10:50.518Z</time></trkpt><trkpt lat="48.5160417" lon="8.9635161"><ele>357.5</ele><time>2026-04-06T12:10:52.506Z</time></trkpt><trkpt lat="48.5159394" lon="8.9634197"><ele>358.25</ele><time>2026-04-06T12:10:54.512Z</time></trkpt><trkpt lat="48.5158395" lon="8.9633268"><ele>359.0</ele><time>2026-04-06T12:10:56.501Z</time></trkpt><trkpt lat="48.5157482" lon="8.9632348"><ele>359.2</ele><time>2026-04-06T12:10:58.514Z</time></trkpt><trkpt lat="48.5156539" lon="8.9631481"><ele>359.4</ele><time>2026-04-06T12:11:00.469Z</time></trkpt><trkpt lat="48.51556" lon="8.9630597"><ele>359.6</ele><time>2026-04-06T12:11:02.511Z</time></trkpt><trkpt lat="48.5154736" lon="8.962973"><ele>359.8</ele><time>2026-04-06T12:11:04.501Z</time></trkpt><trkpt lat="48.515382" lon="8.9628877"><ele>360.0</ele><time>2026-04-06T12:11:06.499Z</time></trkpt><trkpt lat="48.515287" lon="8.9628029"><ele>360.6</ele><time>2026-04-06T12:11:08.485Z</time></trkpt><trkpt lat="48.5151975" lon="8.9627109"><ele>361.2</ele><time>2026-04-06T12:11:10.505Z</time></trkpt><trkpt lat="48.5151127" lon="8.962634"><ele>361.79999999999995</ele><time>2026-04-06T12:11:12.5Z</time></trkpt><trkpt lat="48.5150273" lon="8.9625492"><ele>362.4</ele><time>2026-04-06T12:11:14.491Z</time></trkpt><trkpt lat="48.5149466" lon="8.9624648"><ele>363.0</ele><time>2026-04-06T12:11:16.511Z</time></trkpt><trkpt lat="48.5148693" lon="8.9623895"><ele>363.3333333333333</ele><time>2026-04-06T12:11:18.5Z</time></trkpt><trkpt lat="48.5147918" lon="8.9623237"><ele>363.6666666666667</ele><time>2026-04-06T12:11:20.5Z</time></trkpt><trkpt lat="48.5147179" lon="8.9622651"><ele>364.0</ele><time>2026-04-06T12:11:22.503Z</time></trkpt><trkpt lat="48.5146495" lon="8.9622156"><ele>364.33333333333337</ele><time>2026-04-06T12:11:24.516Z</time></trkpt><trkpt lat="48.5145791" lon="8.9621795"><ele>364.6666666666667</ele><time>2026-04-06T12:11:26.506Z</time></trkpt><trkpt lat="48.5145107" lon="8.9621747"><ele>365.0</ele><time>2026-04-06T12:11:28.498Z</time></trkpt><trkpt lat="48.5144392" lon="8.962184"><ele>365.6666666666667</ele><time>2026-04-06T12:11:30.516Z</time></trkpt><trkpt lat="48.5143613" lon="8.9621921"><ele>366.33333333333337</ele><time>2026-04-06T12:11:32.495Z</time></trkpt><trkpt lat="48.5142813" lon="8.9621787"><ele>367.0</ele><time>2026-04-06T12:11:34.514Z</time></trkpt><trkpt lat="48.5142056" lon="8.9621717"><ele>367.6666666666667</ele><time>2026-04-06T12:11:36.482Z</time></trkpt><trkpt lat="48.5141324" lon="8.9621538"><ele>368.3333333333333</ele><time>2026-04-06T12:11:38.506Z</time></trkpt><trkpt lat="48.5140555" lon="8.9621333"><ele>369.0</ele><time>2026-04-06T12:11:40.51Z</time></trkpt><trkpt lat="48.513979" lon="8.9621152"><ele>369.0</ele><time>2026-04-06T12:11:42.52Z</time></trkpt><trkpt lat="48.513904" lon="8.9620973"><ele>369.0</ele><time>2026-04-06T12:11:44.5Z</time></trkpt><trkpt lat="48.513831" lon="8.9620756"><ele>369.0</ele><time>2026-04-06T12:11:46.479Z</time></trkpt><trkpt lat="48.5137558" lon="8.9620573"><ele>369.0</ele><time>2026-04-06T12:11:48.517Z</time></trkpt><trkpt lat="48.5136801" lon="8.9620413"><ele>369.0</ele><time>2026-04-06T12:11:50.506Z</time></trkpt><trkpt lat="48.5136066" lon="8.9620201"><ele>369.0</ele><time>2026-04-06T12:11:52.51Z</time></trkpt><trkpt lat="48.5135298" lon="8.962003"><ele>369.3333333333333</ele><time>2026-04-06T12:11:54.514Z</time></trkpt><trkpt lat="48.5134537" lon="8.9619823"><ele>369.6666666666667</ele><time>2026-04-06T12:11:56.512Z</time></trkpt><trkpt lat="48.5133707" lon="8.9619594"><ele>370.0</ele><time>2026-04-06T12:11:58.455Z</time></trkpt><trkpt lat="48.5132822" lon="8.9619428"><ele>370.33333333333337</ele><time>2026-04-06T12:12:00.483Z</time></trkpt><trkpt lat="48.5131922" lon="8.9619263"><ele>370.6666666666667</ele><time>2026-04-06T12:12:02.507Z</time></trkpt><trkpt lat="48.5131023" lon="8.9619082"><ele>371.0</ele><time>2026-04-06T12:12:04.52Z</time></trkpt><trkpt lat="48.5130046" lon="8.9618865"><ele>371.20000000000005</ele><time>2026-04-06T12:12:06.494Z</time></trkpt><trkpt lat="48.5129003" lon="8.96187"><ele>371.40000000000003</ele><time>2026-04-06T12:12:08.505Z</time></trkpt><trkpt lat="48.5127835" lon="8.9618372"><ele>371.6</ele><time>2026-04-06T12:12:10.503Z</time></trkpt><trkpt lat="48.5126612" lon="8.9618141"><ele>371.8</ele><time>2026-04-06T12:12:12.499Z</time></trkpt><trkpt lat="48.5125987" lon="8.9617954"><ele>372.0</ele><time>2026-04-06T12:12:13.502Z</time></trkpt><trkpt lat="48.5125333" lon="8.961777"><ele>372.00000000000006</ele><time>2026-04-06T12:12:14.506Z</time></trkpt><trkpt lat="48.5124681" lon="8.9617637"><ele>372.0</ele><time>2026-04-06T12:12:15.511Z</time></trkpt><trkpt lat="48.512397" lon="8.9617492"><ele>372.0</ele><time>2026-04-06T12:12:16.505Z</time></trkpt><trkpt lat="48.5123223" lon="8.9617355"><ele>372.0</ele><time>2026-04-06T12:12:17.496Z</time></trkpt><trkpt lat="48.512252" lon="8.9617227"><ele>372.0</ele><time>2026-04-06T12:12:18.489Z</time></trkpt><trkpt lat="48.51218" lon="8.9617025"><ele>372.00000000000006</ele><time>2026-04-06T12:12:19.524Z</time></trkpt><trkpt lat="48.5121083" lon="8.9616827"><ele>372.0</ele><time>2026-04-06T12:12:20.514Z</time></trkpt><trkpt lat="48.5120314" lon="8.9616667"><ele>371.6666666666667</ele><time>2026-04-06T12:12:21.482Z</time></trkpt><trkpt lat="48.5119547" lon="8.9616482"><ele>371.3333333333333</ele><time>2026-04-06T12:12:22.51Z</time></trkpt><trkpt lat="48.5118776" lon="8.9616325"><ele>371.0</ele><time>2026-04-06T12:12:23.503Z</time></trkpt><trkpt lat="48.5118" lon="8.961616"><ele>370.66666666666663</ele><time>2026-04-06T12:12:24.51Z</time></trkpt><trkpt lat="48.5117222" lon="8.9615952"><ele>370.3333333333333</ele><time>2026-04-06T12:12:25.512Z</time></trkpt><trkpt lat="48.5116453" lon="8.9615751"><ele>370.0</ele><time>2026-04-06T12:12:26.504Z</time></trkpt><trkpt lat="48.5115682" lon="8.9615565"><ele>370.0</ele><time>2026-04-06T12:12:27.528Z</time></trkpt><trkpt lat="48.5114883" lon="8.9615371"><ele>370.0</ele><time>2026-04-06T12:12:28.503Z</time></trkpt><trkpt lat="48.5114093" lon="8.9615194"><ele>370.0</ele><time>2026-04-06T12:12:29.514Z</time></trkpt><trkpt lat="48.5113294" lon="8.9615032"><ele>370.0</ele><time>2026-04-06T12:12:30.495Z</time></trkpt><trkpt lat="48.511252" lon="8.9614853"><ele>370.0</ele><time>2026-04-06T12:12:31.481Z</time></trkpt><trkpt lat="48.5111719" lon="8.9614688"><ele>370.0</ele><time>2026-04-06T12:12:32.503Z</time></trkpt><trkpt lat="48.5110904" lon="8.9614491"><ele>369.16666666666663</ele><time>2026-04-06T12:12:33.507Z</time></trkpt><trkpt lat="48.5110086" lon="8.9614342"><ele>368.3333333333333</ele><time>2026-04-06T12:12:34.509Z</time></trkpt><trkpt lat="48.5109301" lon="8.9614158"><ele>367.5</ele><time>2026-04-06T12:12:35.524Z</time></trkpt><trkpt lat="48.5108522" lon="8.9613974"><ele>366.6666666666667</ele><time>2026-04-06T12:12:36.502Z</time></trkpt><trkpt lat="48.5107721" lon="8.9613775"><ele>365.83333333333337</ele><time>2026-04-06T12:12:37.506Z</time></trkpt><trkpt lat="48.5106948" lon="8.9613575"><ele>365.0</ele><time>2026-04-06T12:12:38.514Z</time></trkpt><trkpt lat="48.5106182" lon="8.9613379"><ele>365.0</ele><time>2026-04-06T12:12:39.457Z</time></trkpt><trkpt lat="48.5105396" lon="8.9613214"><ele>365.0</ele><time>2026-04-06T12:12:40.506Z</time></trkpt><trkpt lat="48.5104615" lon="8.9613071"><ele>365.0</ele><time>2026-04-06T12:12:41.503Z</time></trkpt><trkpt lat="48.5103845" lon="8.9612886"><ele>365.0</ele><time>2026-04-06T12:12:42.516Z</time></trkpt><trkpt lat="48.510306" lon="8.961269"><ele>365.0</ele><time>2026-04-06T12:12:43.511Z</time></trkpt><trkpt lat="48.5102292" lon="8.9612512"><ele>365.0</ele><time>2026-04-06T12:12:44.496Z</time></trkpt><trkpt lat="48.5101491" lon="8.9612324"><ele>365.0</ele><time>2026-04-06T12:12:45.509Z</time></trkpt><trkpt lat="48.5100677" lon="8.9612149"><ele>365.0</ele><time>2026-04-06T12:12:46.475Z</time></trkpt><trkpt lat="48.5099832" lon="8.9611985"><ele>365.0</ele><time>2026-04-06T12:12:47.465Z</time></trkpt><trkpt lat="48.5098986" lon="8.9611778"><ele>365.0</ele><time>2026-04-06T12:12:48.476Z</time></trkpt><trkpt lat="48.5098158" lon="8.9611558"><ele>365.0</ele><time>2026-04-06T12:12:49.48Z</time></trkpt><trkpt lat="48.509728" lon="8.9611342"><ele>365.0</ele><time>2026-04-06T12:12:50.499Z</time></trkpt><trkpt lat="48.509642" lon="8.9610991"><ele>364.4</ele><time>2026-04-06T12:12:51.488Z</time></trkpt><trkpt lat="48.5095534" lon="8.961069"><ele>363.8</ele><time>2026-04-06T12:12:52.519Z</time></trkpt><trkpt lat="48.5094625" lon="8.9610374"><ele>363.20000000000005</ele><time>2026-04-06T12:12:53.513Z</time></trkpt><trkpt lat="48.5093689" lon="8.961007"><ele>362.6</ele><time>2026-04-06T12:12:54.499Z</time></trkpt><trkpt lat="48.5092762" lon="8.9609747"><ele>362.0</ele><time>2026-04-06T12:12:55.492Z</time></trkpt><trkpt lat="48.5091817" lon="8.9609431"><ele>362.0</ele><time>2026-04-06T12:12:56.495Z</time></trkpt><trkpt lat="48.509088" lon="8.9609088"><ele>362.0</ele><time>2026-04-06T12:12:57.473Z</time></trkpt><trkpt lat="48.5089943" lon="8.9608762"><ele>362.0</ele><time>2026-04-06T12:12:58.483Z</time></trkpt><trkpt lat="48.5088964" lon="8.9608448"><ele>362.0</ele><time>2026-04-06T12:12:59.468Z</time></trkpt><trkpt lat="48.5087973" lon="8.9608159"><ele>362.0</ele><time>2026-04-06T12:13:00.471Z</time></trkpt><trkpt lat="48.5086979" lon="8.960789"><ele>362.0</ele><time>2026-04-06T12:13:01.495Z</time></trkpt><trkpt lat="48.5085987" lon="8.9607611"><ele>362.0</ele><time>2026-04-06T12:13:02.492Z</time></trkpt><trkpt lat="48.5084954" lon="8.9607339"><ele>362.0</ele><time>2026-04-06T12:13:03.513Z</time></trkpt><trkpt lat="48.5083959" lon="8.9607141"><ele>362.0</ele><time>2026-04-06T12:13:04.503Z</time></trkpt><trkpt lat="48.5082934" lon="8.9606924"><ele>362.0</ele><time>2026-04-06T12:13:05.507Z</time></trkpt><trkpt lat="48.5081957" lon="8.9606613"><ele>362.0</ele><time>2026-04-06T12:13:06.5Z</time></trkpt><trkpt lat="48.5080945" lon="8.9606246"><ele>362.0</ele><time>2026-04-06T12:13:07.509Z</time></trkpt><trkpt lat="48.5080066" lon="8.9605662"><ele>362.0</ele><time>2026-04-06T12:13:08.499Z</time></trkpt><trkpt lat="48.5079296" lon="8.9604945"><ele>362.0</ele><time>2026-04-06T12:13:09.503Z</time></trkpt><trkpt lat="48.5078521" lon="8.9604164"><ele>362.0</ele><time>2026-04-06T12:13:10.5Z</time></trkpt><trkpt lat="48.5077738" lon="8.9603381"><ele>362.0</ele><time>2026-04-06T12:13:11.508Z</time></trkpt><trkpt lat="48.5076966" lon="8.9602682"><ele>362.0</ele><time>2026-04-06T12:13:12.499Z</time></trkpt><trkpt lat="48.5076229" lon="8.9602008"><ele>362.0</ele><time>2026-04-06T12:13:13.508Z</time></trkpt><trkpt lat="48.5075469" lon="8.9601331"><ele>362.0</ele><time>2026-04-06T12:13:14.501Z</time></trkpt><trkpt lat="48.5074719" lon="8.9600609"><ele>362.0</ele><time>2026-04-06T12:13:15.505Z</time></trkpt><trkpt lat="48.5074029" lon="8.9599976"><ele>362.0</ele><time>2026-04-06T12:13:16.492Z</time></trkpt><trkpt lat="48.5073406" lon="8.9599377"><ele>362.0</ele><time>2026-04-06T12:13:17.474Z</time></trkpt><trkpt lat="48.5072775" lon="8.9598781"><ele>362.0</ele><time>2026-04-06T12:13:18.48Z</time></trkpt><trkpt lat="48.5072147" lon="8.9598235"><ele>362.0</ele><time>2026-04-06T12:13:19.511Z</time></trkpt><trkpt lat="48.5071547" lon="8.959769"><ele>362.0</ele><time>2026-04-06T12:13:20.504Z</time></trkpt><trkpt lat="48.5070959" lon="8.9597166"><ele>362.0</ele><time>2026-04-06T12:13:21.481Z</time></trkpt><trkpt lat="48.5070416" lon="8.9596679"><ele>362.0</ele><time>2026-04-06T12:13:22.488Z</time></trkpt><trkpt lat="48.5069862" lon="8.9596216"><ele>362.0</ele><time>2026-04-06T12:13:23.493Z</time></trkpt><trkpt lat="48.506883" lon="8.95953"><ele>362.5</ele><time>2026-04-06T12:13:25.497Z</time></trkpt><trkpt lat="48.5067806" lon="8.959437"><ele>363.0</ele><time>2026-04-06T12:13:27.497Z</time></trkpt><trkpt lat="48.5066787" lon="8.9593803"><ele>363.5</ele><time>2026-04-06T12:13:29.492Z</time></trkpt><trkpt lat="48.5065686" lon="8.9593896"><ele>364.0</ele><time>2026-04-06T12:13:31.462Z</time></trkpt><trkpt lat="48.5064827" lon="8.9595295"><ele>364.0</ele><time>2026-04-06T12:13:33.505Z</time></trkpt><trkpt lat="48.5064334" lon="8.9596073"><ele>364.0</ele><time>2026-04-06T12:13:34.497Z</time></trkpt><trkpt lat="48.5063795" lon="8.9596896"><ele>364.0</ele><time>2026-04-06T12:13:35.502Z</time></trkpt><trkpt lat="48.5063225" lon="8.9597766"><ele>364.0</ele><time>2026-04-06T12:13:36.487Z</time></trkpt><trkpt lat="48.5062643" lon="8.9598705"><ele>364.0</ele><time>2026-04-06T12:13:37.509Z</time></trkpt><trkpt lat="48.5061982" lon="8.9599731"><ele>364.0</ele><time>2026-04-06T12:13:38.494Z</time></trkpt><trkpt lat="48.5061282" lon="8.9600725"><ele>362.4</ele><time>2026-04-06T12:13:39.509Z</time></trkpt><trkpt lat="48.5060518" lon="8.9601734"><ele>360.79999999999995</ele><time>2026-04-06T12:13:40.506Z</time></trkpt><trkpt lat="48.5059702" lon="8.9602718"><ele>359.20000000000005</ele><time>2026-04-06T12:13:41.523Z</time></trkpt><trkpt lat="48.5058835" lon="8.9603703"><ele>357.6</ele><time>2026-04-06T12:13:42.495Z</time></trkpt><trkpt lat="48.5057939" lon="8.9604711"><ele>356.0</ele><time>2026-04-06T12:13:43.507Z</time></trkpt><trkpt lat="48.5057032" lon="8.9605684"><ele>356.0</ele><time>2026-04-06T12:13:44.52Z</time></trkpt><trkpt lat="48.5056113" lon="8.9606689"><ele>356.0</ele><time>2026-04-06T12:13:45.506Z</time></trkpt><trkpt lat="48.505526" lon="8.9607665"><ele>356.0</ele><time>2026-04-06T12:13:46.511Z</time></trkpt><trkpt lat="48.5054368" lon="8.9608568"><ele>356.0</ele><time>2026-04-06T12:13:47.503Z</time></trkpt><trkpt lat="48.5053536" lon="8.9609488"><ele>356.0</ele><time>2026-04-06T12:13:48.511Z</time></trkpt><trkpt lat="48.5052733" lon="8.9610441"><ele>356.0</ele><time>2026-04-06T12:13:49.517Z</time></trkpt><trkpt lat="48.505192" lon="8.9611384"><ele>356.0</ele><time>2026-04-06T12:13:50.504Z</time></trkpt><trkpt lat="48.5051133" lon="8.961231"><ele>356.0</ele><time>2026-04-06T12:13:51.529Z</time></trkpt><trkpt lat="48.5050504" lon="8.9613269"><ele>356.0</ele><time>2026-04-06T12:13:52.501Z</time></trkpt><trkpt lat="48.5049975" lon="8.9614381"><ele>356.0</ele><time>2026-04-06T12:13:53.51Z</time></trkpt><trkpt lat="48.5049485" lon="8.9615506"><ele>355.99999999999994</ele><time>2026-04-06T12:13:54.507Z</time></trkpt><trkpt lat="48.5048991" lon="8.9616498"><ele>356.0</ele><time>2026-04-06T12:13:55.507Z</time></trkpt><trkpt lat="48.5048543" lon="8.9617405"><ele>356.0</ele><time>2026-04-06T12:13:56.511Z</time></trkpt><trkpt lat="48.5048148" lon="8.9618403"><ele>356.0</ele><time>2026-04-06T12:13:57.489Z</time></trkpt><trkpt lat="48.5047825" lon="8.9619305"><ele>356.0</ele><time>2026-04-06T12:13:58.509Z</time></trkpt><trkpt lat="48.5047467" lon="8.9620164"><ele>355.99999999999994</ele><time>2026-04-06T12:13:59.509Z</time></trkpt><trkpt lat="48.5046918" lon="8.9620867"><ele>356.0</ele><time>2026-04-06T12:14:00.475Z</time></trkpt><trkpt lat="48.5046277" lon="8.9621448"><ele>355.83333333333337</ele><time>2026-04-06T12:14:01.508Z</time></trkpt><trkpt lat="48.5045554" lon="8.9621741"><ele>355.6666666666667</ele><time>2026-04-06T12:14:02.49Z</time></trkpt><trkpt lat="48.504484" lon="8.9622017"><ele>355.5</ele><time>2026-04-06T12:14:03.486Z</time></trkpt><trkpt lat="48.5044162" lon="8.9622148"><ele>355.3333333333333</ele><time>2026-04-06T12:14:04.51Z</time></trkpt><trkpt lat="48.5043438" lon="8.9621919"><ele>355.16666666666663</ele><time>2026-04-06T12:14:05.501Z</time></trkpt><trkpt lat="48.5042113" lon="8.9621705"><ele>355.0</ele><time>2026-04-06T12:14:07.487Z</time></trkpt><trkpt lat="48.5041381" lon="8.9621571"><ele>355.0</ele><time>2026-04-06T12:14:08.48Z</time></trkpt><trkpt lat="48.5040715" lon="8.962135"><ele>355.0</ele><time>2026-04-06T12:14:09.502Z</time></trkpt><trkpt lat="48.5040072" lon="8.9621014"><ele>355.0</ele><time>2026-04-06T12:14:10.476Z</time></trkpt><trkpt lat="48.5039402" lon="8.962089"><ele>355.0</ele><time>2026-04-06T12:14:11.519Z</time></trkpt><trkpt lat="48.5038742" lon="8.9620793"><ele>355.0</ele><time>2026-04-06T12:14:12.511Z</time></trkpt><trkpt lat="48.5038101" lon="8.96208"><ele>355.0</ele><time>2026-04-06T12:14:13.501Z</time></trkpt><trkpt lat="48.5036918" lon="8.9620659"><ele>354.0</ele><time>2026-04-06T12:14:15.507Z</time></trkpt><trkpt lat="48.5035937" lon="8.9620549"><ele>353.0</ele><time>2026-04-06T12:14:17.464Z</time></trkpt><trkpt lat="48.5035338" lon="8.9619849"><ele>352.0</ele><time>2026-04-06T12:14:19.506Z</time></trkpt><trkpt lat="48.5034474" lon="8.9619528"><ele>351.0</ele><time>2026-04-06T12:14:22.487Z</time></trkpt><trkpt lat="48.5033537" lon="8.9619544"><ele>350.0</ele><time>2026-04-06T12:14:24.504Z</time></trkpt><trkpt lat="48.5032432" lon="8.9619923"><ele>350.0</ele><time>2026-04-06T12:14:26.51Z</time></trkpt><trkpt lat="48.5031332" lon="8.9620992"><ele>350.0</ele><time>2026-04-06T12:14:28.503Z</time></trkpt><trkpt lat="48.5030614" lon="8.9622309"><ele>350.0</ele><time>2026-04-06T12:14:30.507Z</time></trkpt><trkpt lat="48.5030125" lon="8.9623543"><ele>350.0</ele><time>2026-04-06T12:14:32.506Z</time></trkpt><trkpt lat="48.5029464" lon="8.962442"><ele>350.0</ele><time>2026-04-06T12:14:34.52Z</time></trkpt><trkpt lat="48.50283" lon="8.9623855"><ele>349.33333333333337</ele><time>2026-04-06T12:14:36.486Z</time></trkpt><trkpt lat="48.5027787" lon="8.9623301"><ele>348.6666666666667</ele><time>2026-04-06T12:14:37.463Z</time></trkpt><trkpt lat="48.5026732" lon="8.9622355"><ele>348.0</ele><time>2026-04-06T12:14:39.512Z</time></trkpt><trkpt lat="48.5026232" lon="8.9621716"><ele>347.3333333333333</ele><time>2026-04-06T12:14:40.497Z</time></trkpt><trkpt lat="48.5025731" lon="8.962109"><ele>346.66666666666663</ele><time>2026-04-06T12:14:41.5Z</time></trkpt><trkpt lat="48.5025168" lon="8.96205"><ele>346.0</ele><time>2026-04-06T12:14:42.514Z</time></trkpt><trkpt lat="48.5024626" lon="8.961974"><ele>346.0</ele><time>2026-04-06T12:14:43.522Z</time></trkpt><trkpt lat="48.5024123" lon="8.9619019"><ele>346.0</ele><time>2026-04-06T12:14:44.506Z</time></trkpt><trkpt lat="48.5023664" lon="8.96183"><ele>346.0</ele><time>2026-04-06T12:14:45.513Z</time></trkpt><trkpt lat="48.5023206" lon="8.9617608"><ele>346.0</ele><time>2026-04-06T12:14:46.512Z</time></trkpt><trkpt lat="48.5022116" lon="8.9617096"><ele>346.0</ele><time>2026-04-06T12:14:48.517Z</time></trkpt><trkpt lat="48.5021538" lon="8.96176"><ele>346.0</ele><time>2026-04-06T12:14:49.526Z</time></trkpt><trkpt lat="48.5021132" lon="8.9618482"><ele>346.0</ele><time>2026-04-06T12:14:50.499Z</time></trkpt><trkpt lat="48.5020526" lon="8.9619906"><ele>346.0</ele><time>2026-04-06T12:14:52.493Z</time></trkpt><trkpt lat="48.5020158" lon="8.9620757"><ele>346.0</ele><time>2026-04-06T12:14:53.506Z</time></trkpt><trkpt lat="48.5019508" lon="8.9622347"><ele>346.0</ele><time>2026-04-06T12:14:55.514Z</time></trkpt><trkpt lat="48.501884" lon="8.9623823"><ele>346.0</ele><time>2026-04-06T12:14:57.496Z</time></trkpt><trkpt lat="48.5018474" lon="8.9625519"><ele>346.0</ele><time>2026-04-06T12:14:59.523Z</time></trkpt><trkpt lat="48.5018195" lon="8.9627232"><ele>346.0</ele><time>2026-04-06T12:15:01.515Z</time></trkpt><trkpt lat="48.5018094" lon="8.9628765"><ele>346.0</ele><time>2026-04-06T12:15:03.506Z</time></trkpt><trkpt lat="48.5018046" lon="8.963011"><ele>346.0</ele><time>2026-04-06T12:15:05.477Z</time></trkpt><trkpt lat="48.5018009" lon="8.9631276"><ele>346.0</ele><time>2026-04-06T12:15:07.479Z</time></trkpt><trkpt lat="48.5017865" lon="8.9632704"><ele>346.0</ele><time>2026-04-06T12:15:10.484Z</time></trkpt><trkpt lat="48.5018428" lon="8.963328"><ele>346.0</ele><time>2026-04-06T12:15:13.51Z</time></trkpt><trkpt lat="48.5019087" lon="8.9633194"><ele>346.0</ele><time>2026-04-06T12:15:16.482Z</time></trkpt><trkpt lat="48.5019874" lon="8.963287"><ele>346.0</ele><time>2026-04-06T12:15:20.512Z</time></trkpt><trkpt lat="48.5019236" lon="8.9632738"><ele>346.0</ele><time>2026-04-06T12:15:29.482Z</time></trkpt><trkpt lat="48.5018376" lon="8.9632656"><ele>346.0</ele><time>2026-04-06T12:15:32.511Z</time></trkpt><trkpt lat="48.5018085" lon="8.9631799"><ele>346.0</ele><time>2026-04-06T12:15:34.501Z</time></trkpt><trkpt lat="48.5017986" lon="8.9630841"><ele>346.0</ele><time>2026-04-06T12:15:36.492Z</time></trkpt><trkpt lat="48.5017957" lon="8.9629684"><ele>346.0</ele><time>2026-04-06T12:15:38.502Z</time></trkpt><trkpt lat="48.5018046" lon="8.9628567"><ele>346.0</ele><time>2026-04-06T12:15:40.488Z</time></trkpt><trkpt lat="48.5018236" lon="8.962737"><ele>346.0</ele><time>2026-04-06T12:15:42.497Z</time></trkpt><trkpt lat="48.5018324" lon="8.9626063"><ele>346.0</ele><time>2026-04-06T12:15:44.522Z</time></trkpt><trkpt lat="48.5018586" lon="8.9624626"><ele>346.0</ele><time>2026-04-06T12:15:46.493Z</time></trkpt><trkpt lat="48.5019026" lon="8.9623301"><ele>346.0</ele><time>2026-04-06T12:15:48.502Z</time></trkpt><trkpt lat="48.5019497" lon="8.9621963"><ele>346.0</ele><time>2026-04-06T12:15:50.478Z</time></trkpt><trkpt lat="48.5020052" lon="8.9620808"><ele>346.0</ele><time>2026-04-06T12:15:52.469Z</time></trkpt><trkpt lat="48.5020632" lon="8.9619724"><ele>346.0</ele><time>2026-04-06T12:15:54.48Z</time></trkpt><trkpt lat="48.5021209" lon="8.9618578"><ele>346.0</ele><time>2026-04-06T12:15:56.508Z</time></trkpt><trkpt lat="48.5021699" lon="8.9617494"><ele>346.0</ele><time>2026-04-06T12:15:58.505Z</time></trkpt><trkpt lat="48.5022409" lon="8.961669"><ele>346.0</ele><time>2026-04-06T12:16:00.485Z</time></trkpt><trkpt lat="48.5023045" lon="8.9617454"><ele>346.0</ele><time>2026-04-06T12:16:02.507Z</time></trkpt><trkpt lat="48.5023699" lon="8.9618724"><ele>346.0</ele><time>2026-04-06T12:16:04.505Z</time></trkpt><trkpt lat="48.5024459" lon="8.9619837"><ele>346.0</ele><time>2026-04-06T12:16:06.516Z</time></trkpt><trkpt lat="48.5025315" lon="8.9620817"><ele>346.0</ele><time>2026-04-06T12:16:08.463Z</time></trkpt><trkpt lat="48.5026235" lon="8.9621687"><ele>346.0</ele><time>2026-04-06T12:16:10.504Z</time></trkpt><trkpt lat="48.5027041" lon="8.9622606"><ele>346.0</ele><time>2026-04-06T12:16:12.482Z</time></trkpt><trkpt lat="48.5027834" lon="8.962351"><ele>346.0</ele><time>2026-04-06T12:16:14.489Z</time></trkpt><trkpt lat="48.5028723" lon="8.9624351"><ele>346.0</ele><time>2026-04-06T12:16:16.514Z</time></trkpt><trkpt lat="48.5029584" lon="8.9625227"><ele>347.4</ele><time>2026-04-06T12:16:18.486Z</time></trkpt><trkpt lat="48.5030312" lon="8.9626174"><ele>348.8</ele><time>2026-04-06T12:16:20.518Z</time></trkpt><trkpt lat="48.5031211" lon="8.9627009"><ele>350.2</ele><time>2026-04-06T12:16:22.513Z</time></trkpt><trkpt lat="48.5032038" lon="8.9627823"><ele>351.59999999999997</ele><time>2026-04-06T12:16:24.497Z</time></trkpt><trkpt lat="48.5032935" lon="8.9628694"><ele>353.0</ele><time>2026-04-06T12:16:26.519Z</time></trkpt><trkpt lat="48.5033738" lon="8.9629323"><ele>353.0</ele><time>2026-04-06T12:16:28.511Z</time></trkpt><trkpt lat="48.5034514" lon="8.9630048"><ele>353.0</ele><time>2026-04-06T12:16:30.503Z</time></trkpt><trkpt lat="48.5035284" lon="8.9630824"><ele>353.0</ele><time>2026-04-06T12:16:32.501Z</time></trkpt><trkpt lat="48.503607" lon="8.9631342"><ele>353.0</ele><time>2026-04-06T12:16:34.501Z</time></trkpt><trkpt lat="48.5036891" lon="8.9631726"><ele>353.0</ele><time>2026-04-06T12:16:36.487Z</time></trkpt><trkpt lat="48.5037691" lon="8.9632224"><ele>353.0</ele><time>2026-04-06T12:16:38.513Z</time></trkpt><trkpt lat="48.5038372" lon="8.9632831"><ele>353.33333333333337</ele><time>2026-04-06T12:16:40.503Z</time></trkpt><trkpt lat="48.5039136" lon="8.9633453"><ele>353.6666666666667</ele><time>2026-04-06T12:16:42.522Z</time></trkpt><trkpt lat="48.5039851" lon="8.9634117"><ele>354.0</ele><time>2026-04-06T12:16:44.509Z</time></trkpt><trkpt lat="48.5040589" lon="8.9634731"><ele>354.3333333333333</ele><time>2026-04-06T12:16:46.506Z</time></trkpt><trkpt lat="48.5041403" lon="8.9635275"><ele>354.66666666666663</ele><time>2026-04-06T12:16:48.504Z</time></trkpt><trkpt lat="48.5042264" lon="8.9635781"><ele>355.0</ele><time>2026-04-06T12:16:50.511Z</time></trkpt><trkpt lat="48.5043143" lon="8.9636366"><ele>355.0</ele><time>2026-04-06T12:16:52.504Z</time></trkpt><trkpt lat="48.5043951" lon="8.9636964"><ele>355.0</ele><time>2026-04-06T12:16:54.481Z</time></trkpt><trkpt lat="48.5044943" lon="8.9637528"><ele>355.0</ele><time>2026-04-06T12:16:56.509Z</time></trkpt><trkpt lat="48.5045909" lon="8.9638117"><ele>355.0</ele><time>2026-04-06T12:16:58.509Z</time></trkpt><trkpt lat="48.5046749" lon="8.9638811"><ele>355.0</ele><time>2026-04-06T12:17:00.477Z</time></trkpt><trkpt lat="48.5047604" lon="8.9639516"><ele>355.2</ele><time>2026-04-06T12:17:02.495Z</time></trkpt><trkpt lat="48.5048482" lon="8.9640288"><ele>355.4</ele><time>2026-04-06T12:17:04.502Z</time></trkpt><trkpt lat="48.5049305" lon="8.9641092"><ele>355.6</ele><time>2026-04-06T12:17:06.501Z</time></trkpt><trkpt lat="48.5050088" lon="8.9641884"><ele>355.8</ele><time>2026-04-06T12:17:08.503Z</time></trkpt><trkpt lat="48.5050908" lon="8.9642713"><ele>356.0</ele><time>2026-04-06T12:17:10.491Z</time></trkpt><trkpt lat="48.5051482" lon="8.9643812"><ele>356.0</ele><time>2026-04-06T12:17:12.477Z</time></trkpt><trkpt lat="48.5051681" lon="8.9645087"><ele>356.0</ele><time>2026-04-06T12:17:14.498Z</time></trkpt><trkpt lat="48.5051964" lon="8.964606"><ele>356.0</ele><time>2026-04-06T12:17:16.522Z</time></trkpt><trkpt lat="48.5052344" lon="8.964696"><ele>356.0</ele><time>2026-04-06T12:17:18.512Z</time></trkpt><trkpt lat="48.5053009" lon="8.9646965"><ele>356.0</ele><time>2026-04-06T12:17:35.446Z</time></trkpt><trkpt lat="48.5053009" lon="8.9646965"><ele>356.0</ele><time>2026-04-06T12:17:35.446Z</time></trkpt></trkseg></trk></gpx>